<?xml version="1.0" encoding="UTF-8" standalone="no" ?>
<gpx xmlns="http://www.topografix.com/GPX/1/1" xmlns:xsi="http://www.w3.org/2001/XMLSchema-instance" xsi:schemaLocation="http://www.topografix.com/GPX/1/1 http://www.topografix.com/GPX/1/1/gpx.xsd" version="1.1" creator="VisuGPX - https://www.visugpx.com">
  <metadata>
    <name>La Virée de la Poste (2015-06-17)</name>
    <desc><![CDATA[La Virée de la Poste (2015-06-17)]]></desc>
  </metadata>
  <trk>
    <name><![CDATA[Tracé actuel: 17 JUIN 2015 09:55]]></name>
    <trkseg>
      <trkpt lat="45.02585" lon="0.41332">
        <ele>114.05</ele>
        <time>2015-06-17T07:55:03Z</time>
      </trkpt>
      <trkpt lat="45.02585" lon="0.41332">
        <ele>114.05</ele>
        <time>2015-06-17T07:55:04Z</time>
      </trkpt>
      <trkpt lat="45.02585" lon="0.41329">
        <ele>114.05</ele>
        <time>2015-06-17T07:55:43Z</time>
      </trkpt>
      <trkpt lat="45.02586" lon="0.41329">
        <ele>114.05</ele>
        <time>2015-06-17T07:56:12Z</time>
      </trkpt>
      <trkpt lat="45.02587" lon="0.4133">
        <ele>114.05</ele>
        <time>2015-06-17T07:56:29Z</time>
      </trkpt>
      <trkpt lat="45.02586" lon="0.41331">
        <ele>114.05</ele>
        <time>2015-06-17T07:56:54Z</time>
      </trkpt>
      <trkpt lat="45.02584" lon="0.41331">
        <ele>114.05</ele>
        <time>2015-06-17T07:57:14Z</time>
      </trkpt>
      <trkpt lat="45.02591" lon="0.41324">
        <ele>114.05</ele>
        <time>2015-06-17T07:57:28Z</time>
      </trkpt>
      <trkpt lat="45.02594" lon="0.41321">
        <ele>115.01</ele>
        <time>2015-06-17T07:58:01Z</time>
      </trkpt>
      <trkpt lat="45.02597" lon="0.41318">
        <ele>115.01</ele>
        <time>2015-06-17T07:58:16Z</time>
      </trkpt>
      <trkpt lat="45.02601" lon="0.41321">
        <ele>115.01</ele>
        <time>2015-06-17T07:58:49Z</time>
      </trkpt>
      <trkpt lat="45.02599" lon="0.41319">
        <ele>115.01</ele>
        <time>2015-06-17T07:59:26Z</time>
      </trkpt>
      <trkpt lat="45.02604" lon="0.41312">
        <ele>115.5</ele>
        <time>2015-06-17T07:59:50Z</time>
      </trkpt>
      <trkpt lat="45.02607" lon="0.41307">
        <ele>115.98</ele>
        <time>2015-06-17T07:59:57Z</time>
      </trkpt>
      <trkpt lat="45.02614" lon="0.41296">
        <ele>117.42</ele>
        <time>2015-06-17T08:00:14Z</time>
      </trkpt>
      <trkpt lat="45.02612" lon="0.41295">
        <ele>117.42</ele>
        <time>2015-06-17T08:00:45Z</time>
      </trkpt>
      <trkpt lat="45.02613" lon="0.41298">
        <ele>117.9</ele>
        <time>2015-06-17T08:01:15Z</time>
      </trkpt>
      <trkpt lat="45.02611" lon="0.41297">
        <ele>116.94</ele>
        <time>2015-06-17T08:01:33Z</time>
      </trkpt>
      <trkpt lat="45.02607" lon="0.41303">
        <ele>116.94</ele>
        <time>2015-06-17T08:01:39Z</time>
      </trkpt>
      <trkpt lat="45.02596" lon="0.41317">
        <ele>115.01</ele>
        <time>2015-06-17T08:01:51Z</time>
      </trkpt>
      <trkpt lat="45.02596" lon="0.41314">
        <ele>115.01</ele>
        <time>2015-06-17T08:01:53Z</time>
      </trkpt>
      <trkpt lat="45.02594" lon="0.41312">
        <ele>114.05</ele>
        <time>2015-06-17T08:02:06Z</time>
      </trkpt>
      <trkpt lat="45.02592" lon="0.41309">
        <ele>113.57</ele>
        <time>2015-06-17T08:02:22Z</time>
      </trkpt>
      <trkpt lat="45.02591" lon="0.41312">
        <ele>113.57</ele>
        <time>2015-06-17T08:02:33Z</time>
      </trkpt>
      <trkpt lat="45.0259" lon="0.41314">
        <ele>113.57</ele>
        <time>2015-06-17T08:02:47Z</time>
      </trkpt>
      <trkpt lat="45.02591" lon="0.41314">
        <ele>113.09</ele>
        <time>2015-06-17T08:03:10Z</time>
      </trkpt>
      <trkpt lat="45.02595" lon="0.41314">
        <ele>113.57</ele>
        <time>2015-06-17T08:03:45Z</time>
      </trkpt>
      <trkpt lat="45.02593" lon="0.41315">
        <ele>113.57</ele>
        <time>2015-06-17T08:04:08Z</time>
      </trkpt>
      <trkpt lat="45.02594" lon="0.41315">
        <ele>113.57</ele>
        <time>2015-06-17T08:04:30Z</time>
      </trkpt>
      <trkpt lat="45.02591" lon="0.41312">
        <ele>113.57</ele>
        <time>2015-06-17T08:04:50Z</time>
      </trkpt>
      <trkpt lat="45.02591" lon="0.41314">
        <ele>113.57</ele>
        <time>2015-06-17T08:05:11Z</time>
      </trkpt>
      <trkpt lat="45.02591" lon="0.41314">
        <ele>113.57</ele>
        <time>2015-06-17T08:05:40Z</time>
      </trkpt>
      <trkpt lat="45.02591" lon="0.41314">
        <ele>113.57</ele>
        <time>2015-06-17T08:05:56Z</time>
      </trkpt>
      <trkpt lat="45.0259" lon="0.41314">
        <ele>113.57</ele>
        <time>2015-06-17T08:06:22Z</time>
      </trkpt>
      <trkpt lat="45.02592" lon="0.41314">
        <ele>113.57</ele>
        <time>2015-06-17T08:06:40Z</time>
      </trkpt>
      <trkpt lat="45.02593" lon="0.41317">
        <ele>113.57</ele>
        <time>2015-06-17T08:06:58Z</time>
      </trkpt>
      <trkpt lat="45.02595" lon="0.41319">
        <ele>113.57</ele>
        <time>2015-06-17T08:07:03Z</time>
      </trkpt>
      <trkpt lat="45.02598" lon="0.41317">
        <ele>115.01</ele>
        <time>2015-06-17T08:07:14Z</time>
      </trkpt>
      <trkpt lat="45.02601" lon="0.41313">
        <ele>115.01</ele>
        <time>2015-06-17T08:07:24Z</time>
      </trkpt>
      <trkpt lat="45.02611" lon="0.41301">
        <ele>117.9</ele>
        <time>2015-06-17T08:07:44Z</time>
      </trkpt>
      <trkpt lat="45.0261" lon="0.413">
        <ele>117.9</ele>
        <time>2015-06-17T08:08:03Z</time>
      </trkpt>
      <trkpt lat="45.02615" lon="0.41296">
        <ele>117.9</ele>
        <time>2015-06-17T08:08:17Z</time>
      </trkpt>
      <trkpt lat="45.02619" lon="0.41291">
        <ele>117.9</ele>
        <time>2015-06-17T08:08:30Z</time>
      </trkpt>
      <trkpt lat="45.02621" lon="0.4129">
        <ele>117.9</ele>
        <time>2015-06-17T08:08:45Z</time>
      </trkpt>
      <trkpt lat="45.02625" lon="0.41286">
        <ele>118.38</ele>
        <time>2015-06-17T08:08:50Z</time>
      </trkpt>
      <trkpt lat="45.02634" lon="0.41272">
        <ele>119.34</ele>
        <time>2015-06-17T08:09:02Z</time>
      </trkpt>
      <trkpt lat="45.02635" lon="0.4127">
        <ele>119.34</ele>
        <time>2015-06-17T08:09:04Z</time>
      </trkpt>
      <trkpt lat="45.02637" lon="0.41264">
        <ele>119.82</ele>
        <time>2015-06-17T08:09:08Z</time>
      </trkpt>
      <trkpt lat="45.0265" lon="0.41247">
        <ele>120.3</ele>
        <time>2015-06-17T08:09:25Z</time>
      </trkpt>
      <trkpt lat="45.02657" lon="0.41236">
        <ele>120.3</ele>
        <time>2015-06-17T08:09:34Z</time>
      </trkpt>
      <trkpt lat="45.02664" lon="0.41229">
        <ele>120.3</ele>
        <time>2015-06-17T08:09:41Z</time>
      </trkpt>
      <trkpt lat="45.02674" lon="0.41213">
        <ele>120.78</ele>
        <time>2015-06-17T08:09:54Z</time>
      </trkpt>
      <trkpt lat="45.02687" lon="0.41191">
        <ele>121.74</ele>
        <time>2015-06-17T08:10:12Z</time>
      </trkpt>
      <trkpt lat="45.02699" lon="0.41172">
        <ele>122.71</ele>
        <time>2015-06-17T08:10:29Z</time>
      </trkpt>
      <trkpt lat="45.02702" lon="0.41167">
        <ele>122.71</ele>
        <time>2015-06-17T08:10:34Z</time>
      </trkpt>
      <trkpt lat="45.02705" lon="0.41164">
        <ele>123.19</ele>
        <time>2015-06-17T08:10:38Z</time>
      </trkpt>
      <trkpt lat="45.02707" lon="0.4116">
        <ele>123.67</ele>
        <time>2015-06-17T08:10:41Z</time>
      </trkpt>
      <trkpt lat="45.02709" lon="0.41159">
        <ele>123.67</ele>
        <time>2015-06-17T08:10:43Z</time>
      </trkpt>
      <trkpt lat="45.02721" lon="0.41147">
        <ele>125.11</ele>
        <time>2015-06-17T08:10:57Z</time>
      </trkpt>
      <trkpt lat="45.02723" lon="0.41146">
        <ele>125.59</ele>
        <time>2015-06-17T08:11:00Z</time>
      </trkpt>
      <trkpt lat="45.02737" lon="0.41133">
        <ele>126.55</ele>
        <time>2015-06-17T08:11:15Z</time>
      </trkpt>
      <trkpt lat="45.02742" lon="0.41127">
        <ele>127.51</ele>
        <time>2015-06-17T08:11:21Z</time>
      </trkpt>
      <trkpt lat="45.02744" lon="0.41125">
        <ele>127.99</ele>
        <time>2015-06-17T08:11:24Z</time>
      </trkpt>
      <trkpt lat="45.02761" lon="0.41106">
        <ele>129.43</ele>
        <time>2015-06-17T08:11:44Z</time>
      </trkpt>
      <trkpt lat="45.02768" lon="0.41098">
        <ele>130.4</ele>
        <time>2015-06-17T08:11:52Z</time>
      </trkpt>
      <trkpt lat="45.02775" lon="0.41088">
        <ele>131.36</ele>
        <time>2015-06-17T08:12:01Z</time>
      </trkpt>
      <trkpt lat="45.02784" lon="0.41081">
        <ele>132.32</ele>
        <time>2015-06-17T08:12:14Z</time>
      </trkpt>
      <trkpt lat="45.02782" lon="0.41082">
        <ele>132.8</ele>
        <time>2015-06-17T08:12:30Z</time>
      </trkpt>
      <trkpt lat="45.02781" lon="0.4108">
        <ele>132.8</ele>
        <time>2015-06-17T08:12:48Z</time>
      </trkpt>
      <trkpt lat="45.02783" lon="0.41077">
        <ele>132.8</ele>
        <time>2015-06-17T08:13:14Z</time>
      </trkpt>
      <trkpt lat="45.02782" lon="0.41077">
        <ele>132.8</ele>
        <time>2015-06-17T08:13:38Z</time>
      </trkpt>
      <trkpt lat="45.02783" lon="0.4108">
        <ele>132.8</ele>
        <time>2015-06-17T08:14:09Z</time>
      </trkpt>
      <trkpt lat="45.02787" lon="0.41079">
        <ele>132.8</ele>
        <time>2015-06-17T08:14:46Z</time>
      </trkpt>
      <trkpt lat="45.02782" lon="0.4108">
        <ele>132.8</ele>
        <time>2015-06-17T08:15:00Z</time>
      </trkpt>
      <trkpt lat="45.02781" lon="0.41079">
        <ele>132.8</ele>
        <time>2015-06-17T08:15:15Z</time>
      </trkpt>
      <trkpt lat="45.02781" lon="0.41076">
        <ele>132.8</ele>
        <time>2015-06-17T08:15:42Z</time>
      </trkpt>
      <trkpt lat="45.02782" lon="0.41072">
        <ele>132.8</ele>
        <time>2015-06-17T08:15:56Z</time>
      </trkpt>
      <trkpt lat="45.02784" lon="0.41069">
        <ele>132.8</ele>
        <time>2015-06-17T08:16:02Z</time>
      </trkpt>
      <trkpt lat="45.02785" lon="0.41068">
        <ele>132.8</ele>
        <time>2015-06-17T08:16:04Z</time>
      </trkpt>
      <trkpt lat="45.02792" lon="0.41058">
        <ele>134.24</ele>
        <time>2015-06-17T08:16:17Z</time>
      </trkpt>
      <trkpt lat="45.02794" lon="0.41057">
        <ele>134.72</ele>
        <time>2015-06-17T08:16:30Z</time>
      </trkpt>
      <trkpt lat="45.02793" lon="0.41056">
        <ele>134.72</ele>
        <time>2015-06-17T08:16:52Z</time>
      </trkpt>
      <trkpt lat="45.02795" lon="0.41054">
        <ele>134.72</ele>
        <time>2015-06-17T08:17:09Z</time>
      </trkpt>
      <trkpt lat="45.02798" lon="0.41048">
        <ele>135.68</ele>
        <time>2015-06-17T08:17:21Z</time>
      </trkpt>
      <trkpt lat="45.02801" lon="0.41043">
        <ele>136.16</ele>
        <time>2015-06-17T08:17:26Z</time>
      </trkpt>
      <trkpt lat="45.02805" lon="0.41039">
        <ele>136.16</ele>
        <time>2015-06-17T08:17:30Z</time>
      </trkpt>
      <trkpt lat="45.0281" lon="0.4103">
        <ele>136.64</ele>
        <time>2015-06-17T08:17:38Z</time>
      </trkpt>
      <trkpt lat="45.02816" lon="0.41022">
        <ele>137.61</ele>
        <time>2015-06-17T08:17:49Z</time>
      </trkpt>
      <trkpt lat="45.02819" lon="0.41017">
        <ele>138.09</ele>
        <time>2015-06-17T08:17:53Z</time>
      </trkpt>
      <trkpt lat="45.02823" lon="0.41014">
        <ele>138.57</ele>
        <time>2015-06-17T08:17:58Z</time>
      </trkpt>
      <trkpt lat="45.02827" lon="0.41009">
        <ele>138.57</ele>
        <time>2015-06-17T08:18:05Z</time>
      </trkpt>
      <trkpt lat="45.02836" lon="0.40998">
        <ele>139.53</ele>
        <time>2015-06-17T08:18:15Z</time>
      </trkpt>
      <trkpt lat="45.02847" lon="0.40987">
        <ele>140.01</ele>
        <time>2015-06-17T08:18:28Z</time>
      </trkpt>
      <trkpt lat="45.0286" lon="0.40972">
        <ele>140.97</ele>
        <time>2015-06-17T08:18:43Z</time>
      </trkpt>
      <trkpt lat="45.02875" lon="0.40953">
        <ele>141.93</ele>
        <time>2015-06-17T08:19:00Z</time>
      </trkpt>
      <trkpt lat="45.02888" lon="0.40937">
        <ele>142.89</ele>
        <time>2015-06-17T08:19:15Z</time>
      </trkpt>
      <trkpt lat="45.02898" lon="0.40926">
        <ele>142.89</ele>
        <time>2015-06-17T08:19:26Z</time>
      </trkpt>
      <trkpt lat="45.029" lon="0.40924">
        <ele>142.89</ele>
        <time>2015-06-17T08:19:28Z</time>
      </trkpt>
      <trkpt lat="45.02906" lon="0.40917">
        <ele>142.89</ele>
        <time>2015-06-17T08:19:34Z</time>
      </trkpt>
      <trkpt lat="45.02909" lon="0.40912">
        <ele>142.89</ele>
        <time>2015-06-17T08:19:38Z</time>
      </trkpt>
      <trkpt lat="45.02911" lon="0.40911">
        <ele>142.89</ele>
        <time>2015-06-17T08:19:40Z</time>
      </trkpt>
      <trkpt lat="45.02914" lon="0.40911">
        <ele>142.89</ele>
        <time>2015-06-17T08:19:42Z</time>
      </trkpt>
      <trkpt lat="45.02919" lon="0.40906">
        <ele>142.89</ele>
        <time>2015-06-17T08:19:47Z</time>
      </trkpt>
      <trkpt lat="45.02936" lon="0.40886">
        <ele>142.89</ele>
        <time>2015-06-17T08:20:05Z</time>
      </trkpt>
      <trkpt lat="45.02938" lon="0.40883">
        <ele>141.93</ele>
        <time>2015-06-17T08:20:07Z</time>
      </trkpt>
      <trkpt lat="45.02945" lon="0.40868">
        <ele>141.93</ele>
        <time>2015-06-17T08:20:18Z</time>
      </trkpt>
      <trkpt lat="45.02944" lon="0.40855">
        <ele>141.45</ele>
        <time>2015-06-17T08:20:26Z</time>
      </trkpt>
      <trkpt lat="45.02932" lon="0.40834">
        <ele>140.49</ele>
        <time>2015-06-17T08:20:43Z</time>
      </trkpt>
      <trkpt lat="45.0292" lon="0.4082">
        <ele>140.01</ele>
        <time>2015-06-17T08:20:56Z</time>
      </trkpt>
      <trkpt lat="45.02908" lon="0.40805">
        <ele>140.01</ele>
        <time>2015-06-17T08:21:10Z</time>
      </trkpt>
      <trkpt lat="45.02902" lon="0.40798">
        <ele>140.01</ele>
        <time>2015-06-17T08:21:16Z</time>
      </trkpt>
      <trkpt lat="45.02897" lon="0.4079">
        <ele>140.01</ele>
        <time>2015-06-17T08:21:23Z</time>
      </trkpt>
      <trkpt lat="45.02895" lon="0.40789">
        <ele>140.01</ele>
        <time>2015-06-17T08:21:25Z</time>
      </trkpt>
      <trkpt lat="45.02882" lon="0.40776">
        <ele>140.97</ele>
        <time>2015-06-17T08:21:38Z</time>
      </trkpt>
      <trkpt lat="45.0287" lon="0.40764">
        <ele>140.97</ele>
        <time>2015-06-17T08:21:51Z</time>
      </trkpt>
      <trkpt lat="45.02855" lon="0.40742">
        <ele>141.45</ele>
        <time>2015-06-17T08:22:06Z</time>
      </trkpt>
      <trkpt lat="45.02844" lon="0.40714">
        <ele>141.93</ele>
        <time>2015-06-17T08:22:24Z</time>
      </trkpt>
      <trkpt lat="45.02837" lon="0.40683">
        <ele>141.93</ele>
        <time>2015-06-17T08:22:41Z</time>
      </trkpt>
      <trkpt lat="45.02837" lon="0.40681">
        <ele>141.93</ele>
        <time>2015-06-17T08:22:42Z</time>
      </trkpt>
      <trkpt lat="45.02831" lon="0.40652">
        <ele>140.49</ele>
        <time>2015-06-17T08:22:58Z</time>
      </trkpt>
      <trkpt lat="45.02829" lon="0.40634">
        <ele>139.53</ele>
        <time>2015-06-17T08:23:10Z</time>
      </trkpt>
      <trkpt lat="45.0283" lon="0.40634">
        <ele>139.53</ele>
        <time>2015-06-17T08:23:13Z</time>
      </trkpt>
      <trkpt lat="45.02825" lon="0.40612">
        <ele>138.57</ele>
        <time>2015-06-17T08:23:26Z</time>
      </trkpt>
      <trkpt lat="45.02817" lon="0.40598">
        <ele>136.64</ele>
        <time>2015-06-17T08:23:43Z</time>
      </trkpt>
      <trkpt lat="45.0282" lon="0.40597">
        <ele>136.16</ele>
        <time>2015-06-17T08:23:58Z</time>
      </trkpt>
      <trkpt lat="45.02822" lon="0.406">
        <ele>137.13</ele>
        <time>2015-06-17T08:24:24Z</time>
      </trkpt>
      <trkpt lat="45.02825" lon="0.40596">
        <ele>137.13</ele>
        <time>2015-06-17T08:24:47Z</time>
      </trkpt>
      <trkpt lat="45.02823" lon="0.40599">
        <ele>137.13</ele>
        <time>2015-06-17T08:25:06Z</time>
      </trkpt>
      <trkpt lat="45.02821" lon="0.406">
        <ele>137.13</ele>
        <time>2015-06-17T08:25:34Z</time>
      </trkpt>
      <trkpt lat="45.02822" lon="0.406">
        <ele>137.13</ele>
        <time>2015-06-17T08:25:57Z</time>
      </trkpt>
      <trkpt lat="45.02822" lon="0.40601">
        <ele>137.13</ele>
        <time>2015-06-17T08:26:20Z</time>
      </trkpt>
      <trkpt lat="45.0282" lon="0.40602">
        <ele>137.13</ele>
        <time>2015-06-17T08:26:49Z</time>
      </trkpt>
      <trkpt lat="45.02821" lon="0.40601">
        <ele>136.16</ele>
        <time>2015-06-17T08:26:52Z</time>
      </trkpt>
      <trkpt lat="45.02823" lon="0.40597">
        <ele>137.61</ele>
        <time>2015-06-17T08:27:08Z</time>
      </trkpt>
      <trkpt lat="45.02822" lon="0.40597">
        <ele>138.57</ele>
        <time>2015-06-17T08:27:31Z</time>
      </trkpt>
      <trkpt lat="45.02815" lon="0.40573">
        <ele>136.16</ele>
        <time>2015-06-17T08:27:47Z</time>
      </trkpt>
      <trkpt lat="45.02808" lon="0.40548">
        <ele>135.2</ele>
        <time>2015-06-17T08:28:03Z</time>
      </trkpt>
      <trkpt lat="45.02803" lon="0.4053">
        <ele>134.72</ele>
        <time>2015-06-17T08:28:16Z</time>
      </trkpt>
      <trkpt lat="45.02796" lon="0.40508">
        <ele>134.72</ele>
        <time>2015-06-17T08:28:29Z</time>
      </trkpt>
      <trkpt lat="45.02789" lon="0.40486">
        <ele>134.24</ele>
        <time>2015-06-17T08:28:43Z</time>
      </trkpt>
      <trkpt lat="45.02782" lon="0.40469">
        <ele>132.8</ele>
        <time>2015-06-17T08:28:56Z</time>
      </trkpt>
      <trkpt lat="45.02777" lon="0.40461">
        <ele>131.84</ele>
        <time>2015-06-17T08:29:08Z</time>
      </trkpt>
      <trkpt lat="45.02773" lon="0.40453">
        <ele>131.84</ele>
        <time>2015-06-17T08:29:20Z</time>
      </trkpt>
      <trkpt lat="45.02769" lon="0.40438">
        <ele>131.36</ele>
        <time>2015-06-17T08:29:33Z</time>
      </trkpt>
      <trkpt lat="45.02761" lon="0.40412">
        <ele>129.92</ele>
        <time>2015-06-17T08:29:49Z</time>
      </trkpt>
      <trkpt lat="45.02755" lon="0.40388">
        <ele>128.95</ele>
        <time>2015-06-17T08:30:02Z</time>
      </trkpt>
      <trkpt lat="45.02749" lon="0.40353">
        <ele>127.51</ele>
        <time>2015-06-17T08:30:21Z</time>
      </trkpt>
      <trkpt lat="45.02744" lon="0.40334">
        <ele>126.55</ele>
        <time>2015-06-17T08:30:31Z</time>
      </trkpt>
      <trkpt lat="45.02732" lon="0.4033">
        <ele>126.07</ele>
        <time>2015-06-17T08:30:45Z</time>
      </trkpt>
      <trkpt lat="45.02729" lon="0.40331">
        <ele>126.07</ele>
        <time>2015-06-17T08:30:59Z</time>
      </trkpt>
      <trkpt lat="45.02727" lon="0.40337">
        <ele>126.07</ele>
        <time>2015-06-17T08:31:10Z</time>
      </trkpt>
      <trkpt lat="45.02729" lon="0.40342">
        <ele>127.51</ele>
        <time>2015-06-17T08:31:22Z</time>
      </trkpt>
      <trkpt lat="45.02727" lon="0.40343">
        <ele>127.03</ele>
        <time>2015-06-17T08:31:37Z</time>
      </trkpt>
      <trkpt lat="45.02727" lon="0.40343">
        <ele>127.03</ele>
        <time>2015-06-17T08:31:58Z</time>
      </trkpt>
      <trkpt lat="45.02728" lon="0.40341">
        <ele>127.03</ele>
        <time>2015-06-17T08:32:11Z</time>
      </trkpt>
      <trkpt lat="45.02729" lon="0.4034">
        <ele>127.03</ele>
        <time>2015-06-17T08:32:29Z</time>
      </trkpt>
      <trkpt lat="45.0273" lon="0.40337">
        <ele>127.03</ele>
        <time>2015-06-17T08:32:44Z</time>
      </trkpt>
      <trkpt lat="45.02728" lon="0.40333">
        <ele>127.03</ele>
        <time>2015-06-17T08:32:59Z</time>
      </trkpt>
      <trkpt lat="45.02727" lon="0.40332">
        <ele>126.07</ele>
        <time>2015-06-17T08:33:15Z</time>
      </trkpt>
      <trkpt lat="45.02727" lon="0.4033">
        <ele>126.07</ele>
        <time>2015-06-17T08:33:41Z</time>
      </trkpt>
      <trkpt lat="45.02727" lon="0.40331">
        <ele>125.59</ele>
        <time>2015-06-17T08:34:08Z</time>
      </trkpt>
      <trkpt lat="45.02728" lon="0.40332">
        <ele>125.59</ele>
        <time>2015-06-17T08:34:32Z</time>
      </trkpt>
      <trkpt lat="45.02727" lon="0.4033">
        <ele>125.59</ele>
        <time>2015-06-17T08:34:52Z</time>
      </trkpt>
      <trkpt lat="45.0272" lon="0.40329">
        <ele>125.59</ele>
        <time>2015-06-17T08:35:12Z</time>
      </trkpt>
      <trkpt lat="45.02713" lon="0.40329">
        <ele>126.55</ele>
        <time>2015-06-17T08:35:23Z</time>
      </trkpt>
      <trkpt lat="45.027" lon="0.40326">
        <ele>124.63</ele>
        <time>2015-06-17T08:35:36Z</time>
      </trkpt>
      <trkpt lat="45.02694" lon="0.40325">
        <ele>124.63</ele>
        <time>2015-06-17T08:35:41Z</time>
      </trkpt>
      <trkpt lat="45.02689" lon="0.40325">
        <ele>123.67</ele>
        <time>2015-06-17T08:35:45Z</time>
      </trkpt>
      <trkpt lat="45.02674" lon="0.40327">
        <ele>123.67</ele>
        <time>2015-06-17T08:36:00Z</time>
      </trkpt>
      <trkpt lat="45.02684" lon="0.40326">
        <ele>123.67</ele>
        <time>2015-06-17T08:36:11Z</time>
      </trkpt>
      <trkpt lat="45.02695" lon="0.40327">
        <ele>123.67</ele>
        <time>2015-06-17T08:36:19Z</time>
      </trkpt>
      <trkpt lat="45.02699" lon="0.40324">
        <ele>125.11</ele>
        <time>2015-06-17T08:36:22Z</time>
      </trkpt>
      <trkpt lat="45.02714" lon="0.40324">
        <ele>125.59</ele>
        <time>2015-06-17T08:36:34Z</time>
      </trkpt>
      <trkpt lat="45.02732" lon="0.40325">
        <ele>126.55</ele>
        <time>2015-06-17T08:36:47Z</time>
      </trkpt>
      <trkpt lat="45.02743" lon="0.40323">
        <ele>126.55</ele>
        <time>2015-06-17T08:36:55Z</time>
      </trkpt>
      <trkpt lat="45.02763" lon="0.40317">
        <ele>126.55</ele>
        <time>2015-06-17T08:37:11Z</time>
      </trkpt>
      <trkpt lat="45.0277" lon="0.40312">
        <ele>126.55</ele>
        <time>2015-06-17T08:37:16Z</time>
      </trkpt>
      <trkpt lat="45.0278" lon="0.40311">
        <ele>126.55</ele>
        <time>2015-06-17T08:37:29Z</time>
      </trkpt>
      <trkpt lat="45.02798" lon="0.403">
        <ele>127.03</ele>
        <time>2015-06-17T08:37:44Z</time>
      </trkpt>
      <trkpt lat="45.02824" lon="0.40285">
        <ele>127.03</ele>
        <time>2015-06-17T08:38:05Z</time>
      </trkpt>
      <trkpt lat="45.02833" lon="0.40281">
        <ele>127.03</ele>
        <time>2015-06-17T08:38:20Z</time>
      </trkpt>
      <trkpt lat="45.02844" lon="0.40274">
        <ele>126.55</ele>
        <time>2015-06-17T08:38:33Z</time>
      </trkpt>
      <trkpt lat="45.02863" lon="0.40265">
        <ele>125.11</ele>
        <time>2015-06-17T08:38:48Z</time>
      </trkpt>
      <trkpt lat="45.02887" lon="0.40267">
        <ele>124.15</ele>
        <time>2015-06-17T08:39:06Z</time>
      </trkpt>
      <trkpt lat="45.02911" lon="0.40284">
        <ele>122.71</ele>
        <time>2015-06-17T08:39:26Z</time>
      </trkpt>
      <trkpt lat="45.02935" lon="0.40295">
        <ele>121.26</ele>
        <time>2015-06-17T08:39:44Z</time>
      </trkpt>
      <trkpt lat="45.02952" lon="0.40299">
        <ele>120.78</ele>
        <time>2015-06-17T08:40:03Z</time>
      </trkpt>
      <trkpt lat="45.02952" lon="0.40301">
        <ele>120.3</ele>
        <time>2015-06-17T08:40:06Z</time>
      </trkpt>
      <trkpt lat="45.02952" lon="0.40303">
        <ele>119.82</ele>
        <time>2015-06-17T08:40:17Z</time>
      </trkpt>
      <trkpt lat="45.02954" lon="0.40304">
        <ele>119.82</ele>
        <time>2015-06-17T08:40:31Z</time>
      </trkpt>
      <trkpt lat="45.02953" lon="0.40302">
        <ele>119.82</ele>
        <time>2015-06-17T08:40:52Z</time>
      </trkpt>
      <trkpt lat="45.02953" lon="0.403">
        <ele>119.34</ele>
        <time>2015-06-17T08:41:07Z</time>
      </trkpt>
      <trkpt lat="45.02956" lon="0.40299">
        <ele>119.34</ele>
        <time>2015-06-17T08:41:33Z</time>
      </trkpt>
      <trkpt lat="45.02953" lon="0.403">
        <ele>119.34</ele>
        <time>2015-06-17T08:41:57Z</time>
      </trkpt>
      <trkpt lat="45.02954" lon="0.403">
        <ele>119.34</ele>
        <time>2015-06-17T08:42:23Z</time>
      </trkpt>
      <trkpt lat="45.02954" lon="0.40301">
        <ele>119.34</ele>
        <time>2015-06-17T08:42:38Z</time>
      </trkpt>
      <trkpt lat="45.02954" lon="0.40301">
        <ele>119.82</ele>
        <time>2015-06-17T08:43:01Z</time>
      </trkpt>
      <trkpt lat="45.02952" lon="0.40303">
        <ele>119.82</ele>
        <time>2015-06-17T08:43:29Z</time>
      </trkpt>
      <trkpt lat="45.02953" lon="0.40301">
        <ele>119.82</ele>
        <time>2015-06-17T08:44:01Z</time>
      </trkpt>
      <trkpt lat="45.02955" lon="0.403">
        <ele>119.82</ele>
        <time>2015-06-17T08:44:22Z</time>
      </trkpt>
      <trkpt lat="45.02958" lon="0.40298">
        <ele>119.82</ele>
        <time>2015-06-17T08:44:41Z</time>
      </trkpt>
      <trkpt lat="45.02964" lon="0.40297">
        <ele>119.82</ele>
        <time>2015-06-17T08:44:47Z</time>
      </trkpt>
      <trkpt lat="45.02977" lon="0.40301">
        <ele>118.38</ele>
        <time>2015-06-17T08:44:56Z</time>
      </trkpt>
      <trkpt lat="45.03" lon="0.40303">
        <ele>117.9</ele>
        <time>2015-06-17T08:45:12Z</time>
      </trkpt>
      <trkpt lat="45.03016" lon="0.40306">
        <ele>117.42</ele>
        <time>2015-06-17T08:45:23Z</time>
      </trkpt>
      <trkpt lat="45.03035" lon="0.40308">
        <ele>116.94</ele>
        <time>2015-06-17T08:45:39Z</time>
      </trkpt>
      <trkpt lat="45.03036" lon="0.40308">
        <ele>116.94</ele>
        <time>2015-06-17T08:45:40Z</time>
      </trkpt>
      <trkpt lat="45.03059" lon="0.40306">
        <ele>116.94</ele>
        <time>2015-06-17T08:45:58Z</time>
      </trkpt>
      <trkpt lat="45.03076" lon="0.40299">
        <ele>117.9</ele>
        <time>2015-06-17T08:46:11Z</time>
      </trkpt>
      <trkpt lat="45.03085" lon="0.4029">
        <ele>118.38</ele>
        <time>2015-06-17T08:46:20Z</time>
      </trkpt>
      <trkpt lat="45.03089" lon="0.40285">
        <ele>118.86</ele>
        <time>2015-06-17T08:46:24Z</time>
      </trkpt>
      <trkpt lat="45.03099" lon="0.4026">
        <ele>120.3</ele>
        <time>2015-06-17T08:46:40Z</time>
      </trkpt>
      <trkpt lat="45.03101" lon="0.40246">
        <ele>120.78</ele>
        <time>2015-06-17T08:46:48Z</time>
      </trkpt>
      <trkpt lat="45.031" lon="0.40234">
        <ele>121.26</ele>
        <time>2015-06-17T08:46:55Z</time>
      </trkpt>
      <trkpt lat="45.03101" lon="0.40226">
        <ele>121.74</ele>
        <time>2015-06-17T08:47:00Z</time>
      </trkpt>
      <trkpt lat="45.03105" lon="0.40217">
        <ele>122.71</ele>
        <time>2015-06-17T08:47:14Z</time>
      </trkpt>
      <trkpt lat="45.03106" lon="0.40217">
        <ele>123.19</ele>
        <time>2015-06-17T08:47:16Z</time>
      </trkpt>
      <trkpt lat="45.03104" lon="0.40214">
        <ele>122.71</ele>
        <time>2015-06-17T08:47:21Z</time>
      </trkpt>
      <trkpt lat="45.03107" lon="0.40206">
        <ele>122.71</ele>
        <time>2015-06-17T08:47:34Z</time>
      </trkpt>
      <trkpt lat="45.03108" lon="0.40204">
        <ele>122.71</ele>
        <time>2015-06-17T08:47:48Z</time>
      </trkpt>
      <trkpt lat="45.03108" lon="0.40205">
        <ele>122.71</ele>
        <time>2015-06-17T08:48:07Z</time>
      </trkpt>
      <trkpt lat="45.03107" lon="0.40204">
        <ele>122.71</ele>
        <time>2015-06-17T08:48:37Z</time>
      </trkpt>
      <trkpt lat="45.03108" lon="0.40206">
        <ele>122.71</ele>
        <time>2015-06-17T08:49:07Z</time>
      </trkpt>
      <trkpt lat="45.03107" lon="0.40207">
        <ele>122.71</ele>
        <time>2015-06-17T08:49:41Z</time>
      </trkpt>
      <trkpt lat="45.03108" lon="0.4021">
        <ele>122.22</ele>
        <time>2015-06-17T08:50:05Z</time>
      </trkpt>
      <trkpt lat="45.03111" lon="0.40207">
        <ele>122.22</ele>
        <time>2015-06-17T08:50:22Z</time>
      </trkpt>
      <trkpt lat="45.03108" lon="0.40206">
        <ele>122.22</ele>
        <time>2015-06-17T08:50:43Z</time>
      </trkpt>
      <trkpt lat="45.03108" lon="0.40202">
        <ele>122.22</ele>
        <time>2015-06-17T08:51:05Z</time>
      </trkpt>
      <trkpt lat="45.03111" lon="0.40192">
        <ele>122.22</ele>
        <time>2015-06-17T08:51:10Z</time>
      </trkpt>
      <trkpt lat="45.03115" lon="0.40181">
        <ele>123.67</ele>
        <time>2015-06-17T08:51:17Z</time>
      </trkpt>
      <trkpt lat="45.0313" lon="0.40166">
        <ele>124.15</ele>
        <time>2015-06-17T08:51:33Z</time>
      </trkpt>
      <trkpt lat="45.0314" lon="0.40155">
        <ele>126.07</ele>
        <time>2015-06-17T08:51:43Z</time>
      </trkpt>
      <trkpt lat="45.03142" lon="0.40153">
        <ele>126.07</ele>
        <time>2015-06-17T08:51:45Z</time>
      </trkpt>
      <trkpt lat="45.03143" lon="0.40152">
        <ele>124.63</ele>
        <time>2015-06-17T08:51:47Z</time>
      </trkpt>
      <trkpt lat="45.03149" lon="0.40145">
        <ele>124.63</ele>
        <time>2015-06-17T08:51:54Z</time>
      </trkpt>
      <trkpt lat="45.0316" lon="0.40134">
        <ele>124.63</ele>
        <time>2015-06-17T08:52:06Z</time>
      </trkpt>
      <trkpt lat="45.03162" lon="0.4013">
        <ele>124.63</ele>
        <time>2015-06-17T08:52:09Z</time>
      </trkpt>
      <trkpt lat="45.03179" lon="0.40115">
        <ele>126.07</ele>
        <time>2015-06-17T08:52:25Z</time>
      </trkpt>
      <trkpt lat="45.03182" lon="0.40112">
        <ele>126.55</ele>
        <time>2015-06-17T08:52:28Z</time>
      </trkpt>
      <trkpt lat="45.03197" lon="0.40099">
        <ele>126.55</ele>
        <time>2015-06-17T08:52:41Z</time>
      </trkpt>
      <trkpt lat="45.03199" lon="0.40098">
        <ele>126.55</ele>
        <time>2015-06-17T08:52:45Z</time>
      </trkpt>
      <trkpt lat="45.03206" lon="0.40089">
        <ele>127.03</ele>
        <time>2015-06-17T08:52:56Z</time>
      </trkpt>
      <trkpt lat="45.03209" lon="0.40086">
        <ele>127.03</ele>
        <time>2015-06-17T08:53:06Z</time>
      </trkpt>
      <trkpt lat="45.03215" lon="0.4008">
        <ele>127.51</ele>
        <time>2015-06-17T08:53:16Z</time>
      </trkpt>
      <trkpt lat="45.03217" lon="0.40079">
        <ele>126.07</ele>
        <time>2015-06-17T08:53:21Z</time>
      </trkpt>
      <trkpt lat="45.03233" lon="0.4006">
        <ele>126.07</ele>
        <time>2015-06-17T08:53:36Z</time>
      </trkpt>
      <trkpt lat="45.03245" lon="0.40048">
        <ele>126.07</ele>
        <time>2015-06-17T08:53:47Z</time>
      </trkpt>
      <trkpt lat="45.03263" lon="0.40032">
        <ele>125.59</ele>
        <time>2015-06-17T08:54:03Z</time>
      </trkpt>
      <trkpt lat="45.03269" lon="0.40025">
        <ele>124.15</ele>
        <time>2015-06-17T08:54:13Z</time>
      </trkpt>
      <trkpt lat="45.03279" lon="0.40014">
        <ele>124.15</ele>
        <time>2015-06-17T08:54:25Z</time>
      </trkpt>
      <trkpt lat="45.03282" lon="0.40012">
        <ele>123.67</ele>
        <time>2015-06-17T08:54:30Z</time>
      </trkpt>
      <trkpt lat="45.03297" lon="0.39997">
        <ele>121.74</ele>
        <time>2015-06-17T08:54:44Z</time>
      </trkpt>
      <trkpt lat="45.03319" lon="0.39988">
        <ele>119.82</ele>
        <time>2015-06-17T08:55:00Z</time>
      </trkpt>
      <trkpt lat="45.03342" lon="0.39984">
        <ele>117.9</ele>
        <time>2015-06-17T08:55:17Z</time>
      </trkpt>
      <trkpt lat="45.03363" lon="0.39981">
        <ele>117.9</ele>
        <time>2015-06-17T08:55:33Z</time>
      </trkpt>
      <trkpt lat="45.03371" lon="0.39982">
        <ele>119.34</ele>
        <time>2015-06-17T08:55:41Z</time>
      </trkpt>
      <trkpt lat="45.03373" lon="0.3997">
        <ele>119.34</ele>
        <time>2015-06-17T08:55:54Z</time>
      </trkpt>
      <trkpt lat="45.03373" lon="0.39969">
        <ele>119.34</ele>
        <time>2015-06-17T08:56:06Z</time>
      </trkpt>
      <trkpt lat="45.03372" lon="0.39982">
        <ele>119.34</ele>
        <time>2015-06-17T08:56:16Z</time>
      </trkpt>
      <trkpt lat="45.03371" lon="0.39981">
        <ele>119.34</ele>
        <time>2015-06-17T08:56:31Z</time>
      </trkpt>
      <trkpt lat="45.03373" lon="0.39985">
        <ele>119.34</ele>
        <time>2015-06-17T08:56:58Z</time>
      </trkpt>
      <trkpt lat="45.03372" lon="0.39983">
        <ele>119.34</ele>
        <time>2015-06-17T08:57:18Z</time>
      </trkpt>
      <trkpt lat="45.03373" lon="0.3998">
        <ele>119.82</ele>
        <time>2015-06-17T08:57:39Z</time>
      </trkpt>
      <trkpt lat="45.03371" lon="0.39978">
        <ele>119.82</ele>
        <time>2015-06-17T08:58:03Z</time>
      </trkpt>
      <trkpt lat="45.0337" lon="0.39975">
        <ele>119.82</ele>
        <time>2015-06-17T08:58:12Z</time>
      </trkpt>
      <trkpt lat="45.03371" lon="0.39971">
        <ele>119.82</ele>
        <time>2015-06-17T08:58:14Z</time>
      </trkpt>
      <trkpt lat="45.03371" lon="0.39965">
        <ele>119.82</ele>
        <time>2015-06-17T08:58:27Z</time>
      </trkpt>
      <trkpt lat="45.03372" lon="0.39967">
        <ele>119.82</ele>
        <time>2015-06-17T08:58:35Z</time>
      </trkpt>
      <trkpt lat="45.03372" lon="0.39981">
        <ele>118.86</ele>
        <time>2015-06-17T08:58:50Z</time>
      </trkpt>
      <trkpt lat="45.0337" lon="0.39983">
        <ele>118.86</ele>
        <time>2015-06-17T08:59:15Z</time>
      </trkpt>
      <trkpt lat="45.0335" lon="0.39978">
        <ele>118.86</ele>
        <time>2015-06-17T08:59:35Z</time>
      </trkpt>
      <trkpt lat="45.0334" lon="0.3997">
        <ele>118.86</ele>
        <time>2015-06-17T08:59:48Z</time>
      </trkpt>
      <trkpt lat="45.03338" lon="0.39968">
        <ele>118.86</ele>
        <time>2015-06-17T08:59:53Z</time>
      </trkpt>
      <trkpt lat="45.03326" lon="0.39956">
        <ele>117.42</ele>
        <time>2015-06-17T09:00:05Z</time>
      </trkpt>
      <trkpt lat="45.03311" lon="0.39954">
        <ele>115.98</ele>
        <time>2015-06-17T09:00:17Z</time>
      </trkpt>
      <trkpt lat="45.033" lon="0.39958">
        <ele>115.01</ele>
        <time>2015-06-17T09:00:26Z</time>
      </trkpt>
      <trkpt lat="45.03291" lon="0.39963">
        <ele>114.53</ele>
        <time>2015-06-17T09:00:39Z</time>
      </trkpt>
      <trkpt lat="45.03291" lon="0.39965">
        <ele>114.53</ele>
        <time>2015-06-17T09:00:54Z</time>
      </trkpt>
      <trkpt lat="45.03284" lon="0.39966">
        <ele>114.05</ele>
        <time>2015-06-17T09:01:09Z</time>
      </trkpt>
      <trkpt lat="45.03279" lon="0.39972">
        <ele>114.05</ele>
        <time>2015-06-17T09:01:21Z</time>
      </trkpt>
      <trkpt lat="45.0328" lon="0.39968">
        <ele>114.05</ele>
        <time>2015-06-17T09:01:39Z</time>
      </trkpt>
      <trkpt lat="45.03278" lon="0.39968">
        <ele>114.05</ele>
        <time>2015-06-17T09:01:48Z</time>
      </trkpt>
      <trkpt lat="45.0327" lon="0.39981">
        <ele>114.05</ele>
        <time>2015-06-17T09:01:56Z</time>
      </trkpt>
      <trkpt lat="45.03265" lon="0.39982">
        <ele>115.5</ele>
        <time>2015-06-17T09:02:00Z</time>
      </trkpt>
      <trkpt lat="45.0326" lon="0.39987">
        <ele>115.98</ele>
        <time>2015-06-17T09:02:04Z</time>
      </trkpt>
      <trkpt lat="45.03244" lon="0.39987">
        <ele>116.46</ele>
        <time>2015-06-17T09:02:16Z</time>
      </trkpt>
      <trkpt lat="45.0323" lon="0.39977">
        <ele>116.46</ele>
        <time>2015-06-17T09:02:27Z</time>
      </trkpt>
      <trkpt lat="45.03208" lon="0.39959">
        <ele>116.46</ele>
        <time>2015-06-17T09:02:47Z</time>
      </trkpt>
      <trkpt lat="45.03193" lon="0.39948">
        <ele>116.94</ele>
        <time>2015-06-17T09:03:03Z</time>
      </trkpt>
      <trkpt lat="45.03173" lon="0.39932">
        <ele>116.94</ele>
        <time>2015-06-17T09:03:22Z</time>
      </trkpt>
      <trkpt lat="45.03165" lon="0.39928">
        <ele>115.5</ele>
        <time>2015-06-17T09:03:29Z</time>
      </trkpt>
      <trkpt lat="45.03142" lon="0.39916">
        <ele>114.05</ele>
        <time>2015-06-17T09:03:46Z</time>
      </trkpt>
      <trkpt lat="45.03117" lon="0.399">
        <ele>111.65</ele>
        <time>2015-06-17T09:04:06Z</time>
      </trkpt>
      <trkpt lat="45.03091" lon="0.39881">
        <ele>109.25</ele>
        <time>2015-06-17T09:04:27Z</time>
      </trkpt>
      <trkpt lat="45.03072" lon="0.39867">
        <ele>108.77</ele>
        <time>2015-06-17T09:04:44Z</time>
      </trkpt>
      <trkpt lat="45.03053" lon="0.39849">
        <ele>108.29</ele>
        <time>2015-06-17T09:05:01Z</time>
      </trkpt>
      <trkpt lat="45.03036" lon="0.39828">
        <ele>107.32</ele>
        <time>2015-06-17T09:05:18Z</time>
      </trkpt>
      <trkpt lat="45.03023" lon="0.39815">
        <ele>106.84</ele>
        <time>2015-06-17T09:05:33Z</time>
      </trkpt>
      <trkpt lat="45.0302" lon="0.39814">
        <ele>106.36</ele>
        <time>2015-06-17T09:05:39Z</time>
      </trkpt>
      <trkpt lat="45.02999" lon="0.39799">
        <ele>106.84</ele>
        <time>2015-06-17T09:05:57Z</time>
      </trkpt>
      <trkpt lat="45.0299" lon="0.3979">
        <ele>106.84</ele>
        <time>2015-06-17T09:06:08Z</time>
      </trkpt>
      <trkpt lat="45.02982" lon="0.39775">
        <ele>107.81</ele>
        <time>2015-06-17T09:06:20Z</time>
      </trkpt>
      <trkpt lat="45.02979" lon="0.39764">
        <ele>109.25</ele>
        <time>2015-06-17T09:06:28Z</time>
      </trkpt>
      <trkpt lat="45.0298" lon="0.39762">
        <ele>109.25</ele>
        <time>2015-06-17T09:06:30Z</time>
      </trkpt>
      <trkpt lat="45.02977" lon="0.39757">
        <ele>109.73</ele>
        <time>2015-06-17T09:06:33Z</time>
      </trkpt>
      <trkpt lat="45.02978" lon="0.3975">
        <ele>111.17</ele>
        <time>2015-06-17T09:06:37Z</time>
      </trkpt>
      <trkpt lat="45.02975" lon="0.39747">
        <ele>111.65</ele>
        <time>2015-06-17T09:06:40Z</time>
      </trkpt>
      <trkpt lat="45.02976" lon="0.39741">
        <ele>112.13</ele>
        <time>2015-06-17T09:06:44Z</time>
      </trkpt>
      <trkpt lat="45.02974" lon="0.3973">
        <ele>113.57</ele>
        <time>2015-06-17T09:06:56Z</time>
      </trkpt>
      <trkpt lat="45.02973" lon="0.39725">
        <ele>114.05</ele>
        <time>2015-06-17T09:06:59Z</time>
      </trkpt>
      <trkpt lat="45.02972" lon="0.39713">
        <ele>115.01</ele>
        <time>2015-06-17T09:07:12Z</time>
      </trkpt>
      <trkpt lat="45.02971" lon="0.39705">
        <ele>115.01</ele>
        <time>2015-06-17T09:07:21Z</time>
      </trkpt>
      <trkpt lat="45.02964" lon="0.3969">
        <ele>115.5</ele>
        <time>2015-06-17T09:07:36Z</time>
      </trkpt>
      <trkpt lat="45.02965" lon="0.39683">
        <ele>115.5</ele>
        <time>2015-06-17T09:07:50Z</time>
      </trkpt>
      <trkpt lat="45.02965" lon="0.3968">
        <ele>115.5</ele>
        <time>2015-06-17T09:08:09Z</time>
      </trkpt>
      <trkpt lat="45.0296" lon="0.39682">
        <ele>114.05</ele>
        <time>2015-06-17T09:08:20Z</time>
      </trkpt>
      <trkpt lat="45.0296" lon="0.39681">
        <ele>114.05</ele>
        <time>2015-06-17T09:08:47Z</time>
      </trkpt>
      <trkpt lat="45.02959" lon="0.3968">
        <ele>114.05</ele>
        <time>2015-06-17T09:09:12Z</time>
      </trkpt>
      <trkpt lat="45.02959" lon="0.39681">
        <ele>114.05</ele>
        <time>2015-06-17T09:09:35Z</time>
      </trkpt>
      <trkpt lat="45.02962" lon="0.39679">
        <ele>114.05</ele>
        <time>2015-06-17T09:10:07Z</time>
      </trkpt>
      <trkpt lat="45.02965" lon="0.39684">
        <ele>115.01</ele>
        <time>2015-06-17T09:10:19Z</time>
      </trkpt>
      <trkpt lat="45.02962" lon="0.39685">
        <ele>115.01</ele>
        <time>2015-06-17T09:10:25Z</time>
      </trkpt>
      <trkpt lat="45.02957" lon="0.39684">
        <ele>114.05</ele>
        <time>2015-06-17T09:10:36Z</time>
      </trkpt>
      <trkpt lat="45.02956" lon="0.39682">
        <ele>114.05</ele>
        <time>2015-06-17T09:11:00Z</time>
      </trkpt>
      <trkpt lat="45.02955" lon="0.39681">
        <ele>114.05</ele>
        <time>2015-06-17T09:11:02Z</time>
      </trkpt>
      <trkpt lat="45.0295" lon="0.39677">
        <ele>113.57</ele>
        <time>2015-06-17T09:11:07Z</time>
      </trkpt>
      <trkpt lat="45.02932" lon="0.39663">
        <ele>110.69</ele>
        <time>2015-06-17T09:11:22Z</time>
      </trkpt>
      <trkpt lat="45.02917" lon="0.39649">
        <ele>109.25</ele>
        <time>2015-06-17T09:11:37Z</time>
      </trkpt>
      <trkpt lat="45.02915" lon="0.39648">
        <ele>108.77</ele>
        <time>2015-06-17T09:11:40Z</time>
      </trkpt>
      <trkpt lat="45.02905" lon="0.39638">
        <ele>108.77</ele>
        <time>2015-06-17T09:11:53Z</time>
      </trkpt>
      <trkpt lat="45.02893" lon="0.39627">
        <ele>108.77</ele>
        <time>2015-06-17T09:12:06Z</time>
      </trkpt>
      <trkpt lat="45.0289" lon="0.39626">
        <ele>108.77</ele>
        <time>2015-06-17T09:12:09Z</time>
      </trkpt>
      <trkpt lat="45.02881" lon="0.39626">
        <ele>107.32</ele>
        <time>2015-06-17T09:12:24Z</time>
      </trkpt>
      <trkpt lat="45.02874" lon="0.39629">
        <ele>106.84</ele>
        <time>2015-06-17T09:12:36Z</time>
      </trkpt>
      <trkpt lat="45.02861" lon="0.3963">
        <ele>106.84</ele>
        <time>2015-06-17T09:12:49Z</time>
      </trkpt>
      <trkpt lat="45.02849" lon="0.3963">
        <ele>107.81</ele>
        <time>2015-06-17T09:13:02Z</time>
      </trkpt>
      <trkpt lat="45.02839" lon="0.39627">
        <ele>109.25</ele>
        <time>2015-06-17T09:13:14Z</time>
      </trkpt>
      <trkpt lat="45.02833" lon="0.39626">
        <ele>109.73</ele>
        <time>2015-06-17T09:13:19Z</time>
      </trkpt>
      <trkpt lat="45.02828" lon="0.39627">
        <ele>110.21</ele>
        <time>2015-06-17T09:13:23Z</time>
      </trkpt>
      <trkpt lat="45.02824" lon="0.39623">
        <ele>110.69</ele>
        <time>2015-06-17T09:13:27Z</time>
      </trkpt>
      <trkpt lat="45.02821" lon="0.39622">
        <ele>111.17</ele>
        <time>2015-06-17T09:13:30Z</time>
      </trkpt>
      <trkpt lat="45.02819" lon="0.39618">
        <ele>111.65</ele>
        <time>2015-06-17T09:13:33Z</time>
      </trkpt>
      <trkpt lat="45.02812" lon="0.39612">
        <ele>112.61</ele>
        <time>2015-06-17T09:13:40Z</time>
      </trkpt>
      <trkpt lat="45.02809" lon="0.3961">
        <ele>113.09</ele>
        <time>2015-06-17T09:13:44Z</time>
      </trkpt>
      <trkpt lat="45.02806" lon="0.39607">
        <ele>113.57</ele>
        <time>2015-06-17T09:13:47Z</time>
      </trkpt>
      <trkpt lat="45.02803" lon="0.39597">
        <ele>114.05</ele>
        <time>2015-06-17T09:13:55Z</time>
      </trkpt>
      <trkpt lat="45.02793" lon="0.39581">
        <ele>115.5</ele>
        <time>2015-06-17T09:14:10Z</time>
      </trkpt>
      <trkpt lat="45.02791" lon="0.39578">
        <ele>115.98</ele>
        <time>2015-06-17T09:14:13Z</time>
      </trkpt>
      <trkpt lat="45.02783" lon="0.39562">
        <ele>117.42</ele>
        <time>2015-06-17T09:14:27Z</time>
      </trkpt>
      <trkpt lat="45.02776" lon="0.3955">
        <ele>118.38</ele>
        <time>2015-06-17T09:14:40Z</time>
      </trkpt>
      <trkpt lat="45.0278" lon="0.39547">
        <ele>118.86</ele>
        <time>2015-06-17T09:14:53Z</time>
      </trkpt>
      <trkpt lat="45.02776" lon="0.39544">
        <ele>118.86</ele>
        <time>2015-06-17T09:15:05Z</time>
      </trkpt>
      <trkpt lat="45.02775" lon="0.39547">
        <ele>118.86</ele>
        <time>2015-06-17T09:15:16Z</time>
      </trkpt>
      <trkpt lat="45.02775" lon="0.39551">
        <ele>118.86</ele>
        <time>2015-06-17T09:15:31Z</time>
      </trkpt>
      <trkpt lat="45.02775" lon="0.39549">
        <ele>118.86</ele>
        <time>2015-06-17T09:16:03Z</time>
      </trkpt>
      <trkpt lat="45.02775" lon="0.39553">
        <ele>119.34</ele>
        <time>2015-06-17T09:16:39Z</time>
      </trkpt>
      <trkpt lat="45.02775" lon="0.39553">
        <ele>117.9</ele>
        <time>2015-06-17T09:16:42Z</time>
      </trkpt>
      <trkpt lat="45.02775" lon="0.39553">
        <ele>119.34</ele>
        <time>2015-06-17T09:16:44Z</time>
      </trkpt>
      <trkpt lat="45.02775" lon="0.39553">
        <ele>117.9</ele>
        <time>2015-06-17T09:16:46Z</time>
      </trkpt>
      <trkpt lat="45.02776" lon="0.39552">
        <ele>118.86</ele>
        <time>2015-06-17T09:16:50Z</time>
      </trkpt>
      <trkpt lat="45.02775" lon="0.39555">
        <ele>117.9</ele>
        <time>2015-06-17T09:16:57Z</time>
      </trkpt>
      <trkpt lat="45.02777" lon="0.39556">
        <ele>117.9</ele>
        <time>2015-06-17T09:17:17Z</time>
      </trkpt>
      <trkpt lat="45.02778" lon="0.39552">
        <ele>117.9</ele>
        <time>2015-06-17T09:17:42Z</time>
      </trkpt>
      <trkpt lat="45.02778" lon="0.3955">
        <ele>117.9</ele>
        <time>2015-06-17T09:18:06Z</time>
      </trkpt>
      <trkpt lat="45.02777" lon="0.39545">
        <ele>117.9</ele>
        <time>2015-06-17T09:18:19Z</time>
      </trkpt>
      <trkpt lat="45.02775" lon="0.39546">
        <ele>117.9</ele>
        <time>2015-06-17T09:18:21Z</time>
      </trkpt>
      <trkpt lat="45.02775" lon="0.39551">
        <ele>117.9</ele>
        <time>2015-06-17T09:18:33Z</time>
      </trkpt>
      <trkpt lat="45.02774" lon="0.39551">
        <ele>117.9</ele>
        <time>2015-06-17T09:18:47Z</time>
      </trkpt>
      <trkpt lat="45.02775" lon="0.39553">
        <ele>117.42</ele>
        <time>2015-06-17T09:19:17Z</time>
      </trkpt>
      <trkpt lat="45.02774" lon="0.39556">
        <ele>117.42</ele>
        <time>2015-06-17T09:19:42Z</time>
      </trkpt>
      <trkpt lat="45.02771" lon="0.39547">
        <ele>117.42</ele>
        <time>2015-06-17T09:20:01Z</time>
      </trkpt>
      <trkpt lat="45.02763" lon="0.3954">
        <ele>118.86</ele>
        <time>2015-06-17T09:20:13Z</time>
      </trkpt>
      <trkpt lat="45.0276" lon="0.39539">
        <ele>119.34</ele>
        <time>2015-06-17T09:20:16Z</time>
      </trkpt>
      <trkpt lat="45.02753" lon="0.39528">
        <ele>120.3</ele>
        <time>2015-06-17T09:20:27Z</time>
      </trkpt>
      <trkpt lat="45.02747" lon="0.39517">
        <ele>121.26</ele>
        <time>2015-06-17T09:20:38Z</time>
      </trkpt>
      <trkpt lat="45.02746" lon="0.39516">
        <ele>121.26</ele>
        <time>2015-06-17T09:20:39Z</time>
      </trkpt>
      <trkpt lat="45.02737" lon="0.395">
        <ele>122.22</ele>
        <time>2015-06-17T09:20:54Z</time>
      </trkpt>
      <trkpt lat="45.02724" lon="0.39484">
        <ele>122.22</ele>
        <time>2015-06-17T09:21:10Z</time>
      </trkpt>
      <trkpt lat="45.02722" lon="0.39481">
        <ele>122.22</ele>
        <time>2015-06-17T09:21:13Z</time>
      </trkpt>
      <trkpt lat="45.02711" lon="0.39464">
        <ele>122.22</ele>
        <time>2015-06-17T09:21:28Z</time>
      </trkpt>
      <trkpt lat="45.02699" lon="0.39445">
        <ele>122.22</ele>
        <time>2015-06-17T09:21:45Z</time>
      </trkpt>
      <trkpt lat="45.02687" lon="0.39429">
        <ele>122.22</ele>
        <time>2015-06-17T09:22:01Z</time>
      </trkpt>
      <trkpt lat="45.02675" lon="0.39413">
        <ele>123.67</ele>
        <time>2015-06-17T09:22:17Z</time>
      </trkpt>
      <trkpt lat="45.0266" lon="0.39393">
        <ele>123.67</ele>
        <time>2015-06-17T09:22:36Z</time>
      </trkpt>
      <trkpt lat="45.02647" lon="0.39373">
        <ele>123.67</ele>
        <time>2015-06-17T09:22:53Z</time>
      </trkpt>
      <trkpt lat="45.02642" lon="0.3936">
        <ele>123.67</ele>
        <time>2015-06-17T09:23:02Z</time>
      </trkpt>
      <trkpt lat="45.02645" lon="0.39352">
        <ele>123.67</ele>
        <time>2015-06-17T09:23:10Z</time>
      </trkpt>
      <trkpt lat="45.02644" lon="0.39345">
        <ele>123.67</ele>
        <time>2015-06-17T09:23:24Z</time>
      </trkpt>
      <trkpt lat="45.02645" lon="0.39341">
        <ele>122.71</ele>
        <time>2015-06-17T09:23:36Z</time>
      </trkpt>
      <trkpt lat="45.02645" lon="0.39342">
        <ele>122.71</ele>
        <time>2015-06-17T09:23:40Z</time>
      </trkpt>
      <trkpt lat="45.02641" lon="0.39339">
        <ele>122.71</ele>
        <time>2015-06-17T09:23:52Z</time>
      </trkpt>
      <trkpt lat="45.02638" lon="0.39336">
        <ele>122.22</ele>
        <time>2015-06-17T09:23:57Z</time>
      </trkpt>
      <trkpt lat="45.02635" lon="0.39342">
        <ele>122.22</ele>
        <time>2015-06-17T09:24:03Z</time>
      </trkpt>
      <trkpt lat="45.02637" lon="0.3935">
        <ele>122.22</ele>
        <time>2015-06-17T09:24:20Z</time>
      </trkpt>
      <trkpt lat="45.02639" lon="0.39351">
        <ele>122.22</ele>
        <time>2015-06-17T09:24:47Z</time>
      </trkpt>
      <trkpt lat="45.02639" lon="0.39356">
        <ele>123.19</ele>
        <time>2015-06-17T09:25:17Z</time>
      </trkpt>
      <trkpt lat="45.02637" lon="0.39359">
        <ele>123.19</ele>
        <time>2015-06-17T09:25:43Z</time>
      </trkpt>
      <trkpt lat="45.02637" lon="0.39356">
        <ele>123.19</ele>
        <time>2015-06-17T09:26:13Z</time>
      </trkpt>
      <trkpt lat="45.02641" lon="0.39354">
        <ele>123.19</ele>
        <time>2015-06-17T09:26:43Z</time>
      </trkpt>
      <trkpt lat="45.02643" lon="0.39359">
        <ele>123.19</ele>
        <time>2015-06-17T09:27:07Z</time>
      </trkpt>
      <trkpt lat="45.02643" lon="0.3936">
        <ele>123.19</ele>
        <time>2015-06-17T09:27:37Z</time>
      </trkpt>
      <trkpt lat="45.02639" lon="0.39356">
        <ele>123.19</ele>
        <time>2015-06-17T09:27:58Z</time>
      </trkpt>
      <trkpt lat="45.02637" lon="0.39355">
        <ele>123.19</ele>
        <time>2015-06-17T09:28:26Z</time>
      </trkpt>
      <trkpt lat="45.02641" lon="0.39354">
        <ele>123.19</ele>
        <time>2015-06-17T09:28:52Z</time>
      </trkpt>
      <trkpt lat="45.02642" lon="0.39353">
        <ele>123.19</ele>
        <time>2015-06-17T09:29:17Z</time>
      </trkpt>
      <trkpt lat="45.02639" lon="0.39355">
        <ele>122.71</ele>
        <time>2015-06-17T09:29:43Z</time>
      </trkpt>
      <trkpt lat="45.02637" lon="0.39359">
        <ele>122.71</ele>
        <time>2015-06-17T09:30:03Z</time>
      </trkpt>
      <trkpt lat="45.02639" lon="0.39359">
        <ele>122.71</ele>
        <time>2015-06-17T09:30:20Z</time>
      </trkpt>
      <trkpt lat="45.0264" lon="0.3936">
        <ele>122.71</ele>
        <time>2015-06-17T09:30:38Z</time>
      </trkpt>
      <trkpt lat="45.02639" lon="0.39358">
        <ele>122.71</ele>
        <time>2015-06-17T09:31:05Z</time>
      </trkpt>
      <trkpt lat="45.02642" lon="0.39358">
        <ele>122.71</ele>
        <time>2015-06-17T09:31:32Z</time>
      </trkpt>
      <trkpt lat="45.02646" lon="0.39357">
        <ele>122.71</ele>
        <time>2015-06-17T09:32:01Z</time>
      </trkpt>
      <trkpt lat="45.02643" lon="0.39358">
        <ele>122.71</ele>
        <time>2015-06-17T09:32:25Z</time>
      </trkpt>
      <trkpt lat="45.02646" lon="0.39359">
        <ele>122.71</ele>
        <time>2015-06-17T09:32:33Z</time>
      </trkpt>
      <trkpt lat="45.02648" lon="0.39355">
        <ele>122.71</ele>
        <time>2015-06-17T09:32:36Z</time>
      </trkpt>
      <trkpt lat="45.02648" lon="0.39352">
        <ele>122.71</ele>
        <time>2015-06-17T09:32:38Z</time>
      </trkpt>
      <trkpt lat="45.02648" lon="0.39343">
        <ele>123.19</ele>
        <time>2015-06-17T09:32:51Z</time>
      </trkpt>
      <trkpt lat="45.02649" lon="0.39354">
        <ele>123.19</ele>
        <time>2015-06-17T09:33:03Z</time>
      </trkpt>
      <trkpt lat="45.02656" lon="0.39357">
        <ele>123.67</ele>
        <time>2015-06-17T09:33:11Z</time>
      </trkpt>
      <trkpt lat="45.02674" lon="0.39364">
        <ele>123.67</ele>
        <time>2015-06-17T09:33:26Z</time>
      </trkpt>
      <trkpt lat="45.02683" lon="0.3937">
        <ele>124.15</ele>
        <time>2015-06-17T09:33:39Z</time>
      </trkpt>
      <trkpt lat="45.02693" lon="0.39372">
        <ele>124.63</ele>
        <time>2015-06-17T09:33:50Z</time>
      </trkpt>
      <trkpt lat="45.02703" lon="0.39377">
        <ele>125.11</ele>
        <time>2015-06-17T09:34:05Z</time>
      </trkpt>
      <trkpt lat="45.02715" lon="0.3938">
        <ele>125.11</ele>
        <time>2015-06-17T09:34:15Z</time>
      </trkpt>
      <trkpt lat="45.02742" lon="0.39379">
        <ele>126.07</ele>
        <time>2015-06-17T09:34:31Z</time>
      </trkpt>
      <trkpt lat="45.02744" lon="0.39378">
        <ele>126.55</ele>
        <time>2015-06-17T09:34:42Z</time>
      </trkpt>
      <trkpt lat="45.02751" lon="0.39377">
        <ele>126.07</ele>
        <time>2015-06-17T09:35:01Z</time>
      </trkpt>
      <trkpt lat="45.02749" lon="0.39377">
        <ele>126.07</ele>
        <time>2015-06-17T09:35:23Z</time>
      </trkpt>
      <trkpt lat="45.02754" lon="0.39378">
        <ele>126.07</ele>
        <time>2015-06-17T09:35:42Z</time>
      </trkpt>
      <trkpt lat="45.0277" lon="0.3938">
        <ele>126.07</ele>
        <time>2015-06-17T09:35:57Z</time>
      </trkpt>
      <trkpt lat="45.02775" lon="0.3938">
        <ele>126.07</ele>
        <time>2015-06-17T09:36:03Z</time>
      </trkpt>
      <trkpt lat="45.02789" lon="0.39376">
        <ele>126.55</ele>
        <time>2015-06-17T09:36:17Z</time>
      </trkpt>
      <trkpt lat="45.02802" lon="0.39377">
        <ele>126.55</ele>
        <time>2015-06-17T09:36:30Z</time>
      </trkpt>
      <trkpt lat="45.02819" lon="0.39373">
        <ele>126.55</ele>
        <time>2015-06-17T09:36:46Z</time>
      </trkpt>
      <trkpt lat="45.02834" lon="0.39364">
        <ele>127.03</ele>
        <time>2015-06-17T09:37:01Z</time>
      </trkpt>
      <trkpt lat="45.02845" lon="0.39348">
        <ele>127.51</ele>
        <time>2015-06-17T09:37:17Z</time>
      </trkpt>
      <trkpt lat="45.02851" lon="0.3934">
        <ele>127.99</ele>
        <time>2015-06-17T09:37:32Z</time>
      </trkpt>
      <trkpt lat="45.02849" lon="0.39335">
        <ele>127.99</ele>
        <time>2015-06-17T09:37:45Z</time>
      </trkpt>
      <trkpt lat="45.02856" lon="0.39338">
        <ele>127.99</ele>
        <time>2015-06-17T09:38:00Z</time>
      </trkpt>
      <trkpt lat="45.02862" lon="0.39333">
        <ele>127.99</ele>
        <time>2015-06-17T09:38:22Z</time>
      </trkpt>
      <trkpt lat="45.02859" lon="0.39334">
        <ele>127.99</ele>
        <time>2015-06-17T09:38:55Z</time>
      </trkpt>
      <trkpt lat="45.02861" lon="0.39334">
        <ele>127.99</ele>
        <time>2015-06-17T09:39:20Z</time>
      </trkpt>
      <trkpt lat="45.02854" lon="0.39331">
        <ele>127.99</ele>
        <time>2015-06-17T09:39:52Z</time>
      </trkpt>
      <trkpt lat="45.02854" lon="0.39331">
        <ele>127.99</ele>
        <time>2015-06-17T09:39:53Z</time>
      </trkpt>
      <trkpt lat="45.0285" lon="0.39331">
        <ele>127.99</ele>
        <time>2015-06-17T09:40:06Z</time>
      </trkpt>
      <trkpt lat="45.0286" lon="0.39331">
        <ele>127.99</ele>
        <time>2015-06-17T09:40:18Z</time>
      </trkpt>
      <trkpt lat="45.02868" lon="0.39319">
        <ele>127.99</ele>
        <time>2015-06-17T09:40:33Z</time>
      </trkpt>
      <trkpt lat="45.02879" lon="0.39307">
        <ele>127.99</ele>
        <time>2015-06-17T09:40:50Z</time>
      </trkpt>
      <trkpt lat="45.0288" lon="0.39306">
        <ele>127.99</ele>
        <time>2015-06-17T09:40:51Z</time>
      </trkpt>
      <trkpt lat="45.02883" lon="0.39301">
        <ele>127.99</ele>
        <time>2015-06-17T09:40:55Z</time>
      </trkpt>
      <trkpt lat="45.02891" lon="0.39288">
        <ele>127.99</ele>
        <time>2015-06-17T09:41:07Z</time>
      </trkpt>
      <trkpt lat="45.02893" lon="0.39286">
        <ele>127.99</ele>
        <time>2015-06-17T09:41:09Z</time>
      </trkpt>
      <trkpt lat="45.02902" lon="0.39276">
        <ele>127.99</ele>
        <time>2015-06-17T09:41:22Z</time>
      </trkpt>
      <trkpt lat="45.0291" lon="0.39264">
        <ele>127.99</ele>
        <time>2015-06-17T09:41:33Z</time>
      </trkpt>
      <trkpt lat="45.02914" lon="0.39259">
        <ele>127.51</ele>
        <time>2015-06-17T09:41:37Z</time>
      </trkpt>
      <trkpt lat="45.02926" lon="0.39249">
        <ele>127.51</ele>
        <time>2015-06-17T09:41:52Z</time>
      </trkpt>
      <trkpt lat="45.0294" lon="0.39237">
        <ele>127.03</ele>
        <time>2015-06-17T09:42:06Z</time>
      </trkpt>
      <trkpt lat="45.02947" lon="0.39224">
        <ele>125.11</ele>
        <time>2015-06-17T09:42:19Z</time>
      </trkpt>
      <trkpt lat="45.02949" lon="0.39218">
        <ele>124.15</ele>
        <time>2015-06-17T09:42:26Z</time>
      </trkpt>
      <trkpt lat="45.02962" lon="0.39195">
        <ele>120.78</ele>
        <time>2015-06-17T09:42:43Z</time>
      </trkpt>
      <trkpt lat="45.02965" lon="0.3919">
        <ele>120.78</ele>
        <time>2015-06-17T09:42:46Z</time>
      </trkpt>
      <trkpt lat="45.0298" lon="0.39177">
        <ele>118.86</ele>
        <time>2015-06-17T09:42:59Z</time>
      </trkpt>
      <trkpt lat="45.02984" lon="0.39174">
        <ele>118.38</ele>
        <time>2015-06-17T09:43:09Z</time>
      </trkpt>
      <trkpt lat="45.02992" lon="0.39166">
        <ele>116.94</ele>
        <time>2015-06-17T09:43:17Z</time>
      </trkpt>
      <trkpt lat="45.02994" lon="0.39143">
        <ele>116.94</ele>
        <time>2015-06-17T09:43:33Z</time>
      </trkpt>
      <trkpt lat="45.02992" lon="0.39126">
        <ele>115.98</ele>
        <time>2015-06-17T09:43:47Z</time>
      </trkpt>
      <trkpt lat="45.02991" lon="0.39111">
        <ele>115.01</ele>
        <time>2015-06-17T09:43:59Z</time>
      </trkpt>
      <trkpt lat="45.02989" lon="0.391">
        <ele>114.53</ele>
        <time>2015-06-17T09:44:13Z</time>
      </trkpt>
      <trkpt lat="45.02989" lon="0.39096">
        <ele>114.05</ele>
        <time>2015-06-17T09:44:28Z</time>
      </trkpt>
      <trkpt lat="45.02992" lon="0.39091">
        <ele>114.05</ele>
        <time>2015-06-17T09:44:37Z</time>
      </trkpt>
      <trkpt lat="45.02993" lon="0.39091">
        <ele>114.05</ele>
        <time>2015-06-17T09:44:49Z</time>
      </trkpt>
      <trkpt lat="45.02993" lon="0.3909">
        <ele>114.05</ele>
        <time>2015-06-17T09:44:50Z</time>
      </trkpt>
      <trkpt lat="45.02988" lon="0.39094">
        <ele>114.05</ele>
        <time>2015-06-17T09:45:03Z</time>
      </trkpt>
      <trkpt lat="45.02987" lon="0.39092">
        <ele>114.05</ele>
        <time>2015-06-17T09:45:16Z</time>
      </trkpt>
      <trkpt lat="45.02989" lon="0.3909">
        <ele>114.05</ele>
        <time>2015-06-17T09:45:32Z</time>
      </trkpt>
      <trkpt lat="45.02989" lon="0.39088">
        <ele>113.57</ele>
        <time>2015-06-17T09:46:02Z</time>
      </trkpt>
      <trkpt lat="45.02991" lon="0.39085">
        <ele>113.57</ele>
        <time>2015-06-17T09:46:34Z</time>
      </trkpt>
      <trkpt lat="45.0299" lon="0.39087">
        <ele>114.05</ele>
        <time>2015-06-17T09:46:58Z</time>
      </trkpt>
      <trkpt lat="45.02988" lon="0.3909">
        <ele>114.05</ele>
        <time>2015-06-17T09:47:28Z</time>
      </trkpt>
      <trkpt lat="45.02989" lon="0.39089">
        <ele>114.05</ele>
        <time>2015-06-17T09:47:43Z</time>
      </trkpt>
      <trkpt lat="45.02985" lon="0.39081">
        <ele>114.05</ele>
        <time>2015-06-17T09:48:08Z</time>
      </trkpt>
      <trkpt lat="45.02984" lon="0.39074">
        <ele>113.57</ele>
        <time>2015-06-17T09:48:13Z</time>
      </trkpt>
      <trkpt lat="45.02979" lon="0.39047">
        <ele>113.09</ele>
        <time>2015-06-17T09:48:32Z</time>
      </trkpt>
      <trkpt lat="45.02977" lon="0.39025">
        <ele>113.57</ele>
        <time>2015-06-17T09:48:46Z</time>
      </trkpt>
      <trkpt lat="45.02977" lon="0.39016">
        <ele>112.13</ele>
        <time>2015-06-17T09:48:53Z</time>
      </trkpt>
      <trkpt lat="45.02977" lon="0.39008">
        <ele>112.13</ele>
        <time>2015-06-17T09:49:09Z</time>
      </trkpt>
      <trkpt lat="45.02983" lon="0.38982">
        <ele>112.13</ele>
        <time>2015-06-17T09:49:20Z</time>
      </trkpt>
      <trkpt lat="45.03001" lon="0.38974">
        <ele>111.17</ele>
        <time>2015-06-17T09:49:34Z</time>
      </trkpt>
      <trkpt lat="45.0302" lon="0.38961">
        <ele>110.21</ele>
        <time>2015-06-17T09:49:49Z</time>
      </trkpt>
      <trkpt lat="45.03037" lon="0.38947">
        <ele>109.73</ele>
        <time>2015-06-17T09:50:05Z</time>
      </trkpt>
      <trkpt lat="45.03054" lon="0.38941">
        <ele>108.77</ele>
        <time>2015-06-17T09:50:20Z</time>
      </trkpt>
      <trkpt lat="45.03073" lon="0.38939">
        <ele>108.29</ele>
        <time>2015-06-17T09:50:38Z</time>
      </trkpt>
      <trkpt lat="45.03089" lon="0.38934">
        <ele>107.81</ele>
        <time>2015-06-17T09:50:54Z</time>
      </trkpt>
      <trkpt lat="45.03108" lon="0.38933">
        <ele>106.84</ele>
        <time>2015-06-17T09:51:12Z</time>
      </trkpt>
      <trkpt lat="45.03111" lon="0.38932">
        <ele>106.84</ele>
        <time>2015-06-17T09:51:14Z</time>
      </trkpt>
      <trkpt lat="45.03123" lon="0.38934">
        <ele>106.36</ele>
        <time>2015-06-17T09:51:21Z</time>
      </trkpt>
      <trkpt lat="45.03144" lon="0.38934">
        <ele>106.36</ele>
        <time>2015-06-17T09:51:36Z</time>
      </trkpt>
      <trkpt lat="45.03145" lon="0.38934">
        <ele>105.88</ele>
        <time>2015-06-17T09:51:37Z</time>
      </trkpt>
      <trkpt lat="45.03164" lon="0.38931">
        <ele>105.88</ele>
        <time>2015-06-17T09:51:52Z</time>
      </trkpt>
      <trkpt lat="45.03175" lon="0.38926">
        <ele>104.92</ele>
        <time>2015-06-17T09:52:06Z</time>
      </trkpt>
      <trkpt lat="45.03179" lon="0.38926">
        <ele>104.44</ele>
        <time>2015-06-17T09:52:19Z</time>
      </trkpt>
      <trkpt lat="45.03179" lon="0.38917">
        <ele>104.44</ele>
        <time>2015-06-17T09:52:35Z</time>
      </trkpt>
      <trkpt lat="45.03179" lon="0.38916">
        <ele>105.88</ele>
        <time>2015-06-17T09:52:37Z</time>
      </trkpt>
      <trkpt lat="45.03181" lon="0.38915">
        <ele>106.36</ele>
        <time>2015-06-17T09:52:57Z</time>
      </trkpt>
      <trkpt lat="45.03186" lon="0.3892">
        <ele>104.92</ele>
        <time>2015-06-17T09:53:05Z</time>
      </trkpt>
      <trkpt lat="45.03189" lon="0.38925">
        <ele>103.96</ele>
        <time>2015-06-17T09:53:16Z</time>
      </trkpt>
      <trkpt lat="45.03189" lon="0.38923">
        <ele>103.48</ele>
        <time>2015-06-17T09:53:46Z</time>
      </trkpt>
      <trkpt lat="45.03188" lon="0.38922">
        <ele>103.96</ele>
        <time>2015-06-17T09:54:11Z</time>
      </trkpt>
      <trkpt lat="45.03194" lon="0.38926">
        <ele>103.96</ele>
        <time>2015-06-17T09:54:42Z</time>
      </trkpt>
      <trkpt lat="45.03192" lon="0.38927">
        <ele>103.96</ele>
        <time>2015-06-17T09:54:55Z</time>
      </trkpt>
      <trkpt lat="45.03184" lon="0.38916">
        <ele>105.88</ele>
        <time>2015-06-17T09:55:05Z</time>
      </trkpt>
      <trkpt lat="45.03184" lon="0.38917">
        <ele>105.88</ele>
        <time>2015-06-17T09:55:10Z</time>
      </trkpt>
      <trkpt lat="45.03186" lon="0.38919">
        <ele>104.44</ele>
        <time>2015-06-17T09:55:12Z</time>
      </trkpt>
      <trkpt lat="45.03189" lon="0.38924">
        <ele>103.96</ele>
        <time>2015-06-17T09:55:24Z</time>
      </trkpt>
      <trkpt lat="45.03191" lon="0.38927">
        <ele>103.48</ele>
        <time>2015-06-17T09:55:52Z</time>
      </trkpt>
      <trkpt lat="45.03191" lon="0.38929">
        <ele>102.52</ele>
        <time>2015-06-17T09:56:03Z</time>
      </trkpt>
      <trkpt lat="45.03192" lon="0.38924">
        <ele>102.52</ele>
        <time>2015-06-17T09:56:06Z</time>
      </trkpt>
      <trkpt lat="45.03207" lon="0.38908">
        <ele>102.52</ele>
        <time>2015-06-17T09:56:19Z</time>
      </trkpt>
      <trkpt lat="45.03221" lon="0.38897">
        <ele>102.52</ele>
        <time>2015-06-17T09:56:30Z</time>
      </trkpt>
      <trkpt lat="45.03236" lon="0.38883">
        <ele>102.52</ele>
        <time>2015-06-17T09:56:43Z</time>
      </trkpt>
      <trkpt lat="45.03249" lon="0.38862">
        <ele>102.52</ele>
        <time>2015-06-17T09:56:58Z</time>
      </trkpt>
      <trkpt lat="45.03264" lon="0.38838">
        <ele>102.52</ele>
        <time>2015-06-17T09:57:15Z</time>
      </trkpt>
      <trkpt lat="45.03281" lon="0.38806">
        <ele>102.04</ele>
        <time>2015-06-17T09:57:37Z</time>
      </trkpt>
      <trkpt lat="45.03288" lon="0.38781">
        <ele>102.04</ele>
        <time>2015-06-17T09:57:52Z</time>
      </trkpt>
      <trkpt lat="45.03289" lon="0.3876">
        <ele>102.52</ele>
        <time>2015-06-17T09:58:05Z</time>
      </trkpt>
      <trkpt lat="45.03287" lon="0.38751">
        <ele>101.56</ele>
        <time>2015-06-17T09:58:10Z</time>
      </trkpt>
      <trkpt lat="45.03288" lon="0.38726">
        <ele>103</ele>
        <time>2015-06-17T09:58:23Z</time>
      </trkpt>
      <trkpt lat="45.03287" lon="0.38695">
        <ele>102.52</ele>
        <time>2015-06-17T09:58:39Z</time>
      </trkpt>
      <trkpt lat="45.03285" lon="0.3867">
        <ele>102.52</ele>
        <time>2015-06-17T09:58:53Z</time>
      </trkpt>
      <trkpt lat="45.03282" lon="0.38654">
        <ele>103</ele>
        <time>2015-06-17T09:59:02Z</time>
      </trkpt>
      <trkpt lat="45.0328" lon="0.38649">
        <ele>103</ele>
        <time>2015-06-17T09:59:06Z</time>
      </trkpt>
      <trkpt lat="45.03279" lon="0.38638">
        <ele>103</ele>
        <time>2015-06-17T09:59:12Z</time>
      </trkpt>
      <trkpt lat="45.03278" lon="0.38612">
        <ele>103</ele>
        <time>2015-06-17T09:59:28Z</time>
      </trkpt>
      <trkpt lat="45.03273" lon="0.38587">
        <ele>103</ele>
        <time>2015-06-17T09:59:43Z</time>
      </trkpt>
      <trkpt lat="45.0327" lon="0.38578">
        <ele>103</ele>
        <time>2015-06-17T09:59:58Z</time>
      </trkpt>
      <trkpt lat="45.03269" lon="0.38573">
        <ele>103</ele>
        <time>2015-06-17T10:00:14Z</time>
      </trkpt>
      <trkpt lat="45.03269" lon="0.38572">
        <ele>103</ele>
        <time>2015-06-17T10:00:28Z</time>
      </trkpt>
      <trkpt lat="45.0327" lon="0.38567">
        <ele>103</ele>
        <time>2015-06-17T10:00:36Z</time>
      </trkpt>
      <trkpt lat="45.03265" lon="0.38575">
        <ele>103.48</ele>
        <time>2015-06-17T10:00:46Z</time>
      </trkpt>
      <trkpt lat="45.03267" lon="0.38572">
        <ele>103.48</ele>
        <time>2015-06-17T10:00:55Z</time>
      </trkpt>
      <trkpt lat="45.03269" lon="0.38568">
        <ele>102.04</ele>
        <time>2015-06-17T10:00:58Z</time>
      </trkpt>
      <trkpt lat="45.0327" lon="0.38566">
        <ele>101.56</ele>
        <time>2015-06-17T10:01:10Z</time>
      </trkpt>
      <trkpt lat="45.03267" lon="0.38568">
        <ele>101.56</ele>
        <time>2015-06-17T10:01:27Z</time>
      </trkpt>
      <trkpt lat="45.03273" lon="0.38565">
        <ele>101.56</ele>
        <time>2015-06-17T10:01:53Z</time>
      </trkpt>
      <trkpt lat="45.03277" lon="0.38565">
        <ele>101.56</ele>
        <time>2015-06-17T10:02:18Z</time>
      </trkpt>
      <trkpt lat="45.03274" lon="0.38564">
        <ele>101.56</ele>
        <time>2015-06-17T10:02:47Z</time>
      </trkpt>
      <trkpt lat="45.03272" lon="0.38563">
        <ele>102.04</ele>
        <time>2015-06-17T10:03:12Z</time>
      </trkpt>
      <trkpt lat="45.03273" lon="0.38567">
        <ele>101.08</ele>
        <time>2015-06-17T10:03:47Z</time>
      </trkpt>
      <trkpt lat="45.03269" lon="0.38576">
        <ele>101.08</ele>
        <time>2015-06-17T10:04:02Z</time>
      </trkpt>
      <trkpt lat="45.03269" lon="0.38569">
        <ele>101.08</ele>
        <time>2015-06-17T10:04:14Z</time>
      </trkpt>
      <trkpt lat="45.0327" lon="0.38565">
        <ele>101.08</ele>
        <time>2015-06-17T10:04:30Z</time>
      </trkpt>
      <trkpt lat="45.03268" lon="0.38564">
        <ele>101.08</ele>
        <time>2015-06-17T10:04:54Z</time>
      </trkpt>
      <trkpt lat="45.03264" lon="0.38572">
        <ele>101.56</ele>
        <time>2015-06-17T10:05:22Z</time>
      </trkpt>
      <trkpt lat="45.03265" lon="0.3857">
        <ele>102.52</ele>
        <time>2015-06-17T10:05:24Z</time>
      </trkpt>
      <trkpt lat="45.03272" lon="0.38568">
        <ele>102.52</ele>
        <time>2015-06-17T10:05:58Z</time>
      </trkpt>
      <trkpt lat="45.0327" lon="0.38567">
        <ele>102.52</ele>
        <time>2015-06-17T10:06:21Z</time>
      </trkpt>
      <trkpt lat="45.03269" lon="0.38567">
        <ele>102.52</ele>
        <time>2015-06-17T10:06:39Z</time>
      </trkpt>
      <trkpt lat="45.03269" lon="0.38566">
        <ele>101.56</ele>
        <time>2015-06-17T10:06:44Z</time>
      </trkpt>
      <trkpt lat="45.03267" lon="0.38559">
        <ele>101.56</ele>
        <time>2015-06-17T10:07:08Z</time>
      </trkpt>
      <trkpt lat="45.0327" lon="0.38561">
        <ele>101.56</ele>
        <time>2015-06-17T10:07:40Z</time>
      </trkpt>
      <trkpt lat="45.03271" lon="0.38563">
        <ele>101.56</ele>
        <time>2015-06-17T10:08:10Z</time>
      </trkpt>
      <trkpt lat="45.0327" lon="0.38563">
        <ele>102.04</ele>
        <time>2015-06-17T10:08:44Z</time>
      </trkpt>
      <trkpt lat="45.03273" lon="0.38566">
        <ele>102.52</ele>
        <time>2015-06-17T10:09:08Z</time>
      </trkpt>
      <trkpt lat="45.03271" lon="0.38569">
        <ele>103</ele>
        <time>2015-06-17T10:09:42Z</time>
      </trkpt>
      <trkpt lat="45.03271" lon="0.38565">
        <ele>101.56</ele>
        <time>2015-06-17T10:09:56Z</time>
      </trkpt>
      <trkpt lat="45.03266" lon="0.38569">
        <ele>101.56</ele>
        <time>2015-06-17T10:10:24Z</time>
      </trkpt>
      <trkpt lat="45.03266" lon="0.3857">
        <ele>103</ele>
        <time>2015-06-17T10:10:52Z</time>
      </trkpt>
      <trkpt lat="45.03267" lon="0.38571">
        <ele>101.56</ele>
        <time>2015-06-17T10:11:14Z</time>
      </trkpt>
      <trkpt lat="45.03268" lon="0.3857">
        <ele>102.04</ele>
        <time>2015-06-17T10:11:45Z</time>
      </trkpt>
      <trkpt lat="45.03269" lon="0.3857">
        <ele>102.04</ele>
        <time>2015-06-17T10:12:19Z</time>
      </trkpt>
      <trkpt lat="45.03269" lon="0.38569">
        <ele>102.04</ele>
        <time>2015-06-17T10:12:46Z</time>
      </trkpt>
      <trkpt lat="45.03264" lon="0.38571">
        <ele>102.04</ele>
        <time>2015-06-17T10:13:23Z</time>
      </trkpt>
      <trkpt lat="45.03266" lon="0.3857">
        <ele>102.04</ele>
        <time>2015-06-17T10:13:55Z</time>
      </trkpt>
      <trkpt lat="45.03265" lon="0.38569">
        <ele>102.04</ele>
        <time>2015-06-17T10:14:32Z</time>
      </trkpt>
      <trkpt lat="45.03268" lon="0.38569">
        <ele>102.52</ele>
        <time>2015-06-17T10:15:08Z</time>
      </trkpt>
      <trkpt lat="45.0327" lon="0.38565">
        <ele>102.52</ele>
        <time>2015-06-17T10:15:37Z</time>
      </trkpt>
      <trkpt lat="45.03267" lon="0.38568">
        <ele>103.48</ele>
        <time>2015-06-17T10:16:04Z</time>
      </trkpt>
      <trkpt lat="45.0327" lon="0.38565">
        <ele>103.48</ele>
        <time>2015-06-17T10:16:33Z</time>
      </trkpt>
      <trkpt lat="45.0327" lon="0.38568">
        <ele>102.52</ele>
        <time>2015-06-17T10:17:05Z</time>
      </trkpt>
      <trkpt lat="45.03271" lon="0.38569">
        <ele>102.52</ele>
        <time>2015-06-17T10:17:30Z</time>
      </trkpt>
      <trkpt lat="45.03271" lon="0.38568">
        <ele>102.52</ele>
        <time>2015-06-17T10:17:52Z</time>
      </trkpt>
      <trkpt lat="45.03271" lon="0.38569">
        <ele>102.52</ele>
        <time>2015-06-17T10:18:16Z</time>
      </trkpt>
      <trkpt lat="45.03267" lon="0.38568">
        <ele>102.52</ele>
        <time>2015-06-17T10:18:42Z</time>
      </trkpt>
      <trkpt lat="45.03269" lon="0.38566">
        <ele>103</ele>
        <time>2015-06-17T10:19:11Z</time>
      </trkpt>
      <trkpt lat="45.03269" lon="0.38565">
        <ele>103</ele>
        <time>2015-06-17T10:19:31Z</time>
      </trkpt>
      <trkpt lat="45.03269" lon="0.38565">
        <ele>103</ele>
        <time>2015-06-17T10:19:58Z</time>
      </trkpt>
      <trkpt lat="45.03268" lon="0.38567">
        <ele>103</ele>
        <time>2015-06-17T10:20:25Z</time>
      </trkpt>
      <trkpt lat="45.03269" lon="0.38564">
        <ele>103</ele>
        <time>2015-06-17T10:21:03Z</time>
      </trkpt>
      <trkpt lat="45.03266" lon="0.38566">
        <ele>103</ele>
        <time>2015-06-17T10:21:35Z</time>
      </trkpt>
      <trkpt lat="45.03267" lon="0.38566">
        <ele>103</ele>
        <time>2015-06-17T10:21:55Z</time>
      </trkpt>
      <trkpt lat="45.03269" lon="0.38566">
        <ele>103</ele>
        <time>2015-06-17T10:22:19Z</time>
      </trkpt>
      <trkpt lat="45.03268" lon="0.38568">
        <ele>103</ele>
        <time>2015-06-17T10:22:53Z</time>
      </trkpt>
      <trkpt lat="45.03268" lon="0.38568">
        <ele>103</ele>
        <time>2015-06-17T10:23:18Z</time>
      </trkpt>
      <trkpt lat="45.0327" lon="0.38568">
        <ele>103.48</ele>
        <time>2015-06-17T10:23:40Z</time>
      </trkpt>
      <trkpt lat="45.03273" lon="0.38565">
        <ele>103.48</ele>
        <time>2015-06-17T10:24:17Z</time>
      </trkpt>
      <trkpt lat="45.03271" lon="0.38565">
        <ele>103.48</ele>
        <time>2015-06-17T10:24:47Z</time>
      </trkpt>
      <trkpt lat="45.03268" lon="0.38566">
        <ele>103.48</ele>
        <time>2015-06-17T10:25:19Z</time>
      </trkpt>
      <trkpt lat="45.03264" lon="0.38566">
        <ele>103.48</ele>
        <time>2015-06-17T10:25:53Z</time>
      </trkpt>
      <trkpt lat="45.03265" lon="0.38565">
        <ele>103.96</ele>
        <time>2015-06-17T10:26:32Z</time>
      </trkpt>
      <trkpt lat="45.03266" lon="0.38568">
        <ele>103.96</ele>
        <time>2015-06-17T10:27:09Z</time>
      </trkpt>
      <trkpt lat="45.03269" lon="0.38565">
        <ele>104.44</ele>
        <time>2015-06-17T10:27:42Z</time>
      </trkpt>
      <trkpt lat="45.03267" lon="0.38566">
        <ele>104.44</ele>
        <time>2015-06-17T10:28:09Z</time>
      </trkpt>
      <trkpt lat="45.03268" lon="0.38567">
        <ele>104.44</ele>
        <time>2015-06-17T10:28:48Z</time>
      </trkpt>
      <trkpt lat="45.0327" lon="0.38568">
        <ele>104.92</ele>
        <time>2015-06-17T10:29:24Z</time>
      </trkpt>
      <trkpt lat="45.03271" lon="0.38568">
        <ele>104.92</ele>
        <time>2015-06-17T10:29:49Z</time>
      </trkpt>
      <trkpt lat="45.03271" lon="0.38568">
        <ele>104.92</ele>
        <time>2015-06-17T10:30:24Z</time>
      </trkpt>
      <trkpt lat="45.03272" lon="0.38568">
        <ele>104.92</ele>
        <time>2015-06-17T10:30:53Z</time>
      </trkpt>
      <trkpt lat="45.03273" lon="0.38564">
        <ele>104.92</ele>
        <time>2015-06-17T10:31:23Z</time>
      </trkpt>
      <trkpt lat="45.03271" lon="0.38567">
        <ele>104.92</ele>
        <time>2015-06-17T10:31:53Z</time>
      </trkpt>
      <trkpt lat="45.03272" lon="0.3857">
        <ele>104.92</ele>
        <time>2015-06-17T10:32:24Z</time>
      </trkpt>
      <trkpt lat="45.03271" lon="0.3857">
        <ele>104.92</ele>
        <time>2015-06-17T10:32:57Z</time>
      </trkpt>
      <trkpt lat="45.03269" lon="0.38572">
        <ele>104.92</ele>
        <time>2015-06-17T10:33:31Z</time>
      </trkpt>
      <trkpt lat="45.03266" lon="0.38569">
        <ele>104.92</ele>
        <time>2015-06-17T10:34:02Z</time>
      </trkpt>
      <trkpt lat="45.03269" lon="0.38568">
        <ele>104.92</ele>
        <time>2015-06-17T10:34:30Z</time>
      </trkpt>
      <trkpt lat="45.03268" lon="0.38569">
        <ele>105.4</ele>
        <time>2015-06-17T10:35:00Z</time>
      </trkpt>
      <trkpt lat="45.0327" lon="0.38567">
        <ele>105.4</ele>
        <time>2015-06-17T10:35:25Z</time>
      </trkpt>
      <trkpt lat="45.03272" lon="0.38567">
        <ele>105.4</ele>
        <time>2015-06-17T10:35:54Z</time>
      </trkpt>
      <trkpt lat="45.03273" lon="0.38566">
        <ele>105.4</ele>
        <time>2015-06-17T10:36:10Z</time>
      </trkpt>
      <trkpt lat="45.03271" lon="0.38565">
        <ele>105.4</ele>
        <time>2015-06-17T10:36:39Z</time>
      </trkpt>
      <trkpt lat="45.03274" lon="0.38564">
        <ele>105.4</ele>
        <time>2015-06-17T10:37:04Z</time>
      </trkpt>
      <trkpt lat="45.03273" lon="0.38565">
        <ele>105.4</ele>
        <time>2015-06-17T10:37:41Z</time>
      </trkpt>
      <trkpt lat="45.03274" lon="0.38567">
        <ele>105.4</ele>
        <time>2015-06-17T10:38:02Z</time>
      </trkpt>
      <trkpt lat="45.03273" lon="0.38568">
        <ele>105.4</ele>
        <time>2015-06-17T10:38:34Z</time>
      </trkpt>
      <trkpt lat="45.03271" lon="0.38567">
        <ele>105.4</ele>
        <time>2015-06-17T10:39:02Z</time>
      </trkpt>
      <trkpt lat="45.03271" lon="0.38564">
        <ele>105.4</ele>
        <time>2015-06-17T10:39:26Z</time>
      </trkpt>
      <trkpt lat="45.03269" lon="0.38565">
        <ele>106.84</ele>
        <time>2015-06-17T10:39:35Z</time>
      </trkpt>
      <trkpt lat="45.03272" lon="0.38569">
        <ele>106.84</ele>
        <time>2015-06-17T10:39:51Z</time>
      </trkpt>
      <trkpt lat="45.03271" lon="0.38567">
        <ele>105.4</ele>
        <time>2015-06-17T10:40:11Z</time>
      </trkpt>
      <trkpt lat="45.03269" lon="0.38571">
        <ele>106.36</ele>
        <time>2015-06-17T10:40:37Z</time>
      </trkpt>
      <trkpt lat="45.03264" lon="0.3857">
        <ele>106.84</ele>
        <time>2015-06-17T10:41:00Z</time>
      </trkpt>
      <trkpt lat="45.03268" lon="0.38562">
        <ele>106.84</ele>
        <time>2015-06-17T10:41:31Z</time>
      </trkpt>
      <trkpt lat="45.03271" lon="0.3856">
        <ele>106.84</ele>
        <time>2015-06-17T10:41:55Z</time>
      </trkpt>
      <trkpt lat="45.03271" lon="0.3856">
        <ele>106.84</ele>
        <time>2015-06-17T10:42:17Z</time>
      </trkpt>
      <trkpt lat="45.03268" lon="0.38562">
        <ele>107.32</ele>
        <time>2015-06-17T10:42:40Z</time>
      </trkpt>
      <trkpt lat="45.03273" lon="0.38551">
        <ele>107.32</ele>
        <time>2015-06-17T10:42:52Z</time>
      </trkpt>
      <trkpt lat="45.03277" lon="0.38551">
        <ele>107.32</ele>
        <time>2015-06-17T10:42:57Z</time>
      </trkpt>
      <trkpt lat="45.03279" lon="0.38551">
        <ele>105.88</ele>
        <time>2015-06-17T10:42:59Z</time>
      </trkpt>
      <trkpt lat="45.03293" lon="0.38553">
        <ele>104.92</ele>
        <time>2015-06-17T10:43:12Z</time>
      </trkpt>
      <trkpt lat="45.03308" lon="0.38551">
        <ele>103</ele>
        <time>2015-06-17T10:43:26Z</time>
      </trkpt>
      <trkpt lat="45.03323" lon="0.38547">
        <ele>101.56</ele>
        <time>2015-06-17T10:43:38Z</time>
      </trkpt>
      <trkpt lat="45.03337" lon="0.38544">
        <ele>100.6</ele>
        <time>2015-06-17T10:43:52Z</time>
      </trkpt>
      <trkpt lat="45.03357" lon="0.38538">
        <ele>100.6</ele>
        <time>2015-06-17T10:44:06Z</time>
      </trkpt>
      <trkpt lat="45.03367" lon="0.38539">
        <ele>100.6</ele>
        <time>2015-06-17T10:44:14Z</time>
      </trkpt>
      <trkpt lat="45.03374" lon="0.38546">
        <ele>100.6</ele>
        <time>2015-06-17T10:44:21Z</time>
      </trkpt>
      <trkpt lat="45.03383" lon="0.38586">
        <ele>103</ele>
        <time>2015-06-17T10:44:43Z</time>
      </trkpt>
      <trkpt lat="45.03389" lon="0.38625">
        <ele>103</ele>
        <time>2015-06-17T10:45:05Z</time>
      </trkpt>
      <trkpt lat="45.03396" lon="0.38663">
        <ele>103</ele>
        <time>2015-06-17T10:45:26Z</time>
      </trkpt>
      <trkpt lat="45.034" lon="0.38696">
        <ele>103</ele>
        <time>2015-06-17T10:45:45Z</time>
      </trkpt>
      <trkpt lat="45.03403" lon="0.38711">
        <ele>102.04</ele>
        <time>2015-06-17T10:45:54Z</time>
      </trkpt>
      <trkpt lat="45.03403" lon="0.38714">
        <ele>102.04</ele>
        <time>2015-06-17T10:45:56Z</time>
      </trkpt>
      <trkpt lat="45.03408" lon="0.3875">
        <ele>100.11</ele>
        <time>2015-06-17T10:46:17Z</time>
      </trkpt>
      <trkpt lat="45.03413" lon="0.38783">
        <ele>99.63</ele>
        <time>2015-06-17T10:46:36Z</time>
      </trkpt>
      <trkpt lat="45.03412" lon="0.38793">
        <ele>99.63</ele>
        <time>2015-06-17T10:46:47Z</time>
      </trkpt>
      <trkpt lat="45.03411" lon="0.38796">
        <ele>98.67</ele>
        <time>2015-06-17T10:46:58Z</time>
      </trkpt>
      <trkpt lat="45.03412" lon="0.38798">
        <ele>98.19</ele>
        <time>2015-06-17T10:47:13Z</time>
      </trkpt>
      <trkpt lat="45.03412" lon="0.38797">
        <ele>98.19</ele>
        <time>2015-06-17T10:47:32Z</time>
      </trkpt>
      <trkpt lat="45.03411" lon="0.38794">
        <ele>98.19</ele>
        <time>2015-06-17T10:47:45Z</time>
      </trkpt>
      <trkpt lat="45.03415" lon="0.38792">
        <ele>98.19</ele>
        <time>2015-06-17T10:47:55Z</time>
      </trkpt>
      <trkpt lat="45.03417" lon="0.38791">
        <ele>97.71</ele>
        <time>2015-06-17T10:48:11Z</time>
      </trkpt>
      <trkpt lat="45.03417" lon="0.38793">
        <ele>99.15</ele>
        <time>2015-06-17T10:48:33Z</time>
      </trkpt>
      <trkpt lat="45.03417" lon="0.38792">
        <ele>99.63</ele>
        <time>2015-06-17T10:49:03Z</time>
      </trkpt>
      <trkpt lat="45.03417" lon="0.38789">
        <ele>99.15</ele>
        <time>2015-06-17T10:49:30Z</time>
      </trkpt>
      <trkpt lat="45.03415" lon="0.3879">
        <ele>99.63</ele>
        <time>2015-06-17T10:49:32Z</time>
      </trkpt>
      <trkpt lat="45.03412" lon="0.38793">
        <ele>99.15</ele>
        <time>2015-06-17T10:49:43Z</time>
      </trkpt>
      <trkpt lat="45.03417" lon="0.38797">
        <ele>99.15</ele>
        <time>2015-06-17T10:49:56Z</time>
      </trkpt>
      <trkpt lat="45.0342" lon="0.38824">
        <ele>97.71</ele>
        <time>2015-06-17T10:50:13Z</time>
      </trkpt>
      <trkpt lat="45.03423" lon="0.38849">
        <ele>97.71</ele>
        <time>2015-06-17T10:50:29Z</time>
      </trkpt>
      <trkpt lat="45.03423" lon="0.38856">
        <ele>97.23</ele>
        <time>2015-06-17T10:50:33Z</time>
      </trkpt>
      <trkpt lat="45.03427" lon="0.38882">
        <ele>97.23</ele>
        <time>2015-06-17T10:50:50Z</time>
      </trkpt>
      <trkpt lat="45.03435" lon="0.38905">
        <ele>97.23</ele>
        <time>2015-06-17T10:51:03Z</time>
      </trkpt>
      <trkpt lat="45.03455" lon="0.38897">
        <ele>97.23</ele>
        <time>2015-06-17T10:51:20Z</time>
      </trkpt>
      <trkpt lat="45.03473" lon="0.38894">
        <ele>96.27</ele>
        <time>2015-06-17T10:51:34Z</time>
      </trkpt>
      <trkpt lat="45.0349" lon="0.38888">
        <ele>97.71</ele>
        <time>2015-06-17T10:51:49Z</time>
      </trkpt>
      <trkpt lat="45.03492" lon="0.38885">
        <ele>97.23</ele>
        <time>2015-06-17T10:52:06Z</time>
      </trkpt>
      <trkpt lat="45.03496" lon="0.38881">
        <ele>97.71</ele>
        <time>2015-06-17T10:52:19Z</time>
      </trkpt>
      <trkpt lat="45.03496" lon="0.38877">
        <ele>97.71</ele>
        <time>2015-06-17T10:52:41Z</time>
      </trkpt>
      <trkpt lat="45.035" lon="0.38878">
        <ele>97.71</ele>
        <time>2015-06-17T10:53:02Z</time>
      </trkpt>
      <trkpt lat="45.03503" lon="0.38876">
        <ele>97.71</ele>
        <time>2015-06-17T10:53:07Z</time>
      </trkpt>
      <trkpt lat="45.03506" lon="0.38875">
        <ele>97.71</ele>
        <time>2015-06-17T10:53:09Z</time>
      </trkpt>
      <trkpt lat="45.03513" lon="0.3887">
        <ele>97.71</ele>
        <time>2015-06-17T10:53:15Z</time>
      </trkpt>
      <trkpt lat="45.03523" lon="0.38862">
        <ele>98.19</ele>
        <time>2015-06-17T10:53:30Z</time>
      </trkpt>
      <trkpt lat="45.03523" lon="0.38862">
        <ele>98.19</ele>
        <time>2015-06-17T10:53:45Z</time>
      </trkpt>
      <trkpt lat="45.03526" lon="0.3886">
        <ele>98.19</ele>
        <time>2015-06-17T10:54:00Z</time>
      </trkpt>
      <trkpt lat="45.03526" lon="0.38857">
        <ele>98.19</ele>
        <time>2015-06-17T10:54:18Z</time>
      </trkpt>
      <trkpt lat="45.03522" lon="0.38858">
        <ele>97.71</ele>
        <time>2015-06-17T10:54:39Z</time>
      </trkpt>
      <trkpt lat="45.03529" lon="0.38855">
        <ele>97.71</ele>
        <time>2015-06-17T10:54:52Z</time>
      </trkpt>
      <trkpt lat="45.0353" lon="0.38855">
        <ele>97.71</ele>
        <time>2015-06-17T10:54:53Z</time>
      </trkpt>
      <trkpt lat="45.03538" lon="0.38851">
        <ele>97.71</ele>
        <time>2015-06-17T10:55:05Z</time>
      </trkpt>
      <trkpt lat="45.03539" lon="0.3885">
        <ele>97.71</ele>
        <time>2015-06-17T10:55:09Z</time>
      </trkpt>
      <trkpt lat="45.03544" lon="0.38846">
        <ele>97.71</ele>
        <time>2015-06-17T10:55:15Z</time>
      </trkpt>
      <trkpt lat="45.03556" lon="0.38835">
        <ele>97.71</ele>
        <time>2015-06-17T10:55:27Z</time>
      </trkpt>
      <trkpt lat="45.03563" lon="0.3883">
        <ele>96.27</ele>
        <time>2015-06-17T10:55:34Z</time>
      </trkpt>
      <trkpt lat="45.03568" lon="0.38825">
        <ele>96.27</ele>
        <time>2015-06-17T10:55:39Z</time>
      </trkpt>
      <trkpt lat="45.03572" lon="0.38822">
        <ele>95.79</ele>
        <time>2015-06-17T10:55:43Z</time>
      </trkpt>
      <trkpt lat="45.03574" lon="0.38822">
        <ele>95.79</ele>
        <time>2015-06-17T10:55:45Z</time>
      </trkpt>
      <trkpt lat="45.03588" lon="0.38809">
        <ele>94.83</ele>
        <time>2015-06-17T10:55:59Z</time>
      </trkpt>
      <trkpt lat="45.03595" lon="0.38802">
        <ele>94.83</ele>
        <time>2015-06-17T10:56:09Z</time>
      </trkpt>
      <trkpt lat="45.03606" lon="0.38798">
        <ele>94.83</ele>
        <time>2015-06-17T10:56:19Z</time>
      </trkpt>
      <trkpt lat="45.03617" lon="0.388">
        <ele>94.83</ele>
        <time>2015-06-17T10:56:27Z</time>
      </trkpt>
      <trkpt lat="45.03619" lon="0.388">
        <ele>94.83</ele>
        <time>2015-06-17T10:56:29Z</time>
      </trkpt>
      <trkpt lat="45.03628" lon="0.38804">
        <ele>95.79</ele>
        <time>2015-06-17T10:56:36Z</time>
      </trkpt>
      <trkpt lat="45.03636" lon="0.38813">
        <ele>95.79</ele>
        <time>2015-06-17T10:56:48Z</time>
      </trkpt>
      <trkpt lat="45.03643" lon="0.38816">
        <ele>96.75</ele>
        <time>2015-06-17T10:57:03Z</time>
      </trkpt>
      <trkpt lat="45.03642" lon="0.38809">
        <ele>96.75</ele>
        <time>2015-06-17T10:57:19Z</time>
      </trkpt>
      <trkpt lat="45.03642" lon="0.3881">
        <ele>96.75</ele>
        <time>2015-06-17T10:57:22Z</time>
      </trkpt>
      <trkpt lat="45.03643" lon="0.38816">
        <ele>96.75</ele>
        <time>2015-06-17T10:57:26Z</time>
      </trkpt>
      <trkpt lat="45.03647" lon="0.38823">
        <ele>96.75</ele>
        <time>2015-06-17T10:57:41Z</time>
      </trkpt>
      <trkpt lat="45.03648" lon="0.38825">
        <ele>96.75</ele>
        <time>2015-06-17T10:58:06Z</time>
      </trkpt>
      <trkpt lat="45.03651" lon="0.38825">
        <ele>96.27</ele>
        <time>2015-06-17T10:58:27Z</time>
      </trkpt>
      <trkpt lat="45.03652" lon="0.38819">
        <ele>96.27</ele>
        <time>2015-06-17T10:58:50Z</time>
      </trkpt>
      <trkpt lat="45.03647" lon="0.38811">
        <ele>96.27</ele>
        <time>2015-06-17T10:59:01Z</time>
      </trkpt>
      <trkpt lat="45.03648" lon="0.38817">
        <ele>96.27</ele>
        <time>2015-06-17T10:59:04Z</time>
      </trkpt>
      <trkpt lat="45.03658" lon="0.38828">
        <ele>96.27</ele>
        <time>2015-06-17T10:59:20Z</time>
      </trkpt>
      <trkpt lat="45.03664" lon="0.38832">
        <ele>97.23</ele>
        <time>2015-06-17T10:59:37Z</time>
      </trkpt>
      <trkpt lat="45.03665" lon="0.38832">
        <ele>97.23</ele>
        <time>2015-06-17T10:59:48Z</time>
      </trkpt>
      <trkpt lat="45.0367" lon="0.38837">
        <ele>97.23</ele>
        <time>2015-06-17T10:59:54Z</time>
      </trkpt>
      <trkpt lat="45.03686" lon="0.3884">
        <ele>97.23</ele>
        <time>2015-06-17T11:00:08Z</time>
      </trkpt>
      <trkpt lat="45.03695" lon="0.3883">
        <ele>97.23</ele>
        <time>2015-06-17T11:00:20Z</time>
      </trkpt>
      <trkpt lat="45.03708" lon="0.38811">
        <ele>97.23</ele>
        <time>2015-06-17T11:00:37Z</time>
      </trkpt>
      <trkpt lat="45.03713" lon="0.38804">
        <ele>95.79</ele>
        <time>2015-06-17T11:00:42Z</time>
      </trkpt>
      <trkpt lat="45.03717" lon="0.388">
        <ele>95.79</ele>
        <time>2015-06-17T11:00:46Z</time>
      </trkpt>
      <trkpt lat="45.03725" lon="0.38786">
        <ele>95.79</ele>
        <time>2015-06-17T11:00:57Z</time>
      </trkpt>
      <trkpt lat="45.03737" lon="0.38766">
        <ele>94.35</ele>
        <time>2015-06-17T11:01:12Z</time>
      </trkpt>
      <trkpt lat="45.03754" lon="0.38744">
        <ele>93.39</ele>
        <time>2015-06-17T11:01:30Z</time>
      </trkpt>
      <trkpt lat="45.03756" lon="0.38742">
        <ele>93.39</ele>
        <time>2015-06-17T11:01:32Z</time>
      </trkpt>
      <trkpt lat="45.03759" lon="0.38738">
        <ele>92.9</ele>
        <time>2015-06-17T11:01:35Z</time>
      </trkpt>
      <trkpt lat="45.03777" lon="0.38711">
        <ele>90.5</ele>
        <time>2015-06-17T11:01:54Z</time>
      </trkpt>
      <trkpt lat="45.03785" lon="0.38693">
        <ele>89.06</ele>
        <time>2015-06-17T11:02:07Z</time>
      </trkpt>
      <trkpt lat="45.03794" lon="0.38678">
        <ele>88.1</ele>
        <time>2015-06-17T11:02:15Z</time>
      </trkpt>
      <trkpt lat="45.03796" lon="0.38674">
        <ele>88.1</ele>
        <time>2015-06-17T11:02:18Z</time>
      </trkpt>
      <trkpt lat="45.03803" lon="0.38665">
        <ele>88.1</ele>
        <time>2015-06-17T11:02:25Z</time>
      </trkpt>
      <trkpt lat="45.03804" lon="0.38661">
        <ele>88.1</ele>
        <time>2015-06-17T11:02:27Z</time>
      </trkpt>
      <trkpt lat="45.03809" lon="0.38653">
        <ele>87.62</ele>
        <time>2015-06-17T11:02:32Z</time>
      </trkpt>
      <trkpt lat="45.03822" lon="0.38632">
        <ele>86.18</ele>
        <time>2015-06-17T11:02:48Z</time>
      </trkpt>
      <trkpt lat="45.03837" lon="0.38611">
        <ele>86.18</ele>
        <time>2015-06-17T11:03:03Z</time>
      </trkpt>
      <trkpt lat="45.03842" lon="0.38605">
        <ele>86.18</ele>
        <time>2015-06-17T11:03:07Z</time>
      </trkpt>
      <trkpt lat="45.03854" lon="0.38588">
        <ele>85.69</ele>
        <time>2015-06-17T11:03:19Z</time>
      </trkpt>
      <trkpt lat="45.03857" lon="0.38583">
        <ele>85.21</ele>
        <time>2015-06-17T11:03:33Z</time>
      </trkpt>
      <trkpt lat="45.03858" lon="0.3858">
        <ele>84.73</ele>
        <time>2015-06-17T11:03:45Z</time>
      </trkpt>
      <trkpt lat="45.03857" lon="0.38581">
        <ele>84.73</ele>
        <time>2015-06-17T11:03:58Z</time>
      </trkpt>
      <trkpt lat="45.03858" lon="0.38579">
        <ele>84.73</ele>
        <time>2015-06-17T11:04:22Z</time>
      </trkpt>
      <trkpt lat="45.03856" lon="0.38581">
        <ele>84.73</ele>
        <time>2015-06-17T11:04:43Z</time>
      </trkpt>
      <trkpt lat="45.03856" lon="0.38582">
        <ele>85.21</ele>
        <time>2015-06-17T11:05:05Z</time>
      </trkpt>
      <trkpt lat="45.03858" lon="0.38583">
        <ele>85.21</ele>
        <time>2015-06-17T11:05:33Z</time>
      </trkpt>
      <trkpt lat="45.03858" lon="0.38583">
        <ele>87.14</ele>
        <time>2015-06-17T11:05:44Z</time>
      </trkpt>
      <trkpt lat="45.03861" lon="0.38586">
        <ele>84.73</ele>
        <time>2015-06-17T11:05:59Z</time>
      </trkpt>
      <trkpt lat="45.0387" lon="0.38588">
        <ele>84.73</ele>
        <time>2015-06-17T11:06:05Z</time>
      </trkpt>
      <trkpt lat="45.03879" lon="0.38592">
        <ele>84.73</ele>
        <time>2015-06-17T11:06:12Z</time>
      </trkpt>
      <trkpt lat="45.03881" lon="0.38593">
        <ele>84.73</ele>
        <time>2015-06-17T11:06:14Z</time>
      </trkpt>
      <trkpt lat="45.03887" lon="0.38596">
        <ele>84.73</ele>
        <time>2015-06-17T11:06:19Z</time>
      </trkpt>
      <trkpt lat="45.03897" lon="0.38603">
        <ele>84.73</ele>
        <time>2015-06-17T11:06:26Z</time>
      </trkpt>
      <trkpt lat="45.03913" lon="0.38614">
        <ele>84.25</ele>
        <time>2015-06-17T11:06:41Z</time>
      </trkpt>
      <trkpt lat="45.0393" lon="0.38622">
        <ele>84.25</ele>
        <time>2015-06-17T11:06:54Z</time>
      </trkpt>
      <trkpt lat="45.03948" lon="0.38632">
        <ele>83.77</ele>
        <time>2015-06-17T11:07:08Z</time>
      </trkpt>
      <trkpt lat="45.0395" lon="0.38634">
        <ele>83.77</ele>
        <time>2015-06-17T11:07:10Z</time>
      </trkpt>
      <trkpt lat="45.03953" lon="0.38637">
        <ele>85.21</ele>
        <time>2015-06-17T11:07:18Z</time>
      </trkpt>
      <trkpt lat="45.03968" lon="0.38647">
        <ele>85.69</ele>
        <time>2015-06-17T11:07:32Z</time>
      </trkpt>
      <trkpt lat="45.03972" lon="0.3865">
        <ele>85.69</ele>
        <time>2015-06-17T11:07:42Z</time>
      </trkpt>
      <trkpt lat="45.03973" lon="0.38651">
        <ele>85.69</ele>
        <time>2015-06-17T11:07:43Z</time>
      </trkpt>
      <trkpt lat="45.03983" lon="0.38663">
        <ele>86.18</ele>
        <time>2015-06-17T11:07:57Z</time>
      </trkpt>
      <trkpt lat="45.03996" lon="0.38679">
        <ele>86.18</ele>
        <time>2015-06-17T11:08:11Z</time>
      </trkpt>
      <trkpt lat="45.0401" lon="0.38698">
        <ele>82.81</ele>
        <time>2015-06-17T11:08:26Z</time>
      </trkpt>
      <trkpt lat="45.04012" lon="0.387">
        <ele>82.81</ele>
        <time>2015-06-17T11:08:28Z</time>
      </trkpt>
      <trkpt lat="45.04018" lon="0.38704">
        <ele>82.33</ele>
        <time>2015-06-17T11:08:33Z</time>
      </trkpt>
      <trkpt lat="45.0404" lon="0.38699">
        <ele>81.85</ele>
        <time>2015-06-17T11:08:50Z</time>
      </trkpt>
      <trkpt lat="45.04054" lon="0.38682">
        <ele>81.37</ele>
        <time>2015-06-17T11:09:04Z</time>
      </trkpt>
      <trkpt lat="45.04057" lon="0.38677">
        <ele>80.89</ele>
        <time>2015-06-17T11:09:08Z</time>
      </trkpt>
      <trkpt lat="45.04071" lon="0.38665">
        <ele>79.93</ele>
        <time>2015-06-17T11:09:22Z</time>
      </trkpt>
      <trkpt lat="45.04087" lon="0.38645">
        <ele>79.45</ele>
        <time>2015-06-17T11:09:37Z</time>
      </trkpt>
      <trkpt lat="45.04097" lon="0.38632">
        <ele>78.48</ele>
        <time>2015-06-17T11:09:47Z</time>
      </trkpt>
      <trkpt lat="45.041" lon="0.38628">
        <ele>78.48</ele>
        <time>2015-06-17T11:09:50Z</time>
      </trkpt>
      <trkpt lat="45.04104" lon="0.38621">
        <ele>78.48</ele>
        <time>2015-06-17T11:09:55Z</time>
      </trkpt>
      <trkpt lat="45.0411" lon="0.38613">
        <ele>76.56</ele>
        <time>2015-06-17T11:10:01Z</time>
      </trkpt>
      <trkpt lat="45.04115" lon="0.3861">
        <ele>78</ele>
        <time>2015-06-17T11:10:05Z</time>
      </trkpt>
      <trkpt lat="45.04123" lon="0.38603">
        <ele>76.08</ele>
        <time>2015-06-17T11:10:13Z</time>
      </trkpt>
      <trkpt lat="45.04127" lon="0.386">
        <ele>76.08</ele>
        <time>2015-06-17T11:10:16Z</time>
      </trkpt>
      <trkpt lat="45.04142" lon="0.38588">
        <ele>75.12</ele>
        <time>2015-06-17T11:10:29Z</time>
      </trkpt>
      <trkpt lat="45.04143" lon="0.38588">
        <ele>75.12</ele>
        <time>2015-06-17T11:10:30Z</time>
      </trkpt>
      <trkpt lat="45.04169" lon="0.38569">
        <ele>73.68</ele>
        <time>2015-06-17T11:10:50Z</time>
      </trkpt>
      <trkpt lat="45.04176" lon="0.38563">
        <ele>73.68</ele>
        <time>2015-06-17T11:11:04Z</time>
      </trkpt>
      <trkpt lat="45.04173" lon="0.38563">
        <ele>73.68</ele>
        <time>2015-06-17T11:11:16Z</time>
      </trkpt>
      <trkpt lat="45.04175" lon="0.38561">
        <ele>73.68</ele>
        <time>2015-06-17T11:11:46Z</time>
      </trkpt>
      <trkpt lat="45.04175" lon="0.38561">
        <ele>73.68</ele>
        <time>2015-06-17T11:12:11Z</time>
      </trkpt>
      <trkpt lat="45.04176" lon="0.38563">
        <ele>73.68</ele>
        <time>2015-06-17T11:12:30Z</time>
      </trkpt>
      <trkpt lat="45.04176" lon="0.38568">
        <ele>73.68</ele>
        <time>2015-06-17T11:13:00Z</time>
      </trkpt>
      <trkpt lat="45.04177" lon="0.38566">
        <ele>73.2</ele>
        <time>2015-06-17T11:13:15Z</time>
      </trkpt>
      <trkpt lat="45.0418" lon="0.38565">
        <ele>73.2</ele>
        <time>2015-06-17T11:13:34Z</time>
      </trkpt>
      <trkpt lat="45.04178" lon="0.38567">
        <ele>73.2</ele>
        <time>2015-06-17T11:13:42Z</time>
      </trkpt>
      <trkpt lat="45.04192" lon="0.38568">
        <ele>72.72</ele>
        <time>2015-06-17T11:13:54Z</time>
      </trkpt>
      <trkpt lat="45.04203" lon="0.38574">
        <ele>71.27</ele>
        <time>2015-06-17T11:14:03Z</time>
      </trkpt>
      <trkpt lat="45.04207" lon="0.38576">
        <ele>71.27</ele>
        <time>2015-06-17T11:14:07Z</time>
      </trkpt>
      <trkpt lat="45.04222" lon="0.38581">
        <ele>72.24</ele>
        <time>2015-06-17T11:14:19Z</time>
      </trkpt>
      <trkpt lat="45.04241" lon="0.38588">
        <ele>72.72</ele>
        <time>2015-06-17T11:14:35Z</time>
      </trkpt>
      <trkpt lat="45.04257" lon="0.38592">
        <ele>73.68</ele>
        <time>2015-06-17T11:14:50Z</time>
      </trkpt>
      <trkpt lat="45.04267" lon="0.38594">
        <ele>74.16</ele>
        <time>2015-06-17T11:15:03Z</time>
      </trkpt>
      <trkpt lat="45.04281" lon="0.38598">
        <ele>74.16</ele>
        <time>2015-06-17T11:15:15Z</time>
      </trkpt>
      <trkpt lat="45.04291" lon="0.38601">
        <ele>74.64</ele>
        <time>2015-06-17T11:15:27Z</time>
      </trkpt>
      <trkpt lat="45.04303" lon="0.38603">
        <ele>75.12</ele>
        <time>2015-06-17T11:15:38Z</time>
      </trkpt>
      <trkpt lat="45.04325" lon="0.38609">
        <ele>75.12</ele>
        <time>2015-06-17T11:15:54Z</time>
      </trkpt>
      <trkpt lat="45.0434" lon="0.38608">
        <ele>75.6</ele>
        <time>2015-06-17T11:16:07Z</time>
      </trkpt>
      <trkpt lat="45.04352" lon="0.38606">
        <ele>75.6</ele>
        <time>2015-06-17T11:16:19Z</time>
      </trkpt>
      <trkpt lat="45.04375" lon="0.38603">
        <ele>75.6</ele>
        <time>2015-06-17T11:16:34Z</time>
      </trkpt>
      <trkpt lat="45.04377" lon="0.38601">
        <ele>76.08</ele>
        <time>2015-06-17T11:16:37Z</time>
      </trkpt>
      <trkpt lat="45.04395" lon="0.38591">
        <ele>76.08</ele>
        <time>2015-06-17T11:16:52Z</time>
      </trkpt>
      <trkpt lat="45.04418" lon="0.38591">
        <ele>76.08</ele>
        <time>2015-06-17T11:17:08Z</time>
      </trkpt>
      <trkpt lat="45.0442" lon="0.38588">
        <ele>76.08</ele>
        <time>2015-06-17T11:17:20Z</time>
      </trkpt>
      <trkpt lat="45.04427" lon="0.38593">
        <ele>76.08</ele>
        <time>2015-06-17T11:17:33Z</time>
      </trkpt>
      <trkpt lat="45.04428" lon="0.38597">
        <ele>76.08</ele>
        <time>2015-06-17T11:18:00Z</time>
      </trkpt>
      <trkpt lat="45.04427" lon="0.38593">
        <ele>74.64</ele>
        <time>2015-06-17T11:18:17Z</time>
      </trkpt>
      <trkpt lat="45.04429" lon="0.38593">
        <ele>74.64</ele>
        <time>2015-06-17T11:18:48Z</time>
      </trkpt>
      <trkpt lat="45.04428" lon="0.38593">
        <ele>74.64</ele>
        <time>2015-06-17T11:19:18Z</time>
      </trkpt>
      <trkpt lat="45.04431" lon="0.38596">
        <ele>74.64</ele>
        <time>2015-06-17T11:19:47Z</time>
      </trkpt>
      <trkpt lat="45.04432" lon="0.38588">
        <ele>74.64</ele>
        <time>2015-06-17T11:20:04Z</time>
      </trkpt>
      <trkpt lat="45.04432" lon="0.38589">
        <ele>74.64</ele>
        <time>2015-06-17T11:20:06Z</time>
      </trkpt>
      <trkpt lat="45.0443" lon="0.38593">
        <ele>76.08</ele>
        <time>2015-06-17T11:20:12Z</time>
      </trkpt>
      <trkpt lat="45.04429" lon="0.38595">
        <ele>76.08</ele>
        <time>2015-06-17T11:20:30Z</time>
      </trkpt>
      <trkpt lat="45.04428" lon="0.38592">
        <ele>76.08</ele>
        <time>2015-06-17T11:20:58Z</time>
      </trkpt>
      <trkpt lat="45.0443" lon="0.38596">
        <ele>75.12</ele>
        <time>2015-06-17T11:21:24Z</time>
      </trkpt>
      <trkpt lat="45.04429" lon="0.38596">
        <ele>75.12</ele>
        <time>2015-06-17T11:21:47Z</time>
      </trkpt>
      <trkpt lat="45.04427" lon="0.38596">
        <ele>75.12</ele>
        <time>2015-06-17T11:22:10Z</time>
      </trkpt>
      <trkpt lat="45.04426" lon="0.38599">
        <ele>75.12</ele>
        <time>2015-06-17T11:22:28Z</time>
      </trkpt>
      <trkpt lat="45.0443" lon="0.38603">
        <ele>75.12</ele>
        <time>2015-06-17T11:22:32Z</time>
      </trkpt>
      <trkpt lat="45.04437" lon="0.38606">
        <ele>75.12</ele>
        <time>2015-06-17T11:22:39Z</time>
      </trkpt>
      <trkpt lat="45.04448" lon="0.38611">
        <ele>73.68</ele>
        <time>2015-06-17T11:22:48Z</time>
      </trkpt>
      <trkpt lat="45.04456" lon="0.38619">
        <ele>73.68</ele>
        <time>2015-06-17T11:22:59Z</time>
      </trkpt>
      <trkpt lat="45.04465" lon="0.38626">
        <ele>73.68</ele>
        <time>2015-06-17T11:23:09Z</time>
      </trkpt>
      <trkpt lat="45.04473" lon="0.38632">
        <ele>75.12</ele>
        <time>2015-06-17T11:23:16Z</time>
      </trkpt>
      <trkpt lat="45.04479" lon="0.38637">
        <ele>75.6</ele>
        <time>2015-06-17T11:23:21Z</time>
      </trkpt>
      <trkpt lat="45.04493" lon="0.38647">
        <ele>76.56</ele>
        <time>2015-06-17T11:23:34Z</time>
      </trkpt>
      <trkpt lat="45.04495" lon="0.38647">
        <ele>76.56</ele>
        <time>2015-06-17T11:23:36Z</time>
      </trkpt>
      <trkpt lat="45.04509" lon="0.38665">
        <ele>76.56</ele>
        <time>2015-06-17T11:23:51Z</time>
      </trkpt>
      <trkpt lat="45.04518" lon="0.38682">
        <ele>76.56</ele>
        <time>2015-06-17T11:24:03Z</time>
      </trkpt>
      <trkpt lat="45.04522" lon="0.38691">
        <ele>77.52</ele>
        <time>2015-06-17T11:24:10Z</time>
      </trkpt>
      <trkpt lat="45.04527" lon="0.38701">
        <ele>78</ele>
        <time>2015-06-17T11:24:17Z</time>
      </trkpt>
      <trkpt lat="45.04535" lon="0.38719">
        <ele>78.48</ele>
        <time>2015-06-17T11:24:33Z</time>
      </trkpt>
      <trkpt lat="45.04537" lon="0.38721">
        <ele>78.48</ele>
        <time>2015-06-17T11:24:44Z</time>
      </trkpt>
      <trkpt lat="45.04537" lon="0.38719">
        <ele>78.48</ele>
        <time>2015-06-17T11:24:57Z</time>
      </trkpt>
      <trkpt lat="45.04537" lon="0.38722">
        <ele>78.48</ele>
        <time>2015-06-17T11:25:14Z</time>
      </trkpt>
      <trkpt lat="45.04537" lon="0.38724">
        <ele>78.48</ele>
        <time>2015-06-17T11:25:28Z</time>
      </trkpt>
      <trkpt lat="45.04539" lon="0.38726">
        <ele>78.48</ele>
        <time>2015-06-17T11:25:30Z</time>
      </trkpt>
      <trkpt lat="45.04546" lon="0.38748">
        <ele>78.48</ele>
        <time>2015-06-17T11:25:44Z</time>
      </trkpt>
      <trkpt lat="45.0455" lon="0.38755">
        <ele>78.48</ele>
        <time>2015-06-17T11:25:50Z</time>
      </trkpt>
      <trkpt lat="45.04557" lon="0.38774">
        <ele>78.97</ele>
        <time>2015-06-17T11:26:03Z</time>
      </trkpt>
      <trkpt lat="45.04558" lon="0.38776">
        <ele>78.97</ele>
        <time>2015-06-17T11:26:05Z</time>
      </trkpt>
      <trkpt lat="45.04567" lon="0.388">
        <ele>79.45</ele>
        <time>2015-06-17T11:26:21Z</time>
      </trkpt>
      <trkpt lat="45.04574" lon="0.38818">
        <ele>79.45</ele>
        <time>2015-06-17T11:26:33Z</time>
      </trkpt>
      <trkpt lat="45.04582" lon="0.38838">
        <ele>79.93</ele>
        <time>2015-06-17T11:26:47Z</time>
      </trkpt>
      <trkpt lat="45.04593" lon="0.38862">
        <ele>80.41</ele>
        <time>2015-06-17T11:27:04Z</time>
      </trkpt>
      <trkpt lat="45.04594" lon="0.38867">
        <ele>80.41</ele>
        <time>2015-06-17T11:27:07Z</time>
      </trkpt>
      <trkpt lat="45.04606" lon="0.38897">
        <ele>80.41</ele>
        <time>2015-06-17T11:27:27Z</time>
      </trkpt>
      <trkpt lat="45.04613" lon="0.38916">
        <ele>80.41</ele>
        <time>2015-06-17T11:27:40Z</time>
      </trkpt>
      <trkpt lat="45.04619" lon="0.38932">
        <ele>80.41</ele>
        <time>2015-06-17T11:27:51Z</time>
      </trkpt>
      <trkpt lat="45.04623" lon="0.38939">
        <ele>80.89</ele>
        <time>2015-06-17T11:27:57Z</time>
      </trkpt>
      <trkpt lat="45.04631" lon="0.3896">
        <ele>81.85</ele>
        <time>2015-06-17T11:28:10Z</time>
      </trkpt>
      <trkpt lat="45.04632" lon="0.38965">
        <ele>81.85</ele>
        <time>2015-06-17T11:28:14Z</time>
      </trkpt>
      <trkpt lat="45.04637" lon="0.38987">
        <ele>82.81</ele>
        <time>2015-06-17T11:28:29Z</time>
      </trkpt>
      <trkpt lat="45.04639" lon="0.3899">
        <ele>82.81</ele>
        <time>2015-06-17T11:28:42Z</time>
      </trkpt>
      <trkpt lat="45.04638" lon="0.3899">
        <ele>82.81</ele>
        <time>2015-06-17T11:28:44Z</time>
      </trkpt>
      <trkpt lat="45.04637" lon="0.3899">
        <ele>82.81</ele>
        <time>2015-06-17T11:29:00Z</time>
      </trkpt>
      <trkpt lat="45.04637" lon="0.38992">
        <ele>82.81</ele>
        <time>2015-06-17T11:29:21Z</time>
      </trkpt>
      <trkpt lat="45.04637" lon="0.38994">
        <ele>82.81</ele>
        <time>2015-06-17T11:29:42Z</time>
      </trkpt>
      <trkpt lat="45.04636" lon="0.38993">
        <ele>82.81</ele>
        <time>2015-06-17T11:30:11Z</time>
      </trkpt>
      <trkpt lat="45.04636" lon="0.38989">
        <ele>83.29</ele>
        <time>2015-06-17T11:30:40Z</time>
      </trkpt>
      <trkpt lat="45.04636" lon="0.38992">
        <ele>82.81</ele>
        <time>2015-06-17T11:31:15Z</time>
      </trkpt>
      <trkpt lat="45.04635" lon="0.38991">
        <ele>82.81</ele>
        <time>2015-06-17T11:31:36Z</time>
      </trkpt>
      <trkpt lat="45.04638" lon="0.3899">
        <ele>82.81</ele>
        <time>2015-06-17T11:31:45Z</time>
      </trkpt>
      <trkpt lat="45.04636" lon="0.38991">
        <ele>82.81</ele>
        <time>2015-06-17T11:31:47Z</time>
      </trkpt>
      <trkpt lat="45.04628" lon="0.38998">
        <ele>82.81</ele>
        <time>2015-06-17T11:31:55Z</time>
      </trkpt>
      <trkpt lat="45.04622" lon="0.39003">
        <ele>82.81</ele>
        <time>2015-06-17T11:32:01Z</time>
      </trkpt>
      <trkpt lat="45.0462" lon="0.39005">
        <ele>82.81</ele>
        <time>2015-06-17T11:32:04Z</time>
      </trkpt>
      <trkpt lat="45.04614" lon="0.39008">
        <ele>82.81</ele>
        <time>2015-06-17T11:32:08Z</time>
      </trkpt>
      <trkpt lat="45.04601" lon="0.39014">
        <ele>81.85</ele>
        <time>2015-06-17T11:32:18Z</time>
      </trkpt>
      <trkpt lat="45.04591" lon="0.39023">
        <ele>81.85</ele>
        <time>2015-06-17T11:32:30Z</time>
      </trkpt>
      <trkpt lat="45.0459" lon="0.39023">
        <ele>81.85</ele>
        <time>2015-06-17T11:32:31Z</time>
      </trkpt>
      <trkpt lat="45.04565" lon="0.39044">
        <ele>81.85</ele>
        <time>2015-06-17T11:32:52Z</time>
      </trkpt>
      <trkpt lat="45.04561" lon="0.39046">
        <ele>81.85</ele>
        <time>2015-06-17T11:32:57Z</time>
      </trkpt>
      <trkpt lat="45.04556" lon="0.39049">
        <ele>81.85</ele>
        <time>2015-06-17T11:33:01Z</time>
      </trkpt>
      <trkpt lat="45.04528" lon="0.39067">
        <ele>83.29</ele>
        <time>2015-06-17T11:33:21Z</time>
      </trkpt>
      <trkpt lat="45.04504" lon="0.39083">
        <ele>83.29</ele>
        <time>2015-06-17T11:33:38Z</time>
      </trkpt>
      <trkpt lat="45.04482" lon="0.39098">
        <ele>83.29</ele>
        <time>2015-06-17T11:33:55Z</time>
      </trkpt>
      <trkpt lat="45.04463" lon="0.39109">
        <ele>84.73</ele>
        <time>2015-06-17T11:34:11Z</time>
      </trkpt>
      <trkpt lat="45.04456" lon="0.39114">
        <ele>84.73</ele>
        <time>2015-06-17T11:34:24Z</time>
      </trkpt>
      <trkpt lat="45.04448" lon="0.39119">
        <ele>84.73</ele>
        <time>2015-06-17T11:34:31Z</time>
      </trkpt>
      <trkpt lat="45.04446" lon="0.39116">
        <ele>85.69</ele>
        <time>2015-06-17T11:34:44Z</time>
      </trkpt>
      <trkpt lat="45.04446" lon="0.39119">
        <ele>86.18</ele>
        <time>2015-06-17T11:34:56Z</time>
      </trkpt>
      <trkpt lat="45.04444" lon="0.39121">
        <ele>86.18</ele>
        <time>2015-06-17T11:35:10Z</time>
      </trkpt>
      <trkpt lat="45.04445" lon="0.39119">
        <ele>86.18</ele>
        <time>2015-06-17T11:35:26Z</time>
      </trkpt>
      <trkpt lat="45.04445" lon="0.39118">
        <ele>86.18</ele>
        <time>2015-06-17T11:35:43Z</time>
      </trkpt>
      <trkpt lat="45.04445" lon="0.39118">
        <ele>86.18</ele>
        <time>2015-06-17T11:35:57Z</time>
      </trkpt>
      <trkpt lat="45.04444" lon="0.39118">
        <ele>86.18</ele>
        <time>2015-06-17T11:36:15Z</time>
      </trkpt>
      <trkpt lat="45.04445" lon="0.39118">
        <ele>86.18</ele>
        <time>2015-06-17T11:36:19Z</time>
      </trkpt>
      <trkpt lat="45.04447" lon="0.39121">
        <ele>86.18</ele>
        <time>2015-06-17T11:36:23Z</time>
      </trkpt>
      <trkpt lat="45.04447" lon="0.39125">
        <ele>84.73</ele>
        <time>2015-06-17T11:36:26Z</time>
      </trkpt>
      <trkpt lat="45.04445" lon="0.39124">
        <ele>84.73</ele>
        <time>2015-06-17T11:36:48Z</time>
      </trkpt>
      <trkpt lat="45.04445" lon="0.39121">
        <ele>84.73</ele>
        <time>2015-06-17T11:37:15Z</time>
      </trkpt>
      <trkpt lat="45.04445" lon="0.39123">
        <ele>84.73</ele>
        <time>2015-06-17T11:37:49Z</time>
      </trkpt>
      <trkpt lat="45.04444" lon="0.39119">
        <ele>84.73</ele>
        <time>2015-06-17T11:38:00Z</time>
      </trkpt>
      <trkpt lat="45.04445" lon="0.39119">
        <ele>86.18</ele>
        <time>2015-06-17T11:38:03Z</time>
      </trkpt>
      <trkpt lat="45.04446" lon="0.39122">
        <ele>86.18</ele>
        <time>2015-06-17T11:38:06Z</time>
      </trkpt>
      <trkpt lat="45.04436" lon="0.3913">
        <ele>86.18</ele>
        <time>2015-06-17T11:38:17Z</time>
      </trkpt>
      <trkpt lat="45.04431" lon="0.39133">
        <ele>86.18</ele>
        <time>2015-06-17T11:38:25Z</time>
      </trkpt>
      <trkpt lat="45.04416" lon="0.39138">
        <ele>86.18</ele>
        <time>2015-06-17T11:38:39Z</time>
      </trkpt>
      <trkpt lat="45.04397" lon="0.39144">
        <ele>86.66</ele>
        <time>2015-06-17T11:38:56Z</time>
      </trkpt>
      <trkpt lat="45.04396" lon="0.39144">
        <ele>86.66</ele>
        <time>2015-06-17T11:38:57Z</time>
      </trkpt>
      <trkpt lat="45.0438" lon="0.39159">
        <ele>87.62</ele>
        <time>2015-06-17T11:39:14Z</time>
      </trkpt>
      <trkpt lat="45.04369" lon="0.39169">
        <ele>88.1</ele>
        <time>2015-06-17T11:39:27Z</time>
      </trkpt>
      <trkpt lat="45.0436" lon="0.39179">
        <ele>88.58</ele>
        <time>2015-06-17T11:39:38Z</time>
      </trkpt>
      <trkpt lat="45.04352" lon="0.39187">
        <ele>89.06</ele>
        <time>2015-06-17T11:39:46Z</time>
      </trkpt>
      <trkpt lat="45.04351" lon="0.3919">
        <ele>89.54</ele>
        <time>2015-06-17T11:39:48Z</time>
      </trkpt>
      <trkpt lat="45.04341" lon="0.39204">
        <ele>90.02</ele>
        <time>2015-06-17T11:40:01Z</time>
      </trkpt>
      <trkpt lat="45.04339" lon="0.39206">
        <ele>90.02</ele>
        <time>2015-06-17T11:40:03Z</time>
      </trkpt>
      <trkpt lat="45.04337" lon="0.39208">
        <ele>90.02</ele>
        <time>2015-06-17T11:40:05Z</time>
      </trkpt>
      <trkpt lat="45.04327" lon="0.39225">
        <ele>90.98</ele>
        <time>2015-06-17T11:40:19Z</time>
      </trkpt>
      <trkpt lat="45.04315" lon="0.39245">
        <ele>90.98</ele>
        <time>2015-06-17T11:40:35Z</time>
      </trkpt>
      <trkpt lat="45.04303" lon="0.39266">
        <ele>90.98</ele>
        <time>2015-06-17T11:40:51Z</time>
      </trkpt>
      <trkpt lat="45.0429" lon="0.39279">
        <ele>91.46</ele>
        <time>2015-06-17T11:41:04Z</time>
      </trkpt>
      <trkpt lat="45.04288" lon="0.39284">
        <ele>91.46</ele>
        <time>2015-06-17T11:41:16Z</time>
      </trkpt>
      <trkpt lat="45.04286" lon="0.39283">
        <ele>91.94</ele>
        <time>2015-06-17T11:41:34Z</time>
      </trkpt>
      <trkpt lat="45.04286" lon="0.39279">
        <ele>91.94</ele>
        <time>2015-06-17T11:42:02Z</time>
      </trkpt>
      <trkpt lat="45.04285" lon="0.39278">
        <ele>91.46</ele>
        <time>2015-06-17T11:42:20Z</time>
      </trkpt>
      <trkpt lat="45.04286" lon="0.39278">
        <ele>91.46</ele>
        <time>2015-06-17T11:42:41Z</time>
      </trkpt>
      <trkpt lat="45.04287" lon="0.39278">
        <ele>91.46</ele>
        <time>2015-06-17T11:43:07Z</time>
      </trkpt>
      <trkpt lat="45.04286" lon="0.39282">
        <ele>90.98</ele>
        <time>2015-06-17T11:43:26Z</time>
      </trkpt>
      <trkpt lat="45.04284" lon="0.39284">
        <ele>90.98</ele>
        <time>2015-06-17T11:43:28Z</time>
      </trkpt>
      <trkpt lat="45.0427" lon="0.39288">
        <ele>90.98</ele>
        <time>2015-06-17T11:43:40Z</time>
      </trkpt>
      <trkpt lat="45.04261" lon="0.39288">
        <ele>90.98</ele>
        <time>2015-06-17T11:43:54Z</time>
      </trkpt>
      <trkpt lat="45.04259" lon="0.39289">
        <ele>90.5</ele>
        <time>2015-06-17T11:44:19Z</time>
      </trkpt>
      <trkpt lat="45.04259" lon="0.39293">
        <ele>90.5</ele>
        <time>2015-06-17T11:44:35Z</time>
      </trkpt>
      <trkpt lat="45.04261" lon="0.39296">
        <ele>91.94</ele>
        <time>2015-06-17T11:44:50Z</time>
      </trkpt>
      <trkpt lat="45.04262" lon="0.39296">
        <ele>90.5</ele>
        <time>2015-06-17T11:45:14Z</time>
      </trkpt>
      <trkpt lat="45.04251" lon="0.39288">
        <ele>90.5</ele>
        <time>2015-06-17T11:45:35Z</time>
      </trkpt>
      <trkpt lat="45.04244" lon="0.39293">
        <ele>90.5</ele>
        <time>2015-06-17T11:45:59Z</time>
      </trkpt>
      <trkpt lat="45.04239" lon="0.39294">
        <ele>90.5</ele>
        <time>2015-06-17T11:46:12Z</time>
      </trkpt>
      <trkpt lat="45.04235" lon="0.39298">
        <ele>90.5</ele>
        <time>2015-06-17T11:46:31Z</time>
      </trkpt>
      <trkpt lat="45.04233" lon="0.39299">
        <ele>90.5</ele>
        <time>2015-06-17T11:46:34Z</time>
      </trkpt>
      <trkpt lat="45.04226" lon="0.39301">
        <ele>91.94</ele>
        <time>2015-06-17T11:46:44Z</time>
      </trkpt>
      <trkpt lat="45.04222" lon="0.39302">
        <ele>92.42</ele>
        <time>2015-06-17T11:47:01Z</time>
      </trkpt>
      <trkpt lat="45.04217" lon="0.39303">
        <ele>92.42</ele>
        <time>2015-06-17T11:47:22Z</time>
      </trkpt>
      <trkpt lat="45.04212" lon="0.39302">
        <ele>92.9</ele>
        <time>2015-06-17T11:47:37Z</time>
      </trkpt>
      <trkpt lat="45.04207" lon="0.39303">
        <ele>93.39</ele>
        <time>2015-06-17T11:47:52Z</time>
      </trkpt>
      <trkpt lat="45.04204" lon="0.39302">
        <ele>92.42</ele>
        <time>2015-06-17T11:48:03Z</time>
      </trkpt>
      <trkpt lat="45.04203" lon="0.39302">
        <ele>94.83</ele>
        <time>2015-06-17T11:48:04Z</time>
      </trkpt>
      <trkpt lat="45.042" lon="0.39304">
        <ele>93.39</ele>
        <time>2015-06-17T11:48:11Z</time>
      </trkpt>
      <trkpt lat="45.04198" lon="0.39305">
        <ele>93.39</ele>
        <time>2015-06-17T11:48:13Z</time>
      </trkpt>
      <trkpt lat="45.04195" lon="0.39306">
        <ele>93.39</ele>
        <time>2015-06-17T11:48:16Z</time>
      </trkpt>
      <trkpt lat="45.04189" lon="0.39307">
        <ele>93.39</ele>
        <time>2015-06-17T11:48:22Z</time>
      </trkpt>
      <trkpt lat="45.04183" lon="0.39311">
        <ele>94.83</ele>
        <time>2015-06-17T11:48:29Z</time>
      </trkpt>
      <trkpt lat="45.04174" lon="0.39316">
        <ele>93.39</ele>
        <time>2015-06-17T11:48:40Z</time>
      </trkpt>
      <trkpt lat="45.04163" lon="0.3932">
        <ele>93.39</ele>
        <time>2015-06-17T11:48:54Z</time>
      </trkpt>
      <trkpt lat="45.04149" lon="0.39326">
        <ele>93.39</ele>
        <time>2015-06-17T11:49:09Z</time>
      </trkpt>
      <trkpt lat="45.04134" lon="0.39331">
        <ele>93.39</ele>
        <time>2015-06-17T11:49:24Z</time>
      </trkpt>
      <trkpt lat="45.04128" lon="0.39338">
        <ele>94.83</ele>
        <time>2015-06-17T11:49:37Z</time>
      </trkpt>
      <trkpt lat="45.04128" lon="0.39341">
        <ele>94.83</ele>
        <time>2015-06-17T11:49:48Z</time>
      </trkpt>
      <trkpt lat="45.04131" lon="0.39342">
        <ele>94.83</ele>
        <time>2015-06-17T11:50:04Z</time>
      </trkpt>
      <trkpt lat="45.04133" lon="0.39339">
        <ele>94.83</ele>
        <time>2015-06-17T11:50:17Z</time>
      </trkpt>
      <trkpt lat="45.04131" lon="0.39342">
        <ele>94.83</ele>
        <time>2015-06-17T11:50:31Z</time>
      </trkpt>
      <trkpt lat="45.04131" lon="0.39345">
        <ele>94.83</ele>
        <time>2015-06-17T11:50:48Z</time>
      </trkpt>
      <trkpt lat="45.04129" lon="0.3934">
        <ele>94.83</ele>
        <time>2015-06-17T11:51:00Z</time>
      </trkpt>
      <trkpt lat="45.04133" lon="0.39338">
        <ele>94.83</ele>
        <time>2015-06-17T11:51:11Z</time>
      </trkpt>
      <trkpt lat="45.04133" lon="0.39341">
        <ele>94.83</ele>
        <time>2015-06-17T11:51:26Z</time>
      </trkpt>
      <trkpt lat="45.04128" lon="0.39339">
        <ele>94.83</ele>
        <time>2015-06-17T11:51:41Z</time>
      </trkpt>
      <trkpt lat="45.04131" lon="0.39341">
        <ele>94.83</ele>
        <time>2015-06-17T11:51:59Z</time>
      </trkpt>
      <trkpt lat="45.04133" lon="0.39337">
        <ele>94.83</ele>
        <time>2015-06-17T11:52:10Z</time>
      </trkpt>
      <trkpt lat="45.04133" lon="0.39336">
        <ele>94.83</ele>
        <time>2015-06-17T11:52:23Z</time>
      </trkpt>
      <trkpt lat="45.04134" lon="0.39336">
        <ele>94.83</ele>
        <time>2015-06-17T11:52:39Z</time>
      </trkpt>
      <trkpt lat="45.04132" lon="0.39338">
        <ele>94.83</ele>
        <time>2015-06-17T11:52:56Z</time>
      </trkpt>
      <trkpt lat="45.0413" lon="0.3934">
        <ele>94.83</ele>
        <time>2015-06-17T11:53:14Z</time>
      </trkpt>
      <trkpt lat="45.0413" lon="0.39343">
        <ele>94.83</ele>
        <time>2015-06-17T11:53:31Z</time>
      </trkpt>
      <trkpt lat="45.0413" lon="0.39344">
        <ele>94.83</ele>
        <time>2015-06-17T11:53:51Z</time>
      </trkpt>
      <trkpt lat="45.04128" lon="0.3934">
        <ele>95.79</ele>
        <time>2015-06-17T11:54:09Z</time>
      </trkpt>
      <trkpt lat="45.04127" lon="0.39336">
        <ele>94.35</ele>
        <time>2015-06-17T11:54:23Z</time>
      </trkpt>
      <trkpt lat="45.04131" lon="0.39337">
        <ele>94.35</ele>
        <time>2015-06-17T11:54:47Z</time>
      </trkpt>
      <trkpt lat="45.04127" lon="0.39334">
        <ele>93.87</ele>
        <time>2015-06-17T11:55:15Z</time>
      </trkpt>
      <trkpt lat="45.04127" lon="0.39335">
        <ele>93.39</ele>
        <time>2015-06-17T11:55:43Z</time>
      </trkpt>
      <trkpt lat="45.04127" lon="0.39341">
        <ele>95.31</ele>
        <time>2015-06-17T11:55:54Z</time>
      </trkpt>
      <trkpt lat="45.0413" lon="0.39335">
        <ele>93.87</ele>
        <time>2015-06-17T11:56:14Z</time>
      </trkpt>
      <trkpt lat="45.0413" lon="0.39335">
        <ele>94.83</ele>
        <time>2015-06-17T11:56:16Z</time>
      </trkpt>
      <trkpt lat="45.04127" lon="0.39335">
        <ele>93.87</ele>
        <time>2015-06-17T11:56:48Z</time>
      </trkpt>
      <trkpt lat="45.04132" lon="0.39338">
        <ele>93.39</ele>
        <time>2015-06-17T11:57:07Z</time>
      </trkpt>
      <trkpt lat="45.0413" lon="0.39339">
        <ele>93.39</ele>
        <time>2015-06-17T11:57:34Z</time>
      </trkpt>
      <trkpt lat="45.04129" lon="0.39336">
        <ele>93.39</ele>
        <time>2015-06-17T11:57:48Z</time>
      </trkpt>
      <trkpt lat="45.04129" lon="0.39334">
        <ele>93.39</ele>
        <time>2015-06-17T11:58:05Z</time>
      </trkpt>
      <trkpt lat="45.04129" lon="0.39332">
        <ele>93.39</ele>
        <time>2015-06-17T11:58:25Z</time>
      </trkpt>
      <trkpt lat="45.04128" lon="0.39337">
        <ele>93.39</ele>
        <time>2015-06-17T11:58:52Z</time>
      </trkpt>
      <trkpt lat="45.04128" lon="0.39337">
        <ele>92.9</ele>
        <time>2015-06-17T11:59:18Z</time>
      </trkpt>
      <trkpt lat="45.04131" lon="0.39333">
        <ele>92.42</ele>
        <time>2015-06-17T11:59:38Z</time>
      </trkpt>
      <trkpt lat="45.04135" lon="0.39329">
        <ele>92.9</ele>
        <time>2015-06-17T12:00:06Z</time>
      </trkpt>
      <trkpt lat="45.04132" lon="0.3933">
        <ele>92.9</ele>
        <time>2015-06-17T12:00:33Z</time>
      </trkpt>
      <trkpt lat="45.0413" lon="0.39331">
        <ele>92.9</ele>
        <time>2015-06-17T12:00:54Z</time>
      </trkpt>
      <trkpt lat="45.04128" lon="0.39331">
        <ele>92.9</ele>
        <time>2015-06-17T12:01:16Z</time>
      </trkpt>
      <trkpt lat="45.04129" lon="0.39337">
        <ele>92.9</ele>
        <time>2015-06-17T12:01:36Z</time>
      </trkpt>
      <trkpt lat="45.04126" lon="0.3934">
        <ele>93.39</ele>
        <time>2015-06-17T12:01:53Z</time>
      </trkpt>
      <trkpt lat="45.04115" lon="0.39343">
        <ele>93.39</ele>
        <time>2015-06-17T12:02:05Z</time>
      </trkpt>
      <trkpt lat="45.04099" lon="0.39348">
        <ele>93.39</ele>
        <time>2015-06-17T12:02:17Z</time>
      </trkpt>
      <trkpt lat="45.04094" lon="0.39349">
        <ele>93.39</ele>
        <time>2015-06-17T12:02:22Z</time>
      </trkpt>
      <trkpt lat="45.04092" lon="0.39348">
        <ele>92.9</ele>
        <time>2015-06-17T12:02:24Z</time>
      </trkpt>
      <trkpt lat="45.04086" lon="0.39348">
        <ele>92.9</ele>
        <time>2015-06-17T12:02:29Z</time>
      </trkpt>
      <trkpt lat="45.04077" lon="0.39347">
        <ele>92.9</ele>
        <time>2015-06-17T12:02:36Z</time>
      </trkpt>
      <trkpt lat="45.0407" lon="0.39347">
        <ele>92.9</ele>
        <time>2015-06-17T12:02:42Z</time>
      </trkpt>
      <trkpt lat="45.04063" lon="0.39348">
        <ele>92.9</ele>
        <time>2015-06-17T12:02:48Z</time>
      </trkpt>
      <trkpt lat="45.04048" lon="0.3936">
        <ele>92.9</ele>
        <time>2015-06-17T12:03:03Z</time>
      </trkpt>
      <trkpt lat="45.04039" lon="0.3937">
        <ele>92.42</ele>
        <time>2015-06-17T12:03:13Z</time>
      </trkpt>
      <trkpt lat="45.04029" lon="0.39387">
        <ele>92.42</ele>
        <time>2015-06-17T12:03:28Z</time>
      </trkpt>
      <trkpt lat="45.04024" lon="0.39396">
        <ele>92.42</ele>
        <time>2015-06-17T12:03:34Z</time>
      </trkpt>
      <trkpt lat="45.04019" lon="0.39404">
        <ele>92.42</ele>
        <time>2015-06-17T12:03:39Z</time>
      </trkpt>
      <trkpt lat="45.04014" lon="0.39413">
        <ele>92.42</ele>
        <time>2015-06-17T12:03:49Z</time>
      </trkpt>
      <trkpt lat="45.04008" lon="0.39421">
        <ele>92.42</ele>
        <time>2015-06-17T12:03:57Z</time>
      </trkpt>
      <trkpt lat="45.04001" lon="0.39434">
        <ele>95.31</ele>
        <time>2015-06-17T12:04:07Z</time>
      </trkpt>
      <trkpt lat="45.04" lon="0.39435">
        <ele>90.5</ele>
        <time>2015-06-17T12:04:08Z</time>
      </trkpt>
      <trkpt lat="45.03999" lon="0.39437">
        <ele>94.83</ele>
        <time>2015-06-17T12:04:09Z</time>
      </trkpt>
      <trkpt lat="45.03992" lon="0.39449">
        <ele>91.94</ele>
        <time>2015-06-17T12:04:21Z</time>
      </trkpt>
      <trkpt lat="45.03984" lon="0.39468">
        <ele>91.94</ele>
        <time>2015-06-17T12:04:34Z</time>
      </trkpt>
      <trkpt lat="45.03981" lon="0.39474">
        <ele>91.94</ele>
        <time>2015-06-17T12:04:38Z</time>
      </trkpt>
      <trkpt lat="45.03978" lon="0.39475">
        <ele>91.94</ele>
        <time>2015-06-17T12:04:52Z</time>
      </trkpt>
      <trkpt lat="45.03978" lon="0.39478">
        <ele>91.94</ele>
        <time>2015-06-17T12:05:10Z</time>
      </trkpt>
      <trkpt lat="45.03983" lon="0.39477">
        <ele>91.94</ele>
        <time>2015-06-17T12:05:43Z</time>
      </trkpt>
      <trkpt lat="45.03983" lon="0.39478">
        <ele>91.94</ele>
        <time>2015-06-17T12:06:10Z</time>
      </trkpt>
      <trkpt lat="45.03986" lon="0.39479">
        <ele>91.94</ele>
        <time>2015-06-17T12:06:43Z</time>
      </trkpt>
      <trkpt lat="45.0398" lon="0.39478">
        <ele>91.94</ele>
        <time>2015-06-17T12:07:07Z</time>
      </trkpt>
      <trkpt lat="45.03974" lon="0.39485">
        <ele>91.94</ele>
        <time>2015-06-17T12:07:35Z</time>
      </trkpt>
      <trkpt lat="45.03973" lon="0.39487">
        <ele>92.42</ele>
        <time>2015-06-17T12:07:37Z</time>
      </trkpt>
      <trkpt lat="45.0397" lon="0.39492">
        <ele>92.42</ele>
        <time>2015-06-17T12:07:41Z</time>
      </trkpt>
      <trkpt lat="45.03963" lon="0.39502">
        <ele>92.42</ele>
        <time>2015-06-17T12:07:56Z</time>
      </trkpt>
      <trkpt lat="45.0396" lon="0.39502">
        <ele>92.42</ele>
        <time>2015-06-17T12:08:08Z</time>
      </trkpt>
      <trkpt lat="45.0395" lon="0.39525">
        <ele>92.42</ele>
        <time>2015-06-17T12:08:21Z</time>
      </trkpt>
      <trkpt lat="45.03942" lon="0.39536">
        <ele>93.39</ele>
        <time>2015-06-17T12:08:29Z</time>
      </trkpt>
      <trkpt lat="45.0394" lon="0.39537">
        <ele>93.39</ele>
        <time>2015-06-17T12:08:32Z</time>
      </trkpt>
      <trkpt lat="45.03937" lon="0.39527">
        <ele>93.39</ele>
        <time>2015-06-17T12:08:40Z</time>
      </trkpt>
      <trkpt lat="45.03933" lon="0.39526">
        <ele>93.39</ele>
        <time>2015-06-17T12:08:45Z</time>
      </trkpt>
      <trkpt lat="45.03921" lon="0.3953">
        <ele>93.39</ele>
        <time>2015-06-17T12:08:59Z</time>
      </trkpt>
      <trkpt lat="45.0392" lon="0.39529">
        <ele>93.39</ele>
        <time>2015-06-17T12:09:05Z</time>
      </trkpt>
      <trkpt lat="45.03906" lon="0.39518">
        <ele>93.39</ele>
        <time>2015-06-17T12:09:19Z</time>
      </trkpt>
      <trkpt lat="45.03895" lon="0.39508">
        <ele>93.87</ele>
        <time>2015-06-17T12:09:30Z</time>
      </trkpt>
      <trkpt lat="45.03876" lon="0.39489">
        <ele>95.79</ele>
        <time>2015-06-17T12:09:48Z</time>
      </trkpt>
      <trkpt lat="45.03868" lon="0.39482">
        <ele>96.75</ele>
        <time>2015-06-17T12:10:01Z</time>
      </trkpt>
      <trkpt lat="45.03861" lon="0.39472">
        <ele>97.71</ele>
        <time>2015-06-17T12:10:10Z</time>
      </trkpt>
      <trkpt lat="45.03851" lon="0.39467">
        <ele>98.67</ele>
        <time>2015-06-17T12:10:21Z</time>
      </trkpt>
      <trkpt lat="45.0384" lon="0.39472">
        <ele>98.67</ele>
        <time>2015-06-17T12:10:36Z</time>
      </trkpt>
      <trkpt lat="45.03827" lon="0.39481">
        <ele>98.67</ele>
        <time>2015-06-17T12:10:50Z</time>
      </trkpt>
      <trkpt lat="45.0381" lon="0.3949">
        <ele>99.15</ele>
        <time>2015-06-17T12:11:04Z</time>
      </trkpt>
      <trkpt lat="45.03807" lon="0.39488">
        <ele>99.63</ele>
        <time>2015-06-17T12:11:16Z</time>
      </trkpt>
      <trkpt lat="45.03805" lon="0.39486">
        <ele>99.63</ele>
        <time>2015-06-17T12:11:27Z</time>
      </trkpt>
      <trkpt lat="45.03804" lon="0.39489">
        <ele>99.63</ele>
        <time>2015-06-17T12:11:40Z</time>
      </trkpt>
      <trkpt lat="45.03803" lon="0.39489">
        <ele>99.63</ele>
        <time>2015-06-17T12:12:03Z</time>
      </trkpt>
      <trkpt lat="45.03803" lon="0.39489">
        <ele>100.11</ele>
        <time>2015-06-17T12:12:24Z</time>
      </trkpt>
      <trkpt lat="45.038" lon="0.39493">
        <ele>100.11</ele>
        <time>2015-06-17T12:12:52Z</time>
      </trkpt>
      <trkpt lat="45.03802" lon="0.39489">
        <ele>100.6</ele>
        <time>2015-06-17T12:13:12Z</time>
      </trkpt>
      <trkpt lat="45.03802" lon="0.3949">
        <ele>100.6</ele>
        <time>2015-06-17T12:13:25Z</time>
      </trkpt>
      <trkpt lat="45.03801" lon="0.39488">
        <ele>100.6</ele>
        <time>2015-06-17T12:13:45Z</time>
      </trkpt>
      <trkpt lat="45.03801" lon="0.3949">
        <ele>100.6</ele>
        <time>2015-06-17T12:14:14Z</time>
      </trkpt>
      <trkpt lat="45.03807" lon="0.39485">
        <ele>99.63</ele>
        <time>2015-06-17T12:14:38Z</time>
      </trkpt>
      <trkpt lat="45.03811" lon="0.39484">
        <ele>99.63</ele>
        <time>2015-06-17T12:14:42Z</time>
      </trkpt>
      <trkpt lat="45.03827" lon="0.39477">
        <ele>99.15</ele>
        <time>2015-06-17T12:14:55Z</time>
      </trkpt>
      <trkpt lat="45.03841" lon="0.3947">
        <ele>99.15</ele>
        <time>2015-06-17T12:15:07Z</time>
      </trkpt>
      <trkpt lat="45.03846" lon="0.39489">
        <ele>98.67</ele>
        <time>2015-06-17T12:15:22Z</time>
      </trkpt>
      <trkpt lat="45.03846" lon="0.39503">
        <ele>98.19</ele>
        <time>2015-06-17T12:15:33Z</time>
      </trkpt>
      <trkpt lat="45.03845" lon="0.39525">
        <ele>97.71</ele>
        <time>2015-06-17T12:15:46Z</time>
      </trkpt>
      <trkpt lat="45.03849" lon="0.39552">
        <ele>96.75</ele>
        <time>2015-06-17T12:16:00Z</time>
      </trkpt>
      <trkpt lat="45.03852" lon="0.39558">
        <ele>96.75</ele>
        <time>2015-06-17T12:16:04Z</time>
      </trkpt>
      <trkpt lat="45.03853" lon="0.39561">
        <ele>96.75</ele>
        <time>2015-06-17T12:16:06Z</time>
      </trkpt>
      <trkpt lat="45.03856" lon="0.3957">
        <ele>96.75</ele>
        <time>2015-06-17T12:16:11Z</time>
      </trkpt>
      <trkpt lat="45.03862" lon="0.39582">
        <ele>96.27</ele>
        <time>2015-06-17T12:16:18Z</time>
      </trkpt>
      <trkpt lat="45.03867" lon="0.39597">
        <ele>95.79</ele>
        <time>2015-06-17T12:16:28Z</time>
      </trkpt>
      <trkpt lat="45.03874" lon="0.39616">
        <ele>95.79</ele>
        <time>2015-06-17T12:16:41Z</time>
      </trkpt>
      <trkpt lat="45.03877" lon="0.39626">
        <ele>95.79</ele>
        <time>2015-06-17T12:16:54Z</time>
      </trkpt>
      <trkpt lat="45.03878" lon="0.39638">
        <ele>95.79</ele>
        <time>2015-06-17T12:17:17Z</time>
      </trkpt>
      <trkpt lat="45.03879" lon="0.39641">
        <ele>95.79</ele>
        <time>2015-06-17T12:17:19Z</time>
      </trkpt>
      <trkpt lat="45.03881" lon="0.39647">
        <ele>95.79</ele>
        <time>2015-06-17T12:17:23Z</time>
      </trkpt>
      <trkpt lat="45.03887" lon="0.39676">
        <ele>97.23</ele>
        <time>2015-06-17T12:17:38Z</time>
      </trkpt>
      <trkpt lat="45.03889" lon="0.3969">
        <ele>97.23</ele>
        <time>2015-06-17T12:17:46Z</time>
      </trkpt>
      <trkpt lat="45.03895" lon="0.39715">
        <ele>97.23</ele>
        <time>2015-06-17T12:18:01Z</time>
      </trkpt>
      <trkpt lat="45.03895" lon="0.39719">
        <ele>97.23</ele>
        <time>2015-06-17T12:18:03Z</time>
      </trkpt>
      <trkpt lat="45.03896" lon="0.39724">
        <ele>97.23</ele>
        <time>2015-06-17T12:18:06Z</time>
      </trkpt>
      <trkpt lat="45.03898" lon="0.39729">
        <ele>97.23</ele>
        <time>2015-06-17T12:18:09Z</time>
      </trkpt>
      <trkpt lat="45.039" lon="0.39738">
        <ele>97.23</ele>
        <time>2015-06-17T12:18:14Z</time>
      </trkpt>
      <trkpt lat="45.03903" lon="0.39743">
        <ele>97.71</ele>
        <time>2015-06-17T12:18:18Z</time>
      </trkpt>
      <trkpt lat="45.03907" lon="0.39757">
        <ele>97.71</ele>
        <time>2015-06-17T12:18:28Z</time>
      </trkpt>
      <trkpt lat="45.03909" lon="0.39758">
        <ele>97.71</ele>
        <time>2015-06-17T12:18:30Z</time>
      </trkpt>
      <trkpt lat="45.03912" lon="0.39768">
        <ele>97.71</ele>
        <time>2015-06-17T12:18:36Z</time>
      </trkpt>
      <trkpt lat="45.03914" lon="0.39778">
        <ele>97.71</ele>
        <time>2015-06-17T12:18:42Z</time>
      </trkpt>
      <trkpt lat="45.03918" lon="0.3979">
        <ele>97.71</ele>
        <time>2015-06-17T12:18:48Z</time>
      </trkpt>
      <trkpt lat="45.03922" lon="0.39798">
        <ele>97.71</ele>
        <time>2015-06-17T12:18:54Z</time>
      </trkpt>
      <trkpt lat="45.03926" lon="0.39809">
        <ele>97.71</ele>
        <time>2015-06-17T12:19:03Z</time>
      </trkpt>
      <trkpt lat="45.03931" lon="0.39839">
        <ele>98.67</ele>
        <time>2015-06-17T12:19:18Z</time>
      </trkpt>
      <trkpt lat="45.03941" lon="0.39869">
        <ele>99.15</ele>
        <time>2015-06-17T12:19:36Z</time>
      </trkpt>
      <trkpt lat="45.03944" lon="0.39886">
        <ele>99.15</ele>
        <time>2015-06-17T12:19:46Z</time>
      </trkpt>
      <trkpt lat="45.03944" lon="0.39896">
        <ele>99.15</ele>
        <time>2015-06-17T12:19:51Z</time>
      </trkpt>
      <trkpt lat="45.03943" lon="0.39906">
        <ele>99.63</ele>
        <time>2015-06-17T12:19:56Z</time>
      </trkpt>
      <trkpt lat="45.03943" lon="0.39918">
        <ele>99.63</ele>
        <time>2015-06-17T12:20:04Z</time>
      </trkpt>
      <trkpt lat="45.03945" lon="0.39948">
        <ele>101.56</ele>
        <time>2015-06-17T12:20:22Z</time>
      </trkpt>
      <trkpt lat="45.03945" lon="0.39949">
        <ele>101.56</ele>
        <time>2015-06-17T12:20:23Z</time>
      </trkpt>
      <trkpt lat="45.0395" lon="0.3995">
        <ele>102.04</ele>
        <time>2015-06-17T12:20:36Z</time>
      </trkpt>
      <trkpt lat="45.03946" lon="0.39952">
        <ele>101.08</ele>
        <time>2015-06-17T12:20:47Z</time>
      </trkpt>
      <trkpt lat="45.03944" lon="0.3995">
        <ele>101.08</ele>
        <time>2015-06-17T12:21:08Z</time>
      </trkpt>
      <trkpt lat="45.03942" lon="0.39955">
        <ele>101.08</ele>
        <time>2015-06-17T12:21:33Z</time>
      </trkpt>
      <trkpt lat="45.03939" lon="0.39956">
        <ele>101.56</ele>
        <time>2015-06-17T12:22:03Z</time>
      </trkpt>
      <trkpt lat="45.03941" lon="0.39958">
        <ele>101.56</ele>
        <time>2015-06-17T12:22:28Z</time>
      </trkpt>
      <trkpt lat="45.03944" lon="0.39951">
        <ele>101.56</ele>
        <time>2015-06-17T12:22:41Z</time>
      </trkpt>
      <trkpt lat="45.03945" lon="0.39954">
        <ele>101.56</ele>
        <time>2015-06-17T12:22:45Z</time>
      </trkpt>
      <trkpt lat="45.03945" lon="0.39959">
        <ele>102.04</ele>
        <time>2015-06-17T12:23:01Z</time>
      </trkpt>
      <trkpt lat="45.03945" lon="0.39963">
        <ele>102.04</ele>
        <time>2015-06-17T12:23:26Z</time>
      </trkpt>
      <trkpt lat="45.03945" lon="0.39983">
        <ele>102.04</ele>
        <time>2015-06-17T12:23:39Z</time>
      </trkpt>
      <trkpt lat="45.03948" lon="0.39986">
        <ele>102.04</ele>
        <time>2015-06-17T12:23:55Z</time>
      </trkpt>
      <trkpt lat="45.03948" lon="0.39986">
        <ele>102.04</ele>
        <time>2015-06-17T12:24:14Z</time>
      </trkpt>
      <trkpt lat="45.03951" lon="0.39987">
        <ele>102.04</ele>
        <time>2015-06-17T12:24:44Z</time>
      </trkpt>
      <trkpt lat="45.03951" lon="0.39991">
        <ele>102.04</ele>
        <time>2015-06-17T12:25:15Z</time>
      </trkpt>
      <trkpt lat="45.03949" lon="0.39986">
        <ele>102.04</ele>
        <time>2015-06-17T12:25:38Z</time>
      </trkpt>
      <trkpt lat="45.03951" lon="0.39988">
        <ele>102.04</ele>
        <time>2015-06-17T12:25:56Z</time>
      </trkpt>
      <trkpt lat="45.0395" lon="0.39988">
        <ele>102.04</ele>
        <time>2015-06-17T12:26:23Z</time>
      </trkpt>
      <trkpt lat="45.03948" lon="0.39989">
        <ele>102.04</ele>
        <time>2015-06-17T12:26:39Z</time>
      </trkpt>
      <trkpt lat="45.0395" lon="0.39991">
        <ele>102.04</ele>
        <time>2015-06-17T12:27:06Z</time>
      </trkpt>
      <trkpt lat="45.03951" lon="0.39992">
        <ele>102.04</ele>
        <time>2015-06-17T12:27:07Z</time>
      </trkpt>
      <trkpt lat="45.03951" lon="0.40005">
        <ele>102.04</ele>
        <time>2015-06-17T12:27:17Z</time>
      </trkpt>
      <trkpt lat="45.0395" lon="0.4001">
        <ele>102.04</ele>
        <time>2015-06-17T12:27:20Z</time>
      </trkpt>
      <trkpt lat="45.03949" lon="0.40027">
        <ele>102.52</ele>
        <time>2015-06-17T12:27:32Z</time>
      </trkpt>
      <trkpt lat="45.03953" lon="0.40041">
        <ele>103</ele>
        <time>2015-06-17T12:27:45Z</time>
      </trkpt>
      <trkpt lat="45.03955" lon="0.40049">
        <ele>103</ele>
        <time>2015-06-17T12:27:50Z</time>
      </trkpt>
      <trkpt lat="45.03958" lon="0.40071">
        <ele>103</ele>
        <time>2015-06-17T12:28:03Z</time>
      </trkpt>
      <trkpt lat="45.03959" lon="0.40077">
        <ele>103</ele>
        <time>2015-06-17T12:28:07Z</time>
      </trkpt>
      <trkpt lat="45.03965" lon="0.40093">
        <ele>103.48</ele>
        <time>2015-06-17T12:28:21Z</time>
      </trkpt>
      <trkpt lat="45.03972" lon="0.40111">
        <ele>103.96</ele>
        <time>2015-06-17T12:28:33Z</time>
      </trkpt>
      <trkpt lat="45.03973" lon="0.40114">
        <ele>103.96</ele>
        <time>2015-06-17T12:28:36Z</time>
      </trkpt>
      <trkpt lat="45.03974" lon="0.40137">
        <ele>104.92</ele>
        <time>2015-06-17T12:28:48Z</time>
      </trkpt>
      <trkpt lat="45.03978" lon="0.40157">
        <ele>104.92</ele>
        <time>2015-06-17T12:29:00Z</time>
      </trkpt>
      <trkpt lat="45.03979" lon="0.40172">
        <ele>105.4</ele>
        <time>2015-06-17T12:29:09Z</time>
      </trkpt>
      <trkpt lat="45.03982" lon="0.40192">
        <ele>106.36</ele>
        <time>2015-06-17T12:29:20Z</time>
      </trkpt>
      <trkpt lat="45.03986" lon="0.40207">
        <ele>107.32</ele>
        <time>2015-06-17T12:29:32Z</time>
      </trkpt>
      <trkpt lat="45.03985" lon="0.40212">
        <ele>107.32</ele>
        <time>2015-06-17T12:29:42Z</time>
      </trkpt>
      <trkpt lat="45.03992" lon="0.40211">
        <ele>107.32</ele>
        <time>2015-06-17T12:30:00Z</time>
      </trkpt>
      <trkpt lat="45.03994" lon="0.40211">
        <ele>107.32</ele>
        <time>2015-06-17T12:30:13Z</time>
      </trkpt>
      <trkpt lat="45.03994" lon="0.40217">
        <ele>107.32</ele>
        <time>2015-06-17T12:30:41Z</time>
      </trkpt>
      <trkpt lat="45.03992" lon="0.40221">
        <ele>107.32</ele>
        <time>2015-06-17T12:30:45Z</time>
      </trkpt>
      <trkpt lat="45.03993" lon="0.40223">
        <ele>107.32</ele>
        <time>2015-06-17T12:30:47Z</time>
      </trkpt>
      <trkpt lat="45.03993" lon="0.40248">
        <ele>108.77</ele>
        <time>2015-06-17T12:31:04Z</time>
      </trkpt>
      <trkpt lat="45.03998" lon="0.4027">
        <ele>110.21</ele>
        <time>2015-06-17T12:31:20Z</time>
      </trkpt>
      <trkpt lat="45.04004" lon="0.40277">
        <ele>111.17</ele>
        <time>2015-06-17T12:31:32Z</time>
      </trkpt>
      <trkpt lat="45.04" lon="0.40276">
        <ele>111.17</ele>
        <time>2015-06-17T12:31:42Z</time>
      </trkpt>
      <trkpt lat="45.03999" lon="0.40277">
        <ele>111.17</ele>
        <time>2015-06-17T12:31:55Z</time>
      </trkpt>
      <trkpt lat="45.04" lon="0.40279">
        <ele>110.21</ele>
        <time>2015-06-17T12:32:20Z</time>
      </trkpt>
      <trkpt lat="45.03998" lon="0.40279">
        <ele>111.17</ele>
        <time>2015-06-17T12:32:30Z</time>
      </trkpt>
      <trkpt lat="45.0399" lon="0.40285">
        <ele>111.17</ele>
        <time>2015-06-17T12:33:03Z</time>
      </trkpt>
      <trkpt lat="45.03993" lon="0.40277">
        <ele>111.17</ele>
        <time>2015-06-17T12:33:29Z</time>
      </trkpt>
      <trkpt lat="45.03998" lon="0.40285">
        <ele>111.17</ele>
        <time>2015-06-17T12:33:53Z</time>
      </trkpt>
      <trkpt lat="45.04004" lon="0.40308">
        <ele>111.65</ele>
        <time>2015-06-17T12:34:09Z</time>
      </trkpt>
      <trkpt lat="45.0401" lon="0.40329">
        <ele>113.09</ele>
        <time>2015-06-17T12:34:24Z</time>
      </trkpt>
      <trkpt lat="45.04011" lon="0.40334">
        <ele>113.57</ele>
        <time>2015-06-17T12:34:27Z</time>
      </trkpt>
      <trkpt lat="45.04014" lon="0.4035">
        <ele>113.57</ele>
        <time>2015-06-17T12:34:39Z</time>
      </trkpt>
      <trkpt lat="45.04014" lon="0.40355">
        <ele>114.05</ele>
        <time>2015-06-17T12:34:42Z</time>
      </trkpt>
      <trkpt lat="45.04013" lon="0.40364">
        <ele>114.53</ele>
        <time>2015-06-17T12:34:46Z</time>
      </trkpt>
      <trkpt lat="45.04022" lon="0.40387">
        <ele>115.01</ele>
        <time>2015-06-17T12:34:59Z</time>
      </trkpt>
      <trkpt lat="45.04026" lon="0.40409">
        <ele>115.98</ele>
        <time>2015-06-17T12:35:14Z</time>
      </trkpt>
      <trkpt lat="45.04026" lon="0.4041">
        <ele>115.98</ele>
        <time>2015-06-17T12:35:15Z</time>
      </trkpt>
      <trkpt lat="45.04029" lon="0.4042">
        <ele>116.46</ele>
        <time>2015-06-17T12:35:23Z</time>
      </trkpt>
      <trkpt lat="45.04032" lon="0.4044">
        <ele>117.42</ele>
        <time>2015-06-17T12:35:36Z</time>
      </trkpt>
      <trkpt lat="45.04032" lon="0.40442">
        <ele>117.42</ele>
        <time>2015-06-17T12:35:37Z</time>
      </trkpt>
      <trkpt lat="45.04035" lon="0.40466">
        <ele>118.86</ele>
        <time>2015-06-17T12:35:52Z</time>
      </trkpt>
      <trkpt lat="45.04037" lon="0.40477">
        <ele>118.86</ele>
        <time>2015-06-17T12:36:00Z</time>
      </trkpt>
      <trkpt lat="45.0404" lon="0.40486">
        <ele>119.34</ele>
        <time>2015-06-17T12:36:06Z</time>
      </trkpt>
      <trkpt lat="45.0404" lon="0.40496">
        <ele>119.34</ele>
        <time>2015-06-17T12:36:11Z</time>
      </trkpt>
      <trkpt lat="45.04042" lon="0.40504">
        <ele>119.82</ele>
        <time>2015-06-17T12:36:16Z</time>
      </trkpt>
      <trkpt lat="45.04043" lon="0.40512">
        <ele>120.3</ele>
        <time>2015-06-17T12:36:22Z</time>
      </trkpt>
      <trkpt lat="45.04046" lon="0.40527">
        <ele>121.26</ele>
        <time>2015-06-17T12:36:34Z</time>
      </trkpt>
      <trkpt lat="45.04047" lon="0.40536">
        <ele>121.26</ele>
        <time>2015-06-17T12:36:38Z</time>
      </trkpt>
      <trkpt lat="45.0405" lon="0.40545">
        <ele>121.74</ele>
        <time>2015-06-17T12:36:43Z</time>
      </trkpt>
      <trkpt lat="45.04046" lon="0.40554">
        <ele>122.22</ele>
        <time>2015-06-17T12:36:57Z</time>
      </trkpt>
      <trkpt lat="45.04043" lon="0.40557">
        <ele>122.22</ele>
        <time>2015-06-17T12:37:10Z</time>
      </trkpt>
      <trkpt lat="45.04049" lon="0.40558">
        <ele>122.22</ele>
        <time>2015-06-17T12:37:21Z</time>
      </trkpt>
      <trkpt lat="45.04051" lon="0.4056">
        <ele>122.22</ele>
        <time>2015-06-17T12:37:33Z</time>
      </trkpt>
      <trkpt lat="45.04053" lon="0.4056">
        <ele>122.22</ele>
        <time>2015-06-17T12:37:58Z</time>
      </trkpt>
      <trkpt lat="45.04052" lon="0.40561">
        <ele>120.78</ele>
        <time>2015-06-17T12:38:06Z</time>
      </trkpt>
      <trkpt lat="45.04051" lon="0.4056">
        <ele>121.26</ele>
        <time>2015-06-17T12:38:26Z</time>
      </trkpt>
      <trkpt lat="45.04048" lon="0.40559">
        <ele>123.19</ele>
        <time>2015-06-17T12:39:00Z</time>
      </trkpt>
      <trkpt lat="45.04047" lon="0.40558">
        <ele>122.22</ele>
        <time>2015-06-17T12:39:28Z</time>
      </trkpt>
      <trkpt lat="45.04048" lon="0.40559">
        <ele>121.74</ele>
        <time>2015-06-17T12:39:32Z</time>
      </trkpt>
      <trkpt lat="45.0405" lon="0.40562">
        <ele>122.22</ele>
        <time>2015-06-17T12:39:35Z</time>
      </trkpt>
      <trkpt lat="45.04052" lon="0.40573">
        <ele>123.19</ele>
        <time>2015-06-17T12:39:41Z</time>
      </trkpt>
      <trkpt lat="45.04052" lon="0.4058">
        <ele>123.19</ele>
        <time>2015-06-17T12:39:45Z</time>
      </trkpt>
      <trkpt lat="45.04056" lon="0.4059">
        <ele>123.67</ele>
        <time>2015-06-17T12:39:51Z</time>
      </trkpt>
      <trkpt lat="45.04062" lon="0.40605">
        <ele>124.63</ele>
        <time>2015-06-17T12:40:00Z</time>
      </trkpt>
      <trkpt lat="45.04066" lon="0.40613">
        <ele>125.11</ele>
        <time>2015-06-17T12:40:13Z</time>
      </trkpt>
      <trkpt lat="45.04067" lon="0.40613">
        <ele>125.11</ele>
        <time>2015-06-17T12:40:14Z</time>
      </trkpt>
      <trkpt lat="45.04079" lon="0.4063">
        <ele>125.59</ele>
        <time>2015-06-17T12:40:27Z</time>
      </trkpt>
      <trkpt lat="45.0408" lon="0.40634">
        <ele>125.59</ele>
        <time>2015-06-17T12:40:44Z</time>
      </trkpt>
      <trkpt lat="45.04081" lon="0.40634">
        <ele>126.07</ele>
        <time>2015-06-17T12:40:58Z</time>
      </trkpt>
      <trkpt lat="45.041" lon="0.40646">
        <ele>127.03</ele>
        <time>2015-06-17T12:41:15Z</time>
      </trkpt>
      <trkpt lat="45.04123" lon="0.40657">
        <ele>127.99</ele>
        <time>2015-06-17T12:41:34Z</time>
      </trkpt>
      <trkpt lat="45.04134" lon="0.40659">
        <ele>127.99</ele>
        <time>2015-06-17T12:41:42Z</time>
      </trkpt>
      <trkpt lat="45.04144" lon="0.40664">
        <ele>128.47</ele>
        <time>2015-06-17T12:41:51Z</time>
      </trkpt>
      <trkpt lat="45.04166" lon="0.40686">
        <ele>128.47</ele>
        <time>2015-06-17T12:42:11Z</time>
      </trkpt>
      <trkpt lat="45.0417" lon="0.40693">
        <ele>128.95</ele>
        <time>2015-06-17T12:42:16Z</time>
      </trkpt>
      <trkpt lat="45.04172" lon="0.40697">
        <ele>128.95</ele>
        <time>2015-06-17T12:42:19Z</time>
      </trkpt>
      <trkpt lat="45.04181" lon="0.40721">
        <ele>127.51</ele>
        <time>2015-06-17T12:42:34Z</time>
      </trkpt>
      <trkpt lat="45.04184" lon="0.40735">
        <ele>127.51</ele>
        <time>2015-06-17T12:42:43Z</time>
      </trkpt>
      <trkpt lat="45.04184" lon="0.40754">
        <ele>126.55</ele>
        <time>2015-06-17T12:42:58Z</time>
      </trkpt>
      <trkpt lat="45.04184" lon="0.40756">
        <ele>126.55</ele>
        <time>2015-06-17T12:43:09Z</time>
      </trkpt>
      <trkpt lat="45.04183" lon="0.40753">
        <ele>127.03</ele>
        <time>2015-06-17T12:43:31Z</time>
      </trkpt>
      <trkpt lat="45.04184" lon="0.40753">
        <ele>127.03</ele>
        <time>2015-06-17T12:43:44Z</time>
      </trkpt>
      <trkpt lat="45.04187" lon="0.40754">
        <ele>127.51</ele>
        <time>2015-06-17T12:44:03Z</time>
      </trkpt>
      <trkpt lat="45.04187" lon="0.40753">
        <ele>126.07</ele>
        <time>2015-06-17T12:44:05Z</time>
      </trkpt>
      <trkpt lat="45.04185" lon="0.40756">
        <ele>126.07</ele>
        <time>2015-06-17T12:44:20Z</time>
      </trkpt>
      <trkpt lat="45.04185" lon="0.40756">
        <ele>126.07</ele>
        <time>2015-06-17T12:44:21Z</time>
      </trkpt>
      <trkpt lat="45.0418" lon="0.40752">
        <ele>126.07</ele>
        <time>2015-06-17T12:44:29Z</time>
      </trkpt>
      <trkpt lat="45.0418" lon="0.40752">
        <ele>127.99</ele>
        <time>2015-06-17T12:44:42Z</time>
      </trkpt>
      <trkpt lat="45.04181" lon="0.40754">
        <ele>128.47</ele>
        <time>2015-06-17T12:44:54Z</time>
      </trkpt>
      <trkpt lat="45.04184" lon="0.40754">
        <ele>127.03</ele>
        <time>2015-06-17T12:44:59Z</time>
      </trkpt>
      <trkpt lat="45.04185" lon="0.40758">
        <ele>126.55</ele>
        <time>2015-06-17T12:45:10Z</time>
      </trkpt>
      <trkpt lat="45.04183" lon="0.40753">
        <ele>126.55</ele>
        <time>2015-06-17T12:45:24Z</time>
      </trkpt>
      <trkpt lat="45.04181" lon="0.40751">
        <ele>126.55</ele>
        <time>2015-06-17T12:45:30Z</time>
      </trkpt>
      <trkpt lat="45.0418" lon="0.40753">
        <ele>126.55</ele>
        <time>2015-06-17T12:45:38Z</time>
      </trkpt>
      <trkpt lat="45.04182" lon="0.40753">
        <ele>126.55</ele>
        <time>2015-06-17T12:45:49Z</time>
      </trkpt>
      <trkpt lat="45.04185" lon="0.40753">
        <ele>126.07</ele>
        <time>2015-06-17T12:46:04Z</time>
      </trkpt>
      <trkpt lat="45.04184" lon="0.40754">
        <ele>127.51</ele>
        <time>2015-06-17T12:46:21Z</time>
      </trkpt>
      <trkpt lat="45.04183" lon="0.40759">
        <ele>126.07</ele>
        <time>2015-06-17T12:46:33Z</time>
      </trkpt>
      <trkpt lat="45.04184" lon="0.40759">
        <ele>126.07</ele>
        <time>2015-06-17T12:46:47Z</time>
      </trkpt>
      <trkpt lat="45.04184" lon="0.40754">
        <ele>126.07</ele>
        <time>2015-06-17T12:46:59Z</time>
      </trkpt>
      <trkpt lat="45.04186" lon="0.40757">
        <ele>126.07</ele>
        <time>2015-06-17T12:47:11Z</time>
      </trkpt>
      <trkpt lat="45.04187" lon="0.4076">
        <ele>127.99</ele>
        <time>2015-06-17T12:47:24Z</time>
      </trkpt>
      <trkpt lat="45.04186" lon="0.4076">
        <ele>127.99</ele>
        <time>2015-06-17T12:47:44Z</time>
      </trkpt>
      <trkpt lat="45.04182" lon="0.40782">
        <ele>126.55</ele>
        <time>2015-06-17T12:47:57Z</time>
      </trkpt>
      <trkpt lat="45.04175" lon="0.40812">
        <ele>124.15</ele>
        <time>2015-06-17T12:48:14Z</time>
      </trkpt>
      <trkpt lat="45.04173" lon="0.40817">
        <ele>123.67</ele>
        <time>2015-06-17T12:48:17Z</time>
      </trkpt>
      <trkpt lat="45.0417" lon="0.40843">
        <ele>121.74</ele>
        <time>2015-06-17T12:48:30Z</time>
      </trkpt>
      <trkpt lat="45.04171" lon="0.40865">
        <ele>120.3</ele>
        <time>2015-06-17T12:48:42Z</time>
      </trkpt>
      <trkpt lat="45.04172" lon="0.40876">
        <ele>118.38</ele>
        <time>2015-06-17T12:48:48Z</time>
      </trkpt>
      <trkpt lat="45.04172" lon="0.40879">
        <ele>119.82</ele>
        <time>2015-06-17T12:48:50Z</time>
      </trkpt>
      <trkpt lat="45.04167" lon="0.40906">
        <ele>118.38</ele>
        <time>2015-06-17T12:49:06Z</time>
      </trkpt>
      <trkpt lat="45.04157" lon="0.40915">
        <ele>118.38</ele>
        <time>2015-06-17T12:49:16Z</time>
      </trkpt>
      <trkpt lat="45.0414" lon="0.40928">
        <ele>118.38</ele>
        <time>2015-06-17T12:49:31Z</time>
      </trkpt>
      <trkpt lat="45.04139" lon="0.40929">
        <ele>118.38</ele>
        <time>2015-06-17T12:49:32Z</time>
      </trkpt>
      <trkpt lat="45.04126" lon="0.40943">
        <ele>118.38</ele>
        <time>2015-06-17T12:49:46Z</time>
      </trkpt>
      <trkpt lat="45.04108" lon="0.40974">
        <ele>118.38</ele>
        <time>2015-06-17T12:50:10Z</time>
      </trkpt>
      <trkpt lat="45.04094" lon="0.40971">
        <ele>118.38</ele>
        <time>2015-06-17T12:50:14Z</time>
      </trkpt>
      <trkpt lat="45.04092" lon="0.40974">
        <ele>118.38</ele>
        <time>2015-06-17T12:50:16Z</time>
      </trkpt>
      <trkpt lat="45.04077" lon="0.40994">
        <ele>117.42</ele>
        <time>2015-06-17T12:50:30Z</time>
      </trkpt>
      <trkpt lat="45.04064" lon="0.41015">
        <ele>117.42</ele>
        <time>2015-06-17T12:50:45Z</time>
      </trkpt>
      <trkpt lat="45.04053" lon="0.41037">
        <ele>116.94</ele>
        <time>2015-06-17T12:51:00Z</time>
      </trkpt>
      <trkpt lat="45.04048" lon="0.41036">
        <ele>116.46</ele>
        <time>2015-06-17T12:51:13Z</time>
      </trkpt>
      <trkpt lat="45.04047" lon="0.41037">
        <ele>116.46</ele>
        <time>2015-06-17T12:51:24Z</time>
      </trkpt>
      <trkpt lat="45.04048" lon="0.41038">
        <ele>117.9</ele>
        <time>2015-06-17T12:51:50Z</time>
      </trkpt>
      <trkpt lat="45.04047" lon="0.41038">
        <ele>116.94</ele>
        <time>2015-06-17T12:52:10Z</time>
      </trkpt>
      <trkpt lat="45.04049" lon="0.41038">
        <ele>116.46</ele>
        <time>2015-06-17T12:52:35Z</time>
      </trkpt>
      <trkpt lat="45.04048" lon="0.41036">
        <ele>117.42</ele>
        <time>2015-06-17T12:53:00Z</time>
      </trkpt>
      <trkpt lat="45.04047" lon="0.41037">
        <ele>116.46</ele>
        <time>2015-06-17T12:53:29Z</time>
      </trkpt>
      <trkpt lat="45.0405" lon="0.41039">
        <ele>116.46</ele>
        <time>2015-06-17T12:53:47Z</time>
      </trkpt>
      <trkpt lat="45.04051" lon="0.41038">
        <ele>117.42</ele>
        <time>2015-06-17T12:53:54Z</time>
      </trkpt>
      <trkpt lat="45.04049" lon="0.41037">
        <ele>117.42</ele>
        <time>2015-06-17T12:54:21Z</time>
      </trkpt>
      <trkpt lat="45.0405" lon="0.41036">
        <ele>117.42</ele>
        <time>2015-06-17T12:54:25Z</time>
      </trkpt>
      <trkpt lat="45.0405" lon="0.41028">
        <ele>117.42</ele>
        <time>2015-06-17T12:54:33Z</time>
      </trkpt>
      <trkpt lat="45.0405" lon="0.41019">
        <ele>117.42</ele>
        <time>2015-06-17T12:54:39Z</time>
      </trkpt>
      <trkpt lat="45.0405" lon="0.41006">
        <ele>117.9</ele>
        <time>2015-06-17T12:54:47Z</time>
      </trkpt>
      <trkpt lat="45.04051" lon="0.40982">
        <ele>119.82</ele>
        <time>2015-06-17T12:55:03Z</time>
      </trkpt>
      <trkpt lat="45.04053" lon="0.40959">
        <ele>121.74</ele>
        <time>2015-06-17T12:55:18Z</time>
      </trkpt>
      <trkpt lat="45.04051" lon="0.40949">
        <ele>122.71</ele>
        <time>2015-06-17T12:55:33Z</time>
      </trkpt>
      <trkpt lat="45.0405" lon="0.40941">
        <ele>123.19</ele>
        <time>2015-06-17T12:55:42Z</time>
      </trkpt>
      <trkpt lat="45.04046" lon="0.40931">
        <ele>124.15</ele>
        <time>2015-06-17T12:55:51Z</time>
      </trkpt>
      <trkpt lat="45.04028" lon="0.40913">
        <ele>126.55</ele>
        <time>2015-06-17T12:56:12Z</time>
      </trkpt>
      <trkpt lat="45.04012" lon="0.40901">
        <ele>128.47</ele>
        <time>2015-06-17T12:56:31Z</time>
      </trkpt>
      <trkpt lat="45.03999" lon="0.4089">
        <ele>130.88</ele>
        <time>2015-06-17T12:56:48Z</time>
      </trkpt>
      <trkpt lat="45.03986" lon="0.40882">
        <ele>133.28</ele>
        <time>2015-06-17T12:57:05Z</time>
      </trkpt>
      <trkpt lat="45.0398" lon="0.40877">
        <ele>134.72</ele>
        <time>2015-06-17T12:57:14Z</time>
      </trkpt>
      <trkpt lat="45.03964" lon="0.40858">
        <ele>137.13</ele>
        <time>2015-06-17T12:57:35Z</time>
      </trkpt>
      <trkpt lat="45.03955" lon="0.4085">
        <ele>137.61</ele>
        <time>2015-06-17T12:57:47Z</time>
      </trkpt>
      <trkpt lat="45.03943" lon="0.40836">
        <ele>139.05</ele>
        <time>2015-06-17T12:58:02Z</time>
      </trkpt>
      <trkpt lat="45.03933" lon="0.40822">
        <ele>139.05</ele>
        <time>2015-06-17T12:58:15Z</time>
      </trkpt>
      <trkpt lat="45.03927" lon="0.40813">
        <ele>139.53</ele>
        <time>2015-06-17T12:58:23Z</time>
      </trkpt>
      <trkpt lat="45.03924" lon="0.40811">
        <ele>139.53</ele>
        <time>2015-06-17T12:58:26Z</time>
      </trkpt>
      <trkpt lat="45.03914" lon="0.40793">
        <ele>138.09</ele>
        <time>2015-06-17T12:58:40Z</time>
      </trkpt>
      <trkpt lat="45.03911" lon="0.40785">
        <ele>137.61</ele>
        <time>2015-06-17T12:58:54Z</time>
      </trkpt>
      <trkpt lat="45.03913" lon="0.40787">
        <ele>137.13</ele>
        <time>2015-06-17T12:59:03Z</time>
      </trkpt>
      <trkpt lat="45.03914" lon="0.40788">
        <ele>137.13</ele>
        <time>2015-06-17T12:59:27Z</time>
      </trkpt>
      <trkpt lat="45.03913" lon="0.40789">
        <ele>137.13</ele>
        <time>2015-06-17T12:59:46Z</time>
      </trkpt>
      <trkpt lat="45.03914" lon="0.40787">
        <ele>137.13</ele>
        <time>2015-06-17T13:00:11Z</time>
      </trkpt>
      <trkpt lat="45.03913" lon="0.40788">
        <ele>137.13</ele>
        <time>2015-06-17T13:00:38Z</time>
      </trkpt>
      <trkpt lat="45.03913" lon="0.4079">
        <ele>137.13</ele>
        <time>2015-06-17T13:01:05Z</time>
      </trkpt>
      <trkpt lat="45.03913" lon="0.40787">
        <ele>136.64</ele>
        <time>2015-06-17T13:01:25Z</time>
      </trkpt>
      <trkpt lat="45.03912" lon="0.40789">
        <ele>137.13</ele>
        <time>2015-06-17T13:01:51Z</time>
      </trkpt>
      <trkpt lat="45.03912" lon="0.40787">
        <ele>138.09</ele>
        <time>2015-06-17T13:02:14Z</time>
      </trkpt>
      <trkpt lat="45.03911" lon="0.40789">
        <ele>138.09</ele>
        <time>2015-06-17T13:02:35Z</time>
      </trkpt>
      <trkpt lat="45.03908" lon="0.40785">
        <ele>138.09</ele>
        <time>2015-06-17T13:02:52Z</time>
      </trkpt>
      <trkpt lat="45.03909" lon="0.40787">
        <ele>138.09</ele>
        <time>2015-06-17T13:03:10Z</time>
      </trkpt>
      <trkpt lat="45.0391" lon="0.40789">
        <ele>137.13</ele>
        <time>2015-06-17T13:03:43Z</time>
      </trkpt>
      <trkpt lat="45.03911" lon="0.40789">
        <ele>137.13</ele>
        <time>2015-06-17T13:04:03Z</time>
      </trkpt>
      <trkpt lat="45.0391" lon="0.40791">
        <ele>138.57</ele>
        <time>2015-06-17T13:04:13Z</time>
      </trkpt>
      <trkpt lat="45.03911" lon="0.40792">
        <ele>138.57</ele>
        <time>2015-06-17T13:04:34Z</time>
      </trkpt>
      <trkpt lat="45.0391" lon="0.40793">
        <ele>137.61</ele>
        <time>2015-06-17T13:04:52Z</time>
      </trkpt>
      <trkpt lat="45.03911" lon="0.40794">
        <ele>137.61</ele>
        <time>2015-06-17T13:05:05Z</time>
      </trkpt>
      <trkpt lat="45.03908" lon="0.40784">
        <ele>137.61</ele>
        <time>2015-06-17T13:05:17Z</time>
      </trkpt>
      <trkpt lat="45.03907" lon="0.40782">
        <ele>137.61</ele>
        <time>2015-06-17T13:05:18Z</time>
      </trkpt>
      <trkpt lat="45.03901" lon="0.40775">
        <ele>136.16</ele>
        <time>2015-06-17T13:05:24Z</time>
      </trkpt>
      <trkpt lat="45.039" lon="0.40763">
        <ele>134.72</ele>
        <time>2015-06-17T13:05:32Z</time>
      </trkpt>
      <trkpt lat="45.03896" lon="0.40749">
        <ele>132.8</ele>
        <time>2015-06-17T13:05:42Z</time>
      </trkpt>
      <trkpt lat="45.03886" lon="0.40732">
        <ele>130.4</ele>
        <time>2015-06-17T13:05:55Z</time>
      </trkpt>
      <trkpt lat="45.03877" lon="0.40718">
        <ele>126.55</ele>
        <time>2015-06-17T13:06:09Z</time>
      </trkpt>
      <trkpt lat="45.03872" lon="0.40709">
        <ele>126.55</ele>
        <time>2015-06-17T13:06:18Z</time>
      </trkpt>
      <trkpt lat="45.03861" lon="0.40694">
        <ele>125.11</ele>
        <time>2015-06-17T13:06:30Z</time>
      </trkpt>
      <trkpt lat="45.03859" lon="0.40691">
        <ele>124.63</ele>
        <time>2015-06-17T13:06:32Z</time>
      </trkpt>
      <trkpt lat="45.03855" lon="0.40688">
        <ele>124.63</ele>
        <time>2015-06-17T13:06:36Z</time>
      </trkpt>
      <trkpt lat="45.03848" lon="0.40672">
        <ele>126.07</ele>
        <time>2015-06-17T13:06:46Z</time>
      </trkpt>
      <trkpt lat="45.03843" lon="0.40666">
        <ele>126.55</ele>
        <time>2015-06-17T13:07:02Z</time>
      </trkpt>
      <trkpt lat="45.03834" lon="0.40657">
        <ele>127.99</ele>
        <time>2015-06-17T13:07:15Z</time>
      </trkpt>
      <trkpt lat="45.03834" lon="0.40657">
        <ele>127.99</ele>
        <time>2015-06-17T13:07:16Z</time>
      </trkpt>
      <trkpt lat="45.0383" lon="0.40654">
        <ele>128.47</ele>
        <time>2015-06-17T13:07:20Z</time>
      </trkpt>
      <trkpt lat="45.03829" lon="0.40649">
        <ele>128.95</ele>
        <time>2015-06-17T13:07:23Z</time>
      </trkpt>
      <trkpt lat="45.03828" lon="0.40647">
        <ele>128.95</ele>
        <time>2015-06-17T13:07:25Z</time>
      </trkpt>
      <trkpt lat="45.03824" lon="0.40643">
        <ele>128.95</ele>
        <time>2015-06-17T13:07:29Z</time>
      </trkpt>
      <trkpt lat="45.03813" lon="0.40634">
        <ele>129.43</ele>
        <time>2015-06-17T13:07:42Z</time>
      </trkpt>
      <trkpt lat="45.0381" lon="0.40633">
        <ele>129.92</ele>
        <time>2015-06-17T13:07:45Z</time>
      </trkpt>
      <trkpt lat="45.03805" lon="0.40629">
        <ele>129.92</ele>
        <time>2015-06-17T13:07:51Z</time>
      </trkpt>
      <trkpt lat="45.03799" lon="0.40624">
        <ele>129.92</ele>
        <time>2015-06-17T13:07:57Z</time>
      </trkpt>
      <trkpt lat="45.03784" lon="0.40616">
        <ele>129.92</ele>
        <time>2015-06-17T13:08:11Z</time>
      </trkpt>
      <trkpt lat="45.03779" lon="0.40614">
        <ele>130.4</ele>
        <time>2015-06-17T13:08:17Z</time>
      </trkpt>
      <trkpt lat="45.03774" lon="0.40604">
        <ele>129.92</ele>
        <time>2015-06-17T13:08:25Z</time>
      </trkpt>
      <trkpt lat="45.03773" lon="0.40602">
        <ele>129.92</ele>
        <time>2015-06-17T13:08:27Z</time>
      </trkpt>
      <trkpt lat="45.03764" lon="0.40589">
        <ele>130.88</ele>
        <time>2015-06-17T13:08:40Z</time>
      </trkpt>
      <trkpt lat="45.03756" lon="0.4058">
        <ele>132.32</ele>
        <time>2015-06-17T13:08:54Z</time>
      </trkpt>
      <trkpt lat="45.03746" lon="0.40566">
        <ele>132.32</ele>
        <time>2015-06-17T13:09:09Z</time>
      </trkpt>
      <trkpt lat="45.03744" lon="0.40566">
        <ele>132.32</ele>
        <time>2015-06-17T13:09:21Z</time>
      </trkpt>
      <trkpt lat="45.03741" lon="0.40569">
        <ele>132.8</ele>
        <time>2015-06-17T13:09:34Z</time>
      </trkpt>
      <trkpt lat="45.03744" lon="0.40569">
        <ele>133.28</ele>
        <time>2015-06-17T13:09:49Z</time>
      </trkpt>
      <trkpt lat="45.03745" lon="0.40564">
        <ele>133.28</ele>
        <time>2015-06-17T13:10:02Z</time>
      </trkpt>
      <trkpt lat="45.03743" lon="0.40566">
        <ele>131.84</ele>
        <time>2015-06-17T13:10:20Z</time>
      </trkpt>
      <trkpt lat="45.03743" lon="0.40566">
        <ele>133.28</ele>
        <time>2015-06-17T13:10:23Z</time>
      </trkpt>
      <trkpt lat="45.03744" lon="0.40564">
        <ele>132.32</ele>
        <time>2015-06-17T13:10:53Z</time>
      </trkpt>
      <trkpt lat="45.03743" lon="0.40569">
        <ele>132.32</ele>
        <time>2015-06-17T13:11:06Z</time>
      </trkpt>
      <trkpt lat="45.03742" lon="0.40564">
        <ele>132.32</ele>
        <time>2015-06-17T13:11:18Z</time>
      </trkpt>
      <trkpt lat="45.03729" lon="0.4055">
        <ele>131.36</ele>
        <time>2015-06-17T13:11:33Z</time>
      </trkpt>
      <trkpt lat="45.03712" lon="0.40531">
        <ele>133.28</ele>
        <time>2015-06-17T13:11:53Z</time>
      </trkpt>
      <trkpt lat="45.03706" lon="0.40526">
        <ele>133.76</ele>
        <time>2015-06-17T13:11:59Z</time>
      </trkpt>
      <trkpt lat="45.03696" lon="0.40517">
        <ele>136.16</ele>
        <time>2015-06-17T13:12:12Z</time>
      </trkpt>
      <trkpt lat="45.0369" lon="0.40511">
        <ele>136.64</ele>
        <time>2015-06-17T13:12:20Z</time>
      </trkpt>
      <trkpt lat="45.03681" lon="0.40505">
        <ele>137.13</ele>
        <time>2015-06-17T13:12:29Z</time>
      </trkpt>
      <trkpt lat="45.03671" lon="0.40493">
        <ele>137.13</ele>
        <time>2015-06-17T13:12:41Z</time>
      </trkpt>
      <trkpt lat="45.03665" lon="0.40483">
        <ele>137.13</ele>
        <time>2015-06-17T13:12:49Z</time>
      </trkpt>
      <trkpt lat="45.0366" lon="0.40475">
        <ele>135.68</ele>
        <time>2015-06-17T13:12:55Z</time>
      </trkpt>
      <trkpt lat="45.03649" lon="0.40464">
        <ele>134.72</ele>
        <time>2015-06-17T13:13:08Z</time>
      </trkpt>
      <trkpt lat="45.03634" lon="0.40451">
        <ele>134.72</ele>
        <time>2015-06-17T13:13:22Z</time>
      </trkpt>
      <trkpt lat="45.03632" lon="0.40448">
        <ele>134.72</ele>
        <time>2015-06-17T13:13:25Z</time>
      </trkpt>
      <trkpt lat="45.03626" lon="0.4044">
        <ele>134.72</ele>
        <time>2015-06-17T13:13:32Z</time>
      </trkpt>
      <trkpt lat="45.03623" lon="0.40439">
        <ele>134.72</ele>
        <time>2015-06-17T13:13:34Z</time>
      </trkpt>
      <trkpt lat="45.03619" lon="0.40434">
        <ele>134.24</ele>
        <time>2015-06-17T13:13:38Z</time>
      </trkpt>
      <trkpt lat="45.03608" lon="0.40421">
        <ele>133.76</ele>
        <time>2015-06-17T13:13:51Z</time>
      </trkpt>
      <trkpt lat="45.03595" lon="0.40412">
        <ele>132.8</ele>
        <time>2015-06-17T13:14:05Z</time>
      </trkpt>
      <trkpt lat="45.0359" lon="0.40408">
        <ele>132.8</ele>
        <time>2015-06-17T13:14:09Z</time>
      </trkpt>
      <trkpt lat="45.03588" lon="0.40405">
        <ele>132.8</ele>
        <time>2015-06-17T13:14:12Z</time>
      </trkpt>
      <trkpt lat="45.03573" lon="0.40394">
        <ele>132.8</ele>
        <time>2015-06-17T13:14:25Z</time>
      </trkpt>
      <trkpt lat="45.03555" lon="0.40371">
        <ele>131.84</ele>
        <time>2015-06-17T13:14:43Z</time>
      </trkpt>
      <trkpt lat="45.0355" lon="0.40369">
        <ele>131.84</ele>
        <time>2015-06-17T13:14:56Z</time>
      </trkpt>
      <trkpt lat="45.0355" lon="0.40369">
        <ele>131.36</ele>
        <time>2015-06-17T13:15:00Z</time>
      </trkpt>
      <trkpt lat="45.03553" lon="0.40366">
        <ele>131.36</ele>
        <time>2015-06-17T13:15:12Z</time>
      </trkpt>
      <trkpt lat="45.03552" lon="0.40366">
        <ele>131.84</ele>
        <time>2015-06-17T13:15:41Z</time>
      </trkpt>
      <trkpt lat="45.03551" lon="0.40366">
        <ele>132.8</ele>
        <time>2015-06-17T13:15:48Z</time>
      </trkpt>
      <trkpt lat="45.03551" lon="0.40364">
        <ele>131.84</ele>
        <time>2015-06-17T13:15:51Z</time>
      </trkpt>
      <trkpt lat="45.03553" lon="0.40364">
        <ele>131.36</ele>
        <time>2015-06-17T13:16:20Z</time>
      </trkpt>
      <trkpt lat="45.03552" lon="0.40368">
        <ele>131.36</ele>
        <time>2015-06-17T13:16:35Z</time>
      </trkpt>
      <trkpt lat="45.03552" lon="0.40369">
        <ele>131.36</ele>
        <time>2015-06-17T13:16:42Z</time>
      </trkpt>
      <trkpt lat="45.03552" lon="0.40362">
        <ele>130.88</ele>
        <time>2015-06-17T13:16:47Z</time>
      </trkpt>
      <trkpt lat="45.0353" lon="0.40349">
        <ele>130.88</ele>
        <time>2015-06-17T13:17:07Z</time>
      </trkpt>
      <trkpt lat="45.03523" lon="0.40343">
        <ele>130.88</ele>
        <time>2015-06-17T13:17:20Z</time>
      </trkpt>
      <trkpt lat="45.0351" lon="0.40323">
        <ele>129.92</ele>
        <time>2015-06-17T13:17:36Z</time>
      </trkpt>
      <trkpt lat="45.03507" lon="0.40319">
        <ele>129.43</ele>
        <time>2015-06-17T13:17:40Z</time>
      </trkpt>
      <trkpt lat="45.03503" lon="0.40317">
        <ele>128.95</ele>
        <time>2015-06-17T13:17:43Z</time>
      </trkpt>
      <trkpt lat="45.03496" lon="0.40314">
        <ele>127.99</ele>
        <time>2015-06-17T13:17:55Z</time>
      </trkpt>
      <trkpt lat="45.03489" lon="0.40313">
        <ele>127.51</ele>
        <time>2015-06-17T13:18:06Z</time>
      </trkpt>
      <trkpt lat="45.03473" lon="0.40318">
        <ele>125.59</ele>
        <time>2015-06-17T13:18:19Z</time>
      </trkpt>
      <trkpt lat="45.03469" lon="0.40319">
        <ele>125.11</ele>
        <time>2015-06-17T13:18:22Z</time>
      </trkpt>
      <trkpt lat="45.03465" lon="0.40319">
        <ele>124.63</ele>
        <time>2015-06-17T13:18:26Z</time>
      </trkpt>
      <trkpt lat="45.03463" lon="0.40319">
        <ele>124.15</ele>
        <time>2015-06-17T13:18:28Z</time>
      </trkpt>
      <trkpt lat="45.0345" lon="0.40302">
        <ele>121.74</ele>
        <time>2015-06-17T13:18:46Z</time>
      </trkpt>
      <trkpt lat="45.03447" lon="0.40294">
        <ele>121.26</ele>
        <time>2015-06-17T13:18:53Z</time>
      </trkpt>
      <trkpt lat="45.03444" lon="0.40287">
        <ele>120.3</ele>
        <time>2015-06-17T13:18:57Z</time>
      </trkpt>
      <trkpt lat="45.0344" lon="0.40277">
        <ele>119.34</ele>
        <time>2015-06-17T13:19:02Z</time>
      </trkpt>
      <trkpt lat="45.03436" lon="0.40264">
        <ele>118.86</ele>
        <time>2015-06-17T13:19:11Z</time>
      </trkpt>
      <trkpt lat="45.03434" lon="0.40257">
        <ele>118.38</ele>
        <time>2015-06-17T13:19:21Z</time>
      </trkpt>
      <trkpt lat="45.03433" lon="0.40255">
        <ele>118.38</ele>
        <time>2015-06-17T13:19:23Z</time>
      </trkpt>
      <trkpt lat="45.03432" lon="0.40252">
        <ele>118.38</ele>
        <time>2015-06-17T13:19:25Z</time>
      </trkpt>
      <trkpt lat="45.03421" lon="0.40238">
        <ele>118.38</ele>
        <time>2015-06-17T13:19:38Z</time>
      </trkpt>
      <trkpt lat="45.03407" lon="0.40222">
        <ele>117.42</ele>
        <time>2015-06-17T13:19:53Z</time>
      </trkpt>
      <trkpt lat="45.03402" lon="0.40217">
        <ele>117.42</ele>
        <time>2015-06-17T13:19:58Z</time>
      </trkpt>
      <trkpt lat="45.03388" lon="0.40208">
        <ele>116.94</ele>
        <time>2015-06-17T13:20:12Z</time>
      </trkpt>
      <trkpt lat="45.03378" lon="0.40205">
        <ele>118.38</ele>
        <time>2015-06-17T13:20:23Z</time>
      </trkpt>
      <trkpt lat="45.03376" lon="0.40204">
        <ele>118.38</ele>
        <time>2015-06-17T13:20:26Z</time>
      </trkpt>
      <trkpt lat="45.03365" lon="0.40198">
        <ele>118.38</ele>
        <time>2015-06-17T13:20:36Z</time>
      </trkpt>
      <trkpt lat="45.03361" lon="0.40204">
        <ele>118.86</ele>
        <time>2015-06-17T13:20:41Z</time>
      </trkpt>
      <trkpt lat="45.03363" lon="0.40212">
        <ele>119.34</ele>
        <time>2015-06-17T13:20:48Z</time>
      </trkpt>
      <trkpt lat="45.03369" lon="0.40213">
        <ele>119.34</ele>
        <time>2015-06-17T13:21:03Z</time>
      </trkpt>
      <trkpt lat="45.03367" lon="0.40213">
        <ele>119.34</ele>
        <time>2015-06-17T13:21:07Z</time>
      </trkpt>
      <trkpt lat="45.0336" lon="0.40213">
        <ele>119.34</ele>
        <time>2015-06-17T13:21:19Z</time>
      </trkpt>
      <trkpt lat="45.03361" lon="0.40214">
        <ele>118.86</ele>
        <time>2015-06-17T13:21:45Z</time>
      </trkpt>
      <trkpt lat="45.03363" lon="0.40216">
        <ele>118.38</ele>
        <time>2015-06-17T13:22:06Z</time>
      </trkpt>
      <trkpt lat="45.03363" lon="0.40212">
        <ele>118.38</ele>
        <time>2015-06-17T13:22:21Z</time>
      </trkpt>
      <trkpt lat="45.03361" lon="0.40212">
        <ele>118.38</ele>
        <time>2015-06-17T13:22:50Z</time>
      </trkpt>
      <trkpt lat="45.03362" lon="0.40216">
        <ele>118.38</ele>
        <time>2015-06-17T13:22:59Z</time>
      </trkpt>
      <trkpt lat="45.03362" lon="0.40231">
        <ele>119.82</ele>
        <time>2015-06-17T13:23:11Z</time>
      </trkpt>
      <trkpt lat="45.03364" lon="0.4023">
        <ele>119.82</ele>
        <time>2015-06-17T13:23:13Z</time>
      </trkpt>
      <trkpt lat="45.03364" lon="0.4024">
        <ele>119.82</ele>
        <time>2015-06-17T13:23:19Z</time>
      </trkpt>
      <trkpt lat="45.03364" lon="0.40245">
        <ele>119.82</ele>
        <time>2015-06-17T13:23:23Z</time>
      </trkpt>
      <trkpt lat="45.03363" lon="0.4026">
        <ele>120.3</ele>
        <time>2015-06-17T13:23:32Z</time>
      </trkpt>
      <trkpt lat="45.03362" lon="0.40272">
        <ele>120.3</ele>
        <time>2015-06-17T13:23:39Z</time>
      </trkpt>
      <trkpt lat="45.03361" lon="0.40281">
        <ele>120.3</ele>
        <time>2015-06-17T13:23:45Z</time>
      </trkpt>
      <trkpt lat="45.03361" lon="0.40305">
        <ele>120.3</ele>
        <time>2015-06-17T13:23:59Z</time>
      </trkpt>
      <trkpt lat="45.03361" lon="0.40331">
        <ele>120.78</ele>
        <time>2015-06-17T13:24:15Z</time>
      </trkpt>
      <trkpt lat="45.03359" lon="0.40356">
        <ele>121.74</ele>
        <time>2015-06-17T13:24:31Z</time>
      </trkpt>
      <trkpt lat="45.03358" lon="0.4038">
        <ele>120.3</ele>
        <time>2015-06-17T13:24:46Z</time>
      </trkpt>
      <trkpt lat="45.03358" lon="0.40382">
        <ele>120.3</ele>
        <time>2015-06-17T13:24:47Z</time>
      </trkpt>
      <trkpt lat="45.03358" lon="0.4039">
        <ele>120.3</ele>
        <time>2015-06-17T13:24:52Z</time>
      </trkpt>
      <trkpt lat="45.03358" lon="0.40396">
        <ele>121.74</ele>
        <time>2015-06-17T13:24:56Z</time>
      </trkpt>
      <trkpt lat="45.03357" lon="0.40405">
        <ele>122.22</ele>
        <time>2015-06-17T13:25:01Z</time>
      </trkpt>
      <trkpt lat="45.03357" lon="0.40413">
        <ele>122.22</ele>
        <time>2015-06-17T13:25:06Z</time>
      </trkpt>
      <trkpt lat="45.03357" lon="0.4042">
        <ele>122.22</ele>
        <time>2015-06-17T13:25:10Z</time>
      </trkpt>
      <trkpt lat="45.03356" lon="0.40446">
        <ele>122.22</ele>
        <time>2015-06-17T13:25:24Z</time>
      </trkpt>
      <trkpt lat="45.03352" lon="0.4046">
        <ele>122.22</ele>
        <time>2015-06-17T13:25:38Z</time>
      </trkpt>
      <trkpt lat="45.03352" lon="0.40459">
        <ele>122.22</ele>
        <time>2015-06-17T13:25:42Z</time>
      </trkpt>
      <trkpt lat="45.03352" lon="0.40463">
        <ele>122.71</ele>
        <time>2015-06-17T13:25:55Z</time>
      </trkpt>
      <trkpt lat="45.03352" lon="0.40463">
        <ele>121.74</ele>
        <time>2015-06-17T13:26:22Z</time>
      </trkpt>
      <trkpt lat="45.03352" lon="0.4046">
        <ele>122.22</ele>
        <time>2015-06-17T13:26:48Z</time>
      </trkpt>
      <trkpt lat="45.03353" lon="0.4046">
        <ele>121.74</ele>
        <time>2015-06-17T13:27:07Z</time>
      </trkpt>
      <trkpt lat="45.03353" lon="0.4046">
        <ele>121.74</ele>
        <time>2015-06-17T13:27:18Z</time>
      </trkpt>
      <trkpt lat="45.03352" lon="0.40457">
        <ele>122.71</ele>
        <time>2015-06-17T13:27:46Z</time>
      </trkpt>
      <trkpt lat="45.0335" lon="0.40454">
        <ele>121.74</ele>
        <time>2015-06-17T13:27:49Z</time>
      </trkpt>
      <trkpt lat="45.03351" lon="0.40457">
        <ele>122.22</ele>
        <time>2015-06-17T13:27:59Z</time>
      </trkpt>
      <trkpt lat="45.03352" lon="0.40462">
        <ele>122.22</ele>
        <time>2015-06-17T13:28:12Z</time>
      </trkpt>
      <trkpt lat="45.03353" lon="0.4047">
        <ele>122.22</ele>
        <time>2015-06-17T13:28:26Z</time>
      </trkpt>
      <trkpt lat="45.03353" lon="0.40471">
        <ele>122.71</ele>
        <time>2015-06-17T13:28:40Z</time>
      </trkpt>
      <trkpt lat="45.03352" lon="0.40484">
        <ele>123.19</ele>
        <time>2015-06-17T13:28:48Z</time>
      </trkpt>
      <trkpt lat="45.03349" lon="0.40492">
        <ele>123.19</ele>
        <time>2015-06-17T13:28:54Z</time>
      </trkpt>
      <trkpt lat="45.03345" lon="0.40512">
        <ele>123.19</ele>
        <time>2015-06-17T13:29:07Z</time>
      </trkpt>
      <trkpt lat="45.03338" lon="0.40538">
        <ele>124.15</ele>
        <time>2015-06-17T13:29:23Z</time>
      </trkpt>
      <trkpt lat="45.03332" lon="0.40559">
        <ele>124.63</ele>
        <time>2015-06-17T13:29:36Z</time>
      </trkpt>
      <trkpt lat="45.03329" lon="0.40582">
        <ele>125.11</ele>
        <time>2015-06-17T13:29:51Z</time>
      </trkpt>
      <trkpt lat="45.03328" lon="0.40603">
        <ele>126.07</ele>
        <time>2015-06-17T13:30:04Z</time>
      </trkpt>
      <trkpt lat="45.03324" lon="0.40624">
        <ele>126.55</ele>
        <time>2015-06-17T13:30:17Z</time>
      </trkpt>
      <trkpt lat="45.03323" lon="0.40645">
        <ele>127.03</ele>
        <time>2015-06-17T13:30:29Z</time>
      </trkpt>
      <trkpt lat="45.03323" lon="0.40652">
        <ele>127.03</ele>
        <time>2015-06-17T13:30:33Z</time>
      </trkpt>
      <trkpt lat="45.03325" lon="0.40687">
        <ele>128.47</ele>
        <time>2015-06-17T13:30:53Z</time>
      </trkpt>
      <trkpt lat="45.03326" lon="0.40702">
        <ele>128.95</ele>
        <time>2015-06-17T13:31:05Z</time>
      </trkpt>
      <trkpt lat="45.03326" lon="0.40702">
        <ele>128.95</ele>
        <time>2015-06-17T13:31:18Z</time>
      </trkpt>
      <trkpt lat="45.03328" lon="0.40703">
        <ele>128.95</ele>
        <time>2015-06-17T13:31:30Z</time>
      </trkpt>
      <trkpt lat="45.03329" lon="0.40705">
        <ele>128.47</ele>
        <time>2015-06-17T13:31:58Z</time>
      </trkpt>
      <trkpt lat="45.03328" lon="0.40702">
        <ele>128.47</ele>
        <time>2015-06-17T13:32:25Z</time>
      </trkpt>
      <trkpt lat="45.03325" lon="0.40702">
        <ele>128.95</ele>
        <time>2015-06-17T13:32:39Z</time>
      </trkpt>
      <trkpt lat="45.03325" lon="0.40702">
        <ele>128.95</ele>
        <time>2015-06-17T13:32:43Z</time>
      </trkpt>
      <trkpt lat="45.03328" lon="0.40704">
        <ele>128.95</ele>
        <time>2015-06-17T13:32:47Z</time>
      </trkpt>
      <trkpt lat="45.03333" lon="0.40738">
        <ele>129.92</ele>
        <time>2015-06-17T13:33:08Z</time>
      </trkpt>
      <trkpt lat="45.03334" lon="0.40767">
        <ele>130.88</ele>
        <time>2015-06-17T13:33:27Z</time>
      </trkpt>
      <trkpt lat="45.03333" lon="0.40792">
        <ele>131.84</ele>
        <time>2015-06-17T13:33:41Z</time>
      </trkpt>
      <trkpt lat="45.03335" lon="0.40808">
        <ele>132.8</ele>
        <time>2015-06-17T13:33:51Z</time>
      </trkpt>
      <trkpt lat="45.03337" lon="0.40826">
        <ele>133.28</ele>
        <time>2015-06-17T13:34:02Z</time>
      </trkpt>
      <trkpt lat="45.03341" lon="0.40856">
        <ele>135.2</ele>
        <time>2015-06-17T13:34:20Z</time>
      </trkpt>
      <trkpt lat="45.03342" lon="0.40865">
        <ele>136.16</ele>
        <time>2015-06-17T13:34:26Z</time>
      </trkpt>
      <trkpt lat="45.03342" lon="0.40872">
        <ele>136.16</ele>
        <time>2015-06-17T13:34:30Z</time>
      </trkpt>
      <trkpt lat="45.03343" lon="0.40879">
        <ele>136.16</ele>
        <time>2015-06-17T13:34:34Z</time>
      </trkpt>
      <trkpt lat="45.03344" lon="0.40907">
        <ele>136.64</ele>
        <time>2015-06-17T13:34:50Z</time>
      </trkpt>
      <trkpt lat="45.03347" lon="0.40917">
        <ele>137.13</ele>
        <time>2015-06-17T13:35:05Z</time>
      </trkpt>
      <trkpt lat="45.03345" lon="0.40918">
        <ele>137.13</ele>
        <time>2015-06-17T13:35:20Z</time>
      </trkpt>
      <trkpt lat="45.03342" lon="0.40921">
        <ele>137.13</ele>
        <time>2015-06-17T13:35:47Z</time>
      </trkpt>
      <trkpt lat="45.03341" lon="0.40922">
        <ele>137.61</ele>
        <time>2015-06-17T13:35:59Z</time>
      </trkpt>
      <trkpt lat="45.03341" lon="0.40921">
        <ele>137.61</ele>
        <time>2015-06-17T13:36:27Z</time>
      </trkpt>
      <trkpt lat="45.03345" lon="0.40918">
        <ele>137.61</ele>
        <time>2015-06-17T13:36:45Z</time>
      </trkpt>
      <trkpt lat="45.03347" lon="0.40918">
        <ele>136.64</ele>
        <time>2015-06-17T13:36:47Z</time>
      </trkpt>
      <trkpt lat="45.03345" lon="0.40921">
        <ele>136.64</ele>
        <time>2015-06-17T13:37:02Z</time>
      </trkpt>
      <trkpt lat="45.03345" lon="0.40922">
        <ele>136.64</ele>
        <time>2015-06-17T13:37:17Z</time>
      </trkpt>
      <trkpt lat="45.03345" lon="0.40921">
        <ele>136.64</ele>
        <time>2015-06-17T13:37:34Z</time>
      </trkpt>
      <trkpt lat="45.03344" lon="0.40922">
        <ele>136.64</ele>
        <time>2015-06-17T13:37:49Z</time>
      </trkpt>
      <trkpt lat="45.03344" lon="0.40923">
        <ele>136.16</ele>
        <time>2015-06-17T13:38:25Z</time>
      </trkpt>
      <trkpt lat="45.03343" lon="0.40921">
        <ele>136.16</ele>
        <time>2015-06-17T13:38:53Z</time>
      </trkpt>
      <trkpt lat="45.03346" lon="0.40921">
        <ele>136.16</ele>
        <time>2015-06-17T13:39:11Z</time>
      </trkpt>
      <trkpt lat="45.03341" lon="0.40919">
        <ele>136.16</ele>
        <time>2015-06-17T13:39:35Z</time>
      </trkpt>
      <trkpt lat="45.03341" lon="0.40925">
        <ele>136.16</ele>
        <time>2015-06-17T13:40:03Z</time>
      </trkpt>
      <trkpt lat="45.03338" lon="0.40928">
        <ele>136.16</ele>
        <time>2015-06-17T13:40:33Z</time>
      </trkpt>
      <trkpt lat="45.03335" lon="0.40931">
        <ele>136.16</ele>
        <time>2015-06-17T13:41:02Z</time>
      </trkpt>
      <trkpt lat="45.03335" lon="0.40934">
        <ele>137.13</ele>
        <time>2015-06-17T13:41:27Z</time>
      </trkpt>
      <trkpt lat="45.03337" lon="0.40933">
        <ele>137.61</ele>
        <time>2015-06-17T13:41:51Z</time>
      </trkpt>
      <trkpt lat="45.03336" lon="0.40932">
        <ele>138.09</ele>
        <time>2015-06-17T13:42:21Z</time>
      </trkpt>
      <trkpt lat="45.03335" lon="0.40931">
        <ele>138.09</ele>
        <time>2015-06-17T13:42:48Z</time>
      </trkpt>
      <trkpt lat="45.03337" lon="0.40929">
        <ele>138.09</ele>
        <time>2015-06-17T13:43:13Z</time>
      </trkpt>
      <trkpt lat="45.03339" lon="0.40927">
        <ele>138.09</ele>
        <time>2015-06-17T13:43:35Z</time>
      </trkpt>
      <trkpt lat="45.03341" lon="0.40928">
        <ele>138.57</ele>
        <time>2015-06-17T13:43:57Z</time>
      </trkpt>
      <trkpt lat="45.03345" lon="0.4092">
        <ele>138.57</ele>
        <time>2015-06-17T13:44:20Z</time>
      </trkpt>
      <trkpt lat="45.03344" lon="0.40919">
        <ele>138.57</ele>
        <time>2015-06-17T13:44:43Z</time>
      </trkpt>
      <trkpt lat="45.03344" lon="0.4092">
        <ele>138.57</ele>
        <time>2015-06-17T13:45:06Z</time>
      </trkpt>
      <trkpt lat="45.03345" lon="0.40921">
        <ele>138.57</ele>
        <time>2015-06-17T13:45:27Z</time>
      </trkpt>
      <trkpt lat="45.03343" lon="0.40919">
        <ele>138.57</ele>
        <time>2015-06-17T13:45:55Z</time>
      </trkpt>
      <trkpt lat="45.03343" lon="0.40919">
        <ele>137.13</ele>
        <time>2015-06-17T13:45:59Z</time>
      </trkpt>
      <trkpt lat="45.03344" lon="0.4092">
        <ele>139.05</ele>
        <time>2015-06-17T13:46:07Z</time>
      </trkpt>
      <trkpt lat="45.03344" lon="0.4092">
        <ele>137.61</ele>
        <time>2015-06-17T13:46:09Z</time>
      </trkpt>
      <trkpt lat="45.03344" lon="0.4092">
        <ele>137.13</ele>
        <time>2015-06-17T13:46:24Z</time>
      </trkpt>
      <trkpt lat="45.03344" lon="0.4092">
        <ele>139.05</ele>
        <time>2015-06-17T13:46:29Z</time>
      </trkpt>
      <trkpt lat="45.03344" lon="0.4092">
        <ele>138.09</ele>
        <time>2015-06-17T13:46:31Z</time>
      </trkpt>
      <trkpt lat="45.03345" lon="0.40919">
        <ele>138.09</ele>
        <time>2015-06-17T13:47:04Z</time>
      </trkpt>
      <trkpt lat="45.03344" lon="0.40919">
        <ele>138.09</ele>
        <time>2015-06-17T13:47:38Z</time>
      </trkpt>
      <trkpt lat="45.03343" lon="0.4092">
        <ele>138.09</ele>
        <time>2015-06-17T13:48:13Z</time>
      </trkpt>
      <trkpt lat="45.03344" lon="0.4092">
        <ele>137.61</ele>
        <time>2015-06-17T13:48:55Z</time>
      </trkpt>
      <trkpt lat="45.03344" lon="0.40919">
        <ele>137.61</ele>
        <time>2015-06-17T13:49:28Z</time>
      </trkpt>
      <trkpt lat="45.03345" lon="0.4092">
        <ele>137.61</ele>
        <time>2015-06-17T13:50:04Z</time>
      </trkpt>
      <trkpt lat="45.03343" lon="0.40919">
        <ele>137.61</ele>
        <time>2015-06-17T13:50:40Z</time>
      </trkpt>
      <trkpt lat="45.03348" lon="0.4092">
        <ele>137.61</ele>
        <time>2015-06-17T13:51:16Z</time>
      </trkpt>
      <trkpt lat="45.03346" lon="0.4092">
        <ele>127.51</ele>
        <time>2015-06-17T13:51:51Z</time>
      </trkpt>
      <trkpt lat="45.03346" lon="0.4092">
        <ele>140.01</ele>
        <time>2015-06-17T13:51:52Z</time>
      </trkpt>
      <trkpt lat="45.03347" lon="0.40918">
        <ele>143.85</ele>
        <time>2015-06-17T13:51:53Z</time>
      </trkpt>
      <trkpt lat="45.03347" lon="0.40918">
        <ele>138.09</ele>
        <time>2015-06-17T13:51:54Z</time>
      </trkpt>
      <trkpt lat="45.03346" lon="0.40918">
        <ele>138.09</ele>
        <time>2015-06-17T13:51:55Z</time>
      </trkpt>
      <trkpt lat="45.03346" lon="0.4092">
        <ele>137.61</ele>
        <time>2015-06-17T13:52:28Z</time>
      </trkpt>
      <trkpt lat="45.03346" lon="0.4092">
        <ele>134.24</ele>
        <time>2015-06-17T13:52:31Z</time>
      </trkpt>
      <trkpt lat="45.03346" lon="0.4092">
        <ele>140.01</ele>
        <time>2015-06-17T13:52:32Z</time>
      </trkpt>
      <trkpt lat="45.03346" lon="0.4092">
        <ele>140.01</ele>
        <time>2015-06-17T13:52:33Z</time>
      </trkpt>
      <trkpt lat="45.03346" lon="0.40921">
        <ele>138.09</ele>
        <time>2015-06-17T13:52:35Z</time>
      </trkpt>
      <trkpt lat="45.03344" lon="0.40922">
        <ele>138.09</ele>
        <time>2015-06-17T13:53:06Z</time>
      </trkpt>
      <trkpt lat="45.03346" lon="0.40922">
        <ele>138.09</ele>
        <time>2015-06-17T13:53:38Z</time>
      </trkpt>
      <trkpt lat="45.03345" lon="0.40921">
        <ele>138.09</ele>
        <time>2015-06-17T13:54:10Z</time>
      </trkpt>
      <trkpt lat="45.03346" lon="0.40922">
        <ele>138.09</ele>
        <time>2015-06-17T13:54:36Z</time>
      </trkpt>
      <trkpt lat="45.03345" lon="0.40921">
        <ele>138.09</ele>
        <time>2015-06-17T13:55:03Z</time>
      </trkpt>
      <trkpt lat="45.03346" lon="0.40922">
        <ele>139.53</ele>
        <time>2015-06-17T13:55:18Z</time>
      </trkpt>
      <trkpt lat="45.03342" lon="0.40923">
        <ele>139.53</ele>
        <time>2015-06-17T13:55:50Z</time>
      </trkpt>
      <trkpt lat="45.03341" lon="0.40923">
        <ele>139.53</ele>
        <time>2015-06-17T13:55:57Z</time>
      </trkpt>
      <trkpt lat="45.03341" lon="0.4092">
        <ele>141.93</ele>
        <time>2015-06-17T13:55:59Z</time>
      </trkpt>
      <trkpt lat="45.03344" lon="0.40924">
        <ele>139.53</ele>
        <time>2015-06-17T13:56:14Z</time>
      </trkpt>
      <trkpt lat="45.03345" lon="0.40926">
        <ele>139.05</ele>
        <time>2015-06-17T13:56:29Z</time>
      </trkpt>
      <trkpt lat="45.03347" lon="0.40926">
        <ele>139.53</ele>
        <time>2015-06-17T13:56:51Z</time>
      </trkpt>
      <trkpt lat="45.03341" lon="0.40926">
        <ele>140.01</ele>
        <time>2015-06-17T13:57:16Z</time>
      </trkpt>
      <trkpt lat="45.03342" lon="0.40925">
        <ele>140.01</ele>
        <time>2015-06-17T13:57:38Z</time>
      </trkpt>
      <trkpt lat="45.03342" lon="0.40926">
        <ele>140.01</ele>
        <time>2015-06-17T13:57:40Z</time>
      </trkpt>
      <trkpt lat="45.03341" lon="0.40942">
        <ele>140.01</ele>
        <time>2015-06-17T13:57:51Z</time>
      </trkpt>
      <trkpt lat="45.03337" lon="0.4097">
        <ele>140.49</ele>
        <time>2015-06-17T13:58:05Z</time>
      </trkpt>
      <trkpt lat="45.03336" lon="0.40979">
        <ele>140.49</ele>
        <time>2015-06-17T13:58:09Z</time>
      </trkpt>
      <trkpt lat="45.03336" lon="0.40992">
        <ele>140.97</ele>
        <time>2015-06-17T13:58:17Z</time>
      </trkpt>
      <trkpt lat="45.03334" lon="0.4101">
        <ele>141.93</ele>
        <time>2015-06-17T13:58:30Z</time>
      </trkpt>
      <trkpt lat="45.03333" lon="0.41036">
        <ele>142.41</ele>
        <time>2015-06-17T13:58:44Z</time>
      </trkpt>
      <trkpt lat="45.03332" lon="0.4104">
        <ele>142.41</ele>
        <time>2015-06-17T13:58:46Z</time>
      </trkpt>
      <trkpt lat="45.0333" lon="0.41065">
        <ele>143.37</ele>
        <time>2015-06-17T13:59:01Z</time>
      </trkpt>
      <trkpt lat="45.03326" lon="0.41092">
        <ele>143.85</ele>
        <time>2015-06-17T13:59:17Z</time>
      </trkpt>
      <trkpt lat="45.03326" lon="0.41106">
        <ele>144.34</ele>
        <time>2015-06-17T13:59:26Z</time>
      </trkpt>
      <trkpt lat="45.03325" lon="0.41115">
        <ele>144.34</ele>
        <time>2015-06-17T13:59:31Z</time>
      </trkpt>
      <trkpt lat="45.03324" lon="0.41135">
        <ele>145.3</ele>
        <time>2015-06-17T13:59:47Z</time>
      </trkpt>
      <trkpt lat="45.03325" lon="0.41138">
        <ele>145.3</ele>
        <time>2015-06-17T13:59:59Z</time>
      </trkpt>
      <trkpt lat="45.03325" lon="0.41159">
        <ele>145.78</ele>
        <time>2015-06-17T14:00:13Z</time>
      </trkpt>
      <trkpt lat="45.03326" lon="0.41169">
        <ele>145.78</ele>
        <time>2015-06-17T14:00:18Z</time>
      </trkpt>
      <trkpt lat="45.03319" lon="0.41195">
        <ele>146.26</ele>
        <time>2015-06-17T14:00:34Z</time>
      </trkpt>
      <trkpt lat="45.03317" lon="0.41197">
        <ele>146.74</ele>
        <time>2015-06-17T14:00:37Z</time>
      </trkpt>
      <trkpt lat="45.03302" lon="0.41218">
        <ele>146.74</ele>
        <time>2015-06-17T14:00:53Z</time>
      </trkpt>
      <trkpt lat="45.033" lon="0.4122">
        <ele>146.74</ele>
        <time>2015-06-17T14:01:07Z</time>
      </trkpt>
      <trkpt lat="45.03289" lon="0.41234">
        <ele>146.74</ele>
        <time>2015-06-17T14:01:20Z</time>
      </trkpt>
      <trkpt lat="45.03288" lon="0.41238">
        <ele>145.3</ele>
        <time>2015-06-17T14:01:23Z</time>
      </trkpt>
      <trkpt lat="45.03273" lon="0.41262">
        <ele>144.34</ele>
        <time>2015-06-17T14:01:39Z</time>
      </trkpt>
      <trkpt lat="45.03262" lon="0.41288">
        <ele>142.41</ele>
        <time>2015-06-17T14:01:55Z</time>
      </trkpt>
      <trkpt lat="45.03257" lon="0.41299">
        <ele>141.93</ele>
        <time>2015-06-17T14:02:02Z</time>
      </trkpt>
      <trkpt lat="45.03249" lon="0.41316">
        <ele>140.01</ele>
        <time>2015-06-17T14:02:14Z</time>
      </trkpt>
      <trkpt lat="45.03233" lon="0.41347">
        <ele>139.05</ele>
        <time>2015-06-17T14:02:33Z</time>
      </trkpt>
      <trkpt lat="45.03225" lon="0.41378">
        <ele>137.61</ele>
        <time>2015-06-17T14:02:50Z</time>
      </trkpt>
      <trkpt lat="45.03216" lon="0.41404">
        <ele>137.61</ele>
        <time>2015-06-17T14:03:07Z</time>
      </trkpt>
      <trkpt lat="45.03213" lon="0.41402">
        <ele>136.64</ele>
        <time>2015-06-17T14:03:13Z</time>
      </trkpt>
      <trkpt lat="45.03211" lon="0.41405">
        <ele>136.64</ele>
        <time>2015-06-17T14:03:24Z</time>
      </trkpt>
      <trkpt lat="45.03212" lon="0.41409">
        <ele>136.64</ele>
        <time>2015-06-17T14:03:33Z</time>
      </trkpt>
      <trkpt lat="45.03214" lon="0.4141">
        <ele>136.64</ele>
        <time>2015-06-17T14:04:01Z</time>
      </trkpt>
      <trkpt lat="45.03216" lon="0.4141">
        <ele>136.64</ele>
        <time>2015-06-17T14:04:25Z</time>
      </trkpt>
      <trkpt lat="45.03214" lon="0.41406">
        <ele>136.64</ele>
        <time>2015-06-17T14:04:36Z</time>
      </trkpt>
      <trkpt lat="45.03211" lon="0.41405">
        <ele>136.64</ele>
        <time>2015-06-17T14:04:44Z</time>
      </trkpt>
      <trkpt lat="45.0321" lon="0.41406">
        <ele>136.16</ele>
        <time>2015-06-17T14:04:55Z</time>
      </trkpt>
      <trkpt lat="45.03211" lon="0.41402">
        <ele>136.16</ele>
        <time>2015-06-17T14:05:17Z</time>
      </trkpt>
      <trkpt lat="45.0321" lon="0.41407">
        <ele>136.16</ele>
        <time>2015-06-17T14:05:19Z</time>
      </trkpt>
      <trkpt lat="45.03209" lon="0.4142">
        <ele>136.16</ele>
        <time>2015-06-17T14:05:25Z</time>
      </trkpt>
      <trkpt lat="45.032" lon="0.41441">
        <ele>135.68</ele>
        <time>2015-06-17T14:05:39Z</time>
      </trkpt>
      <trkpt lat="45.03188" lon="0.41475">
        <ele>133.28</ele>
        <time>2015-06-17T14:06:02Z</time>
      </trkpt>
      <trkpt lat="45.03185" lon="0.41486">
        <ele>132.32</ele>
        <time>2015-06-17T14:06:12Z</time>
      </trkpt>
      <trkpt lat="45.0318" lon="0.41514">
        <ele>129.43</ele>
        <time>2015-06-17T14:06:27Z</time>
      </trkpt>
      <trkpt lat="45.03178" lon="0.41537">
        <ele>127.51</ele>
        <time>2015-06-17T14:06:41Z</time>
      </trkpt>
      <trkpt lat="45.03179" lon="0.41546">
        <ele>127.03</ele>
        <time>2015-06-17T14:06:47Z</time>
      </trkpt>
      <trkpt lat="45.03166" lon="0.41573">
        <ele>124.15</ele>
        <time>2015-06-17T14:07:04Z</time>
      </trkpt>
      <trkpt lat="45.03146" lon="0.41581">
        <ele>120.78</ele>
        <time>2015-06-17T14:07:19Z</time>
      </trkpt>
      <trkpt lat="45.03129" lon="0.41582">
        <ele>119.34</ele>
        <time>2015-06-17T14:07:33Z</time>
      </trkpt>
      <trkpt lat="45.03125" lon="0.41583">
        <ele>118.86</ele>
        <time>2015-06-17T14:07:37Z</time>
      </trkpt>
      <trkpt lat="45.03122" lon="0.41581">
        <ele>118.86</ele>
        <time>2015-06-17T14:07:40Z</time>
      </trkpt>
      <trkpt lat="45.03112" lon="0.41583">
        <ele>117.9</ele>
        <time>2015-06-17T14:07:48Z</time>
      </trkpt>
      <trkpt lat="45.03102" lon="0.41587">
        <ele>117.42</ele>
        <time>2015-06-17T14:07:56Z</time>
      </trkpt>
      <trkpt lat="45.03099" lon="0.41593">
        <ele>116.94</ele>
        <time>2015-06-17T14:08:09Z</time>
      </trkpt>
      <trkpt lat="45.03098" lon="0.41589">
        <ele>116.94</ele>
        <time>2015-06-17T14:08:24Z</time>
      </trkpt>
      <trkpt lat="45.03095" lon="0.41584">
        <ele>116.94</ele>
        <time>2015-06-17T14:08:49Z</time>
      </trkpt>
      <trkpt lat="45.0309" lon="0.41582">
        <ele>116.46</ele>
        <time>2015-06-17T14:09:14Z</time>
      </trkpt>
      <trkpt lat="45.03088" lon="0.41584">
        <ele>116.46</ele>
        <time>2015-06-17T14:09:25Z</time>
      </trkpt>
      <trkpt lat="45.03086" lon="0.41588">
        <ele>116.46</ele>
        <time>2015-06-17T14:09:28Z</time>
      </trkpt>
      <trkpt lat="45.03069" lon="0.41606">
        <ele>115.5</ele>
        <time>2015-06-17T14:09:48Z</time>
      </trkpt>
      <trkpt lat="45.03051" lon="0.41626">
        <ele>114.53</ele>
        <time>2015-06-17T14:10:06Z</time>
      </trkpt>
      <trkpt lat="45.0305" lon="0.41627">
        <ele>114.53</ele>
        <time>2015-06-17T14:10:07Z</time>
      </trkpt>
      <trkpt lat="45.03044" lon="0.41634">
        <ele>113.57</ele>
        <time>2015-06-17T14:10:13Z</time>
      </trkpt>
      <trkpt lat="45.03037" lon="0.41641">
        <ele>113.57</ele>
        <time>2015-06-17T14:10:19Z</time>
      </trkpt>
      <trkpt lat="45.03022" lon="0.4166">
        <ele>112.61</ele>
        <time>2015-06-17T14:10:35Z</time>
      </trkpt>
      <trkpt lat="45.03006" lon="0.41671">
        <ele>111.65</ele>
        <time>2015-06-17T14:10:49Z</time>
      </trkpt>
      <trkpt lat="45.02995" lon="0.41681">
        <ele>110.69</ele>
        <time>2015-06-17T14:11:00Z</time>
      </trkpt>
      <trkpt lat="45.02981" lon="0.41692">
        <ele>109.73</ele>
        <time>2015-06-17T14:11:12Z</time>
      </trkpt>
      <trkpt lat="45.02965" lon="0.41697">
        <ele>109.25</ele>
        <time>2015-06-17T14:11:27Z</time>
      </trkpt>
      <trkpt lat="45.02947" lon="0.41702">
        <ele>108.29</ele>
        <time>2015-06-17T14:11:42Z</time>
      </trkpt>
      <trkpt lat="45.02943" lon="0.41703">
        <ele>108.29</ele>
        <time>2015-06-17T14:11:46Z</time>
      </trkpt>
      <trkpt lat="45.0292" lon="0.41706">
        <ele>107.32</ele>
        <time>2015-06-17T14:12:04Z</time>
      </trkpt>
      <trkpt lat="45.02897" lon="0.41711">
        <ele>106.84</ele>
        <time>2015-06-17T14:12:23Z</time>
      </trkpt>
      <trkpt lat="45.02885" lon="0.41712">
        <ele>106.36</ele>
        <time>2015-06-17T14:12:34Z</time>
      </trkpt>
      <trkpt lat="45.02882" lon="0.41709">
        <ele>106.36</ele>
        <time>2015-06-17T14:12:46Z</time>
      </trkpt>
      <trkpt lat="45.02881" lon="0.41711">
        <ele>105.88</ele>
        <time>2015-06-17T14:12:50Z</time>
      </trkpt>
      <trkpt lat="45.02882" lon="0.41712">
        <ele>105.88</ele>
        <time>2015-06-17T14:12:52Z</time>
      </trkpt>
      <trkpt lat="45.02883" lon="0.41709">
        <ele>105.4</ele>
        <time>2015-06-17T14:13:07Z</time>
      </trkpt>
      <trkpt lat="45.02882" lon="0.41709">
        <ele>107.32</ele>
        <time>2015-06-17T14:13:24Z</time>
      </trkpt>
      <trkpt lat="45.02883" lon="0.41711">
        <ele>105.88</ele>
        <time>2015-06-17T14:13:49Z</time>
      </trkpt>
      <trkpt lat="45.02885" lon="0.41709">
        <ele>105.88</ele>
        <time>2015-06-17T14:14:16Z</time>
      </trkpt>
      <trkpt lat="45.02885" lon="0.4171">
        <ele>105.88</ele>
        <time>2015-06-17T14:14:34Z</time>
      </trkpt>
      <trkpt lat="45.02885" lon="0.41708">
        <ele>105.88</ele>
        <time>2015-06-17T14:14:46Z</time>
      </trkpt>
      <trkpt lat="45.02883" lon="0.41715">
        <ele>105.88</ele>
        <time>2015-06-17T14:14:51Z</time>
      </trkpt>
      <trkpt lat="45.0288" lon="0.41718">
        <ele>105.88</ele>
        <time>2015-06-17T14:14:55Z</time>
      </trkpt>
      <trkpt lat="45.02877" lon="0.41719">
        <ele>105.88</ele>
        <time>2015-06-17T14:14:58Z</time>
      </trkpt>
      <trkpt lat="45.02857" lon="0.41727">
        <ele>105.4</ele>
        <time>2015-06-17T14:15:14Z</time>
      </trkpt>
      <trkpt lat="45.02837" lon="0.41744">
        <ele>104.92</ele>
        <time>2015-06-17T14:15:32Z</time>
      </trkpt>
      <trkpt lat="45.02825" lon="0.41761">
        <ele>104.44</ele>
        <time>2015-06-17T14:15:46Z</time>
      </trkpt>
      <trkpt lat="45.02813" lon="0.41778">
        <ele>103.96</ele>
        <time>2015-06-17T14:16:01Z</time>
      </trkpt>
      <trkpt lat="45.0281" lon="0.4178">
        <ele>103</ele>
        <time>2015-06-17T14:16:22Z</time>
      </trkpt>
      <trkpt lat="45.02805" lon="0.41777">
        <ele>103</ele>
        <time>2015-06-17T14:16:31Z</time>
      </trkpt>
      <trkpt lat="45.028" lon="0.41776">
        <ele>104.44</ele>
        <time>2015-06-17T14:16:36Z</time>
      </trkpt>
      <trkpt lat="45.0279" lon="0.4178">
        <ele>104.92</ele>
        <time>2015-06-17T14:16:50Z</time>
      </trkpt>
      <trkpt lat="45.02782" lon="0.41782">
        <ele>106.36</ele>
        <time>2015-06-17T14:17:03Z</time>
      </trkpt>
      <trkpt lat="45.02773" lon="0.41785">
        <ele>106.84</ele>
        <time>2015-06-17T14:17:14Z</time>
      </trkpt>
      <trkpt lat="45.02761" lon="0.41788">
        <ele>108.77</ele>
        <time>2015-06-17T14:17:30Z</time>
      </trkpt>
      <trkpt lat="45.02749" lon="0.41788">
        <ele>109.73</ele>
        <time>2015-06-17T14:17:42Z</time>
      </trkpt>
      <trkpt lat="45.02741" lon="0.41787">
        <ele>110.69</ele>
        <time>2015-06-17T14:17:53Z</time>
      </trkpt>
      <trkpt lat="45.02732" lon="0.41786">
        <ele>111.65</ele>
        <time>2015-06-17T14:18:07Z</time>
      </trkpt>
      <trkpt lat="45.02723" lon="0.4178">
        <ele>113.09</ele>
        <time>2015-06-17T14:18:21Z</time>
      </trkpt>
      <trkpt lat="45.02712" lon="0.41773">
        <ele>115.01</ele>
        <time>2015-06-17T14:18:37Z</time>
      </trkpt>
      <trkpt lat="45.02703" lon="0.4177">
        <ele>116.46</ele>
        <time>2015-06-17T14:18:50Z</time>
      </trkpt>
      <trkpt lat="45.02701" lon="0.41768">
        <ele>117.42</ele>
        <time>2015-06-17T14:19:04Z</time>
      </trkpt>
      <trkpt lat="45.02705" lon="0.41768">
        <ele>117.42</ele>
        <time>2015-06-17T14:19:14Z</time>
      </trkpt>
      <trkpt lat="45.02703" lon="0.41768">
        <ele>117.42</ele>
        <time>2015-06-17T14:19:27Z</time>
      </trkpt>
      <trkpt lat="45.027" lon="0.41767">
        <ele>117.42</ele>
        <time>2015-06-17T14:19:54Z</time>
      </trkpt>
      <trkpt lat="45.02701" lon="0.41771">
        <ele>117.42</ele>
        <time>2015-06-17T14:20:19Z</time>
      </trkpt>
      <trkpt lat="45.027" lon="0.41768">
        <ele>117.42</ele>
        <time>2015-06-17T14:20:40Z</time>
      </trkpt>
      <trkpt lat="45.02692" lon="0.41763">
        <ele>118.38</ele>
        <time>2015-06-17T14:20:52Z</time>
      </trkpt>
      <trkpt lat="45.02679" lon="0.41754">
        <ele>120.78</ele>
        <time>2015-06-17T14:21:09Z</time>
      </trkpt>
      <trkpt lat="45.02674" lon="0.41749">
        <ele>122.22</ele>
        <time>2015-06-17T14:21:16Z</time>
      </trkpt>
      <trkpt lat="45.0266" lon="0.41734">
        <ele>123.19</ele>
        <time>2015-06-17T14:21:31Z</time>
      </trkpt>
      <trkpt lat="45.02652" lon="0.41725">
        <ele>124.63</ele>
        <time>2015-06-17T14:21:45Z</time>
      </trkpt>
      <trkpt lat="45.02652" lon="0.4172">
        <ele>124.63</ele>
        <time>2015-06-17T14:22:13Z</time>
      </trkpt>
      <trkpt lat="45.02649" lon="0.41718">
        <ele>124.63</ele>
        <time>2015-06-17T14:22:30Z</time>
      </trkpt>
      <trkpt lat="45.02645" lon="0.41711">
        <ele>124.63</ele>
        <time>2015-06-17T14:22:42Z</time>
      </trkpt>
      <trkpt lat="45.02649" lon="0.41717">
        <ele>124.63</ele>
        <time>2015-06-17T14:22:58Z</time>
      </trkpt>
      <trkpt lat="45.0265" lon="0.41718">
        <ele>124.63</ele>
        <time>2015-06-17T14:23:09Z</time>
      </trkpt>
      <trkpt lat="45.02667" lon="0.41723">
        <ele>123.19</ele>
        <time>2015-06-17T14:23:24Z</time>
      </trkpt>
      <trkpt lat="45.02681" lon="0.41715">
        <ele>123.19</ele>
        <time>2015-06-17T14:23:37Z</time>
      </trkpt>
      <trkpt lat="45.02689" lon="0.41708">
        <ele>124.63</ele>
        <time>2015-06-17T14:23:52Z</time>
      </trkpt>
      <trkpt lat="45.02695" lon="0.41703">
        <ele>123.19</ele>
        <time>2015-06-17T14:23:59Z</time>
      </trkpt>
      <trkpt lat="45.02707" lon="0.41692">
        <ele>124.15</ele>
        <time>2015-06-17T14:24:16Z</time>
      </trkpt>
      <trkpt lat="45.02714" lon="0.41681">
        <ele>124.15</ele>
        <time>2015-06-17T14:24:30Z</time>
      </trkpt>
      <trkpt lat="45.0272" lon="0.41668">
        <ele>123.19</ele>
        <time>2015-06-17T14:24:38Z</time>
      </trkpt>
      <trkpt lat="45.0273" lon="0.41644">
        <ele>123.19</ele>
        <time>2015-06-17T14:24:53Z</time>
      </trkpt>
      <trkpt lat="45.02743" lon="0.41624">
        <ele>123.19</ele>
        <time>2015-06-17T14:25:06Z</time>
      </trkpt>
      <trkpt lat="45.02743" lon="0.41625">
        <ele>123.19</ele>
        <time>2015-06-17T14:25:07Z</time>
      </trkpt>
      <trkpt lat="45.02738" lon="0.41638">
        <ele>123.19</ele>
        <time>2015-06-17T14:25:18Z</time>
      </trkpt>
      <trkpt lat="45.02735" lon="0.41646">
        <ele>123.19</ele>
        <time>2015-06-17T14:25:24Z</time>
      </trkpt>
      <trkpt lat="45.02733" lon="0.4165">
        <ele>123.19</ele>
        <time>2015-06-17T14:25:27Z</time>
      </trkpt>
      <trkpt lat="45.02726" lon="0.41669">
        <ele>123.19</ele>
        <time>2015-06-17T14:25:40Z</time>
      </trkpt>
      <trkpt lat="45.02712" lon="0.41689">
        <ele>123.19</ele>
        <time>2015-06-17T14:25:55Z</time>
      </trkpt>
      <trkpt lat="45.02709" lon="0.41691">
        <ele>124.63</ele>
        <time>2015-06-17T14:25:57Z</time>
      </trkpt>
      <trkpt lat="45.02707" lon="0.41694">
        <ele>124.63</ele>
        <time>2015-06-17T14:25:59Z</time>
      </trkpt>
      <trkpt lat="45.0269" lon="0.41712">
        <ele>125.11</ele>
        <time>2015-06-17T14:26:14Z</time>
      </trkpt>
      <trkpt lat="45.02683" lon="0.41715">
        <ele>125.11</ele>
        <time>2015-06-17T14:26:19Z</time>
      </trkpt>
      <trkpt lat="45.02673" lon="0.4172">
        <ele>123.67</ele>
        <time>2015-06-17T14:26:27Z</time>
      </trkpt>
      <trkpt lat="45.02664" lon="0.4172">
        <ele>123.19</ele>
        <time>2015-06-17T14:26:35Z</time>
      </trkpt>
      <trkpt lat="45.02653" lon="0.41712">
        <ele>123.19</ele>
        <time>2015-06-17T14:26:48Z</time>
      </trkpt>
      <trkpt lat="45.0264" lon="0.417">
        <ele>124.15</ele>
        <time>2015-06-17T14:27:01Z</time>
      </trkpt>
      <trkpt lat="45.02635" lon="0.41695">
        <ele>124.63</ele>
        <time>2015-06-17T14:27:06Z</time>
      </trkpt>
      <trkpt lat="45.02618" lon="0.4168">
        <ele>124.63</ele>
        <time>2015-06-17T14:27:21Z</time>
      </trkpt>
      <trkpt lat="45.02615" lon="0.41676">
        <ele>123.19</ele>
        <time>2015-06-17T14:27:25Z</time>
      </trkpt>
      <trkpt lat="45.02611" lon="0.41672">
        <ele>123.19</ele>
        <time>2015-06-17T14:27:29Z</time>
      </trkpt>
      <trkpt lat="45.02596" lon="0.41657">
        <ele>123.19</ele>
        <time>2015-06-17T14:27:44Z</time>
      </trkpt>
      <trkpt lat="45.02583" lon="0.4164">
        <ele>122.71</ele>
        <time>2015-06-17T14:27:59Z</time>
      </trkpt>
      <trkpt lat="45.02579" lon="0.41635">
        <ele>122.22</ele>
        <time>2015-06-17T14:28:04Z</time>
      </trkpt>
      <trkpt lat="45.02564" lon="0.4162">
        <ele>121.74</ele>
        <time>2015-06-17T14:28:20Z</time>
      </trkpt>
      <trkpt lat="45.02546" lon="0.41606">
        <ele>123.19</ele>
        <time>2015-06-17T14:28:36Z</time>
      </trkpt>
      <trkpt lat="45.02543" lon="0.41601">
        <ele>123.67</ele>
        <time>2015-06-17T14:28:39Z</time>
      </trkpt>
      <trkpt lat="45.0254" lon="0.41597">
        <ele>123.67</ele>
        <time>2015-06-17T14:28:42Z</time>
      </trkpt>
      <trkpt lat="45.02547" lon="0.41577">
        <ele>125.59</ele>
        <time>2015-06-17T14:28:56Z</time>
      </trkpt>
      <trkpt lat="45.02553" lon="0.4157">
        <ele>126.07</ele>
        <time>2015-06-17T14:29:03Z</time>
      </trkpt>
      <trkpt lat="45.0257" lon="0.41559">
        <ele>127.51</ele>
        <time>2015-06-17T14:29:21Z</time>
      </trkpt>
      <trkpt lat="45.02572" lon="0.41557">
        <ele>127.51</ele>
        <time>2015-06-17T14:29:24Z</time>
      </trkpt>
      <trkpt lat="45.02585" lon="0.41554">
        <ele>127.51</ele>
        <time>2015-06-17T14:29:41Z</time>
      </trkpt>
      <trkpt lat="45.02593" lon="0.41551">
        <ele>127.51</ele>
        <time>2015-06-17T14:29:56Z</time>
      </trkpt>
      <trkpt lat="45.02613" lon="0.41542">
        <ele>127.51</ele>
        <time>2015-06-17T14:30:16Z</time>
      </trkpt>
      <trkpt lat="45.02627" lon="0.4154">
        <ele>127.51</ele>
        <time>2015-06-17T14:30:33Z</time>
      </trkpt>
      <trkpt lat="45.02627" lon="0.41541">
        <ele>127.51</ele>
        <time>2015-06-17T14:30:47Z</time>
      </trkpt>
      <trkpt lat="45.02627" lon="0.41542">
        <ele>127.51</ele>
        <time>2015-06-17T14:31:01Z</time>
      </trkpt>
      <trkpt lat="45.02627" lon="0.41542">
        <ele>127.51</ele>
        <time>2015-06-17T14:31:20Z</time>
      </trkpt>
      <trkpt lat="45.02627" lon="0.41543">
        <ele>127.99</ele>
        <time>2015-06-17T14:31:36Z</time>
      </trkpt>
      <trkpt lat="45.02627" lon="0.41545">
        <ele>127.99</ele>
        <time>2015-06-17T14:31:57Z</time>
      </trkpt>
      <trkpt lat="45.02626" lon="0.41542">
        <ele>127.99</ele>
        <time>2015-06-17T14:32:19Z</time>
      </trkpt>
      <trkpt lat="45.02626" lon="0.41543">
        <ele>127.51</ele>
        <time>2015-06-17T14:32:33Z</time>
      </trkpt>
      <trkpt lat="45.02625" lon="0.41542">
        <ele>127.51</ele>
        <time>2015-06-17T14:32:59Z</time>
      </trkpt>
      <trkpt lat="45.02634" lon="0.41539">
        <ele>127.03</ele>
        <time>2015-06-17T14:33:16Z</time>
      </trkpt>
      <trkpt lat="45.0265" lon="0.41531">
        <ele>127.03</ele>
        <time>2015-06-17T14:33:36Z</time>
      </trkpt>
      <trkpt lat="45.02661" lon="0.41524">
        <ele>128.47</ele>
        <time>2015-06-17T14:33:50Z</time>
      </trkpt>
      <trkpt lat="45.02671" lon="0.41517">
        <ele>129.43</ele>
        <time>2015-06-17T14:34:03Z</time>
      </trkpt>
      <trkpt lat="45.02683" lon="0.41508">
        <ele>130.4</ele>
        <time>2015-06-17T14:34:15Z</time>
      </trkpt>
      <trkpt lat="45.02685" lon="0.41506">
        <ele>130.88</ele>
        <time>2015-06-17T14:34:19Z</time>
      </trkpt>
      <trkpt lat="45.02688" lon="0.41502">
        <ele>130.88</ele>
        <time>2015-06-17T14:34:23Z</time>
      </trkpt>
      <trkpt lat="45.027" lon="0.41485">
        <ele>131.84</ele>
        <time>2015-06-17T14:34:40Z</time>
      </trkpt>
      <trkpt lat="45.02716" lon="0.41462">
        <ele>132.8</ele>
        <time>2015-06-17T14:34:58Z</time>
      </trkpt>
      <trkpt lat="45.02729" lon="0.41446">
        <ele>132.8</ele>
        <time>2015-06-17T14:35:13Z</time>
      </trkpt>
      <trkpt lat="45.02743" lon="0.41432">
        <ele>132.8</ele>
        <time>2015-06-17T14:35:28Z</time>
      </trkpt>
      <trkpt lat="45.02763" lon="0.41431">
        <ele>131.36</ele>
        <time>2015-06-17T14:35:44Z</time>
      </trkpt>
      <trkpt lat="45.02782" lon="0.4143">
        <ele>133.28</ele>
        <time>2015-06-17T14:36:01Z</time>
      </trkpt>
      <trkpt lat="45.02803" lon="0.41421">
        <ele>134.72</ele>
        <time>2015-06-17T14:36:19Z</time>
      </trkpt>
      <trkpt lat="45.02826" lon="0.41409">
        <ele>135.2</ele>
        <time>2015-06-17T14:36:41Z</time>
      </trkpt>
      <trkpt lat="45.02831" lon="0.41407">
        <ele>135.2</ele>
        <time>2015-06-17T14:36:45Z</time>
      </trkpt>
      <trkpt lat="45.02833" lon="0.41409">
        <ele>135.2</ele>
        <time>2015-06-17T14:36:57Z</time>
      </trkpt>
      <trkpt lat="45.02834" lon="0.41413">
        <ele>135.2</ele>
        <time>2015-06-17T14:37:09Z</time>
      </trkpt>
      <trkpt lat="45.02832" lon="0.4141">
        <ele>135.2</ele>
        <time>2015-06-17T14:37:24Z</time>
      </trkpt>
      <trkpt lat="45.02832" lon="0.41412">
        <ele>135.2</ele>
        <time>2015-06-17T14:37:37Z</time>
      </trkpt>
      <trkpt lat="45.02835" lon="0.41409">
        <ele>135.2</ele>
        <time>2015-06-17T14:37:41Z</time>
      </trkpt>
      <trkpt lat="45.02837" lon="0.41405">
        <ele>135.2</ele>
        <time>2015-06-17T14:37:55Z</time>
      </trkpt>
      <trkpt lat="45.02837" lon="0.41411">
        <ele>135.2</ele>
        <time>2015-06-17T14:38:19Z</time>
      </trkpt>
      <trkpt lat="45.02835" lon="0.41411">
        <ele>135.2</ele>
        <time>2015-06-17T14:38:51Z</time>
      </trkpt>
      <trkpt lat="45.02837" lon="0.41407">
        <ele>135.2</ele>
        <time>2015-06-17T14:39:16Z</time>
      </trkpt>
      <trkpt lat="45.02836" lon="0.41408">
        <ele>135.2</ele>
        <time>2015-06-17T14:39:57Z</time>
      </trkpt>
      <trkpt lat="45.02836" lon="0.4141">
        <ele>135.2</ele>
        <time>2015-06-17T14:40:18Z</time>
      </trkpt>
      <trkpt lat="45.02833" lon="0.41415">
        <ele>135.2</ele>
        <time>2015-06-17T14:40:32Z</time>
      </trkpt>
      <trkpt lat="45.02832" lon="0.41413">
        <ele>135.68</ele>
        <time>2015-06-17T14:40:59Z</time>
      </trkpt>
      <trkpt lat="45.02831" lon="0.41413">
        <ele>135.68</ele>
        <time>2015-06-17T14:41:23Z</time>
      </trkpt>
      <trkpt lat="45.02832" lon="0.41416">
        <ele>135.2</ele>
        <time>2015-06-17T14:41:49Z</time>
      </trkpt>
      <trkpt lat="45.02831" lon="0.41416">
        <ele>135.2</ele>
        <time>2015-06-17T14:42:16Z</time>
      </trkpt>
      <trkpt lat="45.02833" lon="0.41415">
        <ele>135.2</ele>
        <time>2015-06-17T14:42:41Z</time>
      </trkpt>
      <trkpt lat="45.02832" lon="0.41412">
        <ele>135.2</ele>
        <time>2015-06-17T14:42:56Z</time>
      </trkpt>
      <trkpt lat="45.02831" lon="0.41405">
        <ele>135.2</ele>
        <time>2015-06-17T14:43:09Z</time>
      </trkpt>
      <trkpt lat="45.02832" lon="0.41406">
        <ele>135.2</ele>
        <time>2015-06-17T14:43:33Z</time>
      </trkpt>
      <trkpt lat="45.02833" lon="0.41406">
        <ele>135.68</ele>
        <time>2015-06-17T14:43:58Z</time>
      </trkpt>
      <trkpt lat="45.02828" lon="0.41405">
        <ele>135.68</ele>
        <time>2015-06-17T14:44:03Z</time>
      </trkpt>
      <trkpt lat="45.02825" lon="0.41406">
        <ele>135.68</ele>
        <time>2015-06-17T14:44:06Z</time>
      </trkpt>
      <trkpt lat="45.02813" lon="0.4141">
        <ele>135.68</ele>
        <time>2015-06-17T14:44:20Z</time>
      </trkpt>
      <trkpt lat="45.02802" lon="0.41418">
        <ele>135.68</ele>
        <time>2015-06-17T14:44:36Z</time>
      </trkpt>
      <trkpt lat="45.028" lon="0.41419">
        <ele>134.24</ele>
        <time>2015-06-17T14:44:39Z</time>
      </trkpt>
      <trkpt lat="45.02799" lon="0.41419">
        <ele>134.24</ele>
        <time>2015-06-17T14:44:40Z</time>
      </trkpt>
      <trkpt lat="45.02788" lon="0.41424">
        <ele>133.76</ele>
        <time>2015-06-17T14:44:50Z</time>
      </trkpt>
      <trkpt lat="45.02785" lon="0.41425">
        <ele>133.76</ele>
        <time>2015-06-17T14:44:52Z</time>
      </trkpt>
      <trkpt lat="45.02772" lon="0.4143">
        <ele>132.8</ele>
        <time>2015-06-17T14:45:06Z</time>
      </trkpt>
      <trkpt lat="45.02766" lon="0.41427">
        <ele>132.8</ele>
        <time>2015-06-17T14:45:12Z</time>
      </trkpt>
      <trkpt lat="45.02758" lon="0.41424">
        <ele>132.32</ele>
        <time>2015-06-17T14:45:20Z</time>
      </trkpt>
      <trkpt lat="45.02749" lon="0.41427">
        <ele>132.32</ele>
        <time>2015-06-17T14:45:27Z</time>
      </trkpt>
      <trkpt lat="45.02748" lon="0.41426">
        <ele>131.84</ele>
        <time>2015-06-17T14:45:29Z</time>
      </trkpt>
      <trkpt lat="45.02735" lon="0.41434">
        <ele>131.84</ele>
        <time>2015-06-17T14:45:42Z</time>
      </trkpt>
      <trkpt lat="45.02727" lon="0.41444">
        <ele>131.84</ele>
        <time>2015-06-17T14:45:53Z</time>
      </trkpt>
      <trkpt lat="45.02724" lon="0.41448">
        <ele>131.84</ele>
        <time>2015-06-17T14:45:59Z</time>
      </trkpt>
      <trkpt lat="45.02723" lon="0.41452">
        <ele>131.84</ele>
        <time>2015-06-17T14:46:02Z</time>
      </trkpt>
      <trkpt lat="45.02716" lon="0.41459">
        <ele>131.84</ele>
        <time>2015-06-17T14:46:10Z</time>
      </trkpt>
      <trkpt lat="45.02714" lon="0.41462">
        <ele>133.28</ele>
        <time>2015-06-17T14:46:24Z</time>
      </trkpt>
      <trkpt lat="45.02714" lon="0.41463">
        <ele>133.28</ele>
        <time>2015-06-17T14:46:28Z</time>
      </trkpt>
      <trkpt lat="45.02701" lon="0.41479">
        <ele>132.32</ele>
        <time>2015-06-17T14:46:42Z</time>
      </trkpt>
      <trkpt lat="45.02695" lon="0.41488">
        <ele>132.32</ele>
        <time>2015-06-17T14:46:49Z</time>
      </trkpt>
      <trkpt lat="45.0269" lon="0.41498">
        <ele>131.36</ele>
        <time>2015-06-17T14:46:56Z</time>
      </trkpt>
      <trkpt lat="45.02683" lon="0.41509">
        <ele>130.4</ele>
        <time>2015-06-17T14:47:08Z</time>
      </trkpt>
      <trkpt lat="45.02681" lon="0.4151">
        <ele>129.92</ele>
        <time>2015-06-17T14:47:10Z</time>
      </trkpt>
      <trkpt lat="45.02675" lon="0.41511">
        <ele>129.92</ele>
        <time>2015-06-17T14:47:15Z</time>
      </trkpt>
      <trkpt lat="45.02662" lon="0.41498">
        <ele>128.95</ele>
        <time>2015-06-17T14:47:27Z</time>
      </trkpt>
      <trkpt lat="45.02657" lon="0.41488">
        <ele>127.99</ele>
        <time>2015-06-17T14:47:34Z</time>
      </trkpt>
      <trkpt lat="45.02646" lon="0.41476">
        <ele>127.03</ele>
        <time>2015-06-17T14:47:47Z</time>
      </trkpt>
      <trkpt lat="45.02645" lon="0.41474">
        <ele>127.03</ele>
        <time>2015-06-17T14:47:48Z</time>
      </trkpt>
      <trkpt lat="45.02633" lon="0.41458">
        <ele>124.63</ele>
        <time>2015-06-17T14:48:01Z</time>
      </trkpt>
      <trkpt lat="45.02621" lon="0.41442">
        <ele>123.19</ele>
        <time>2015-06-17T14:48:14Z</time>
      </trkpt>
      <trkpt lat="45.02617" lon="0.41435">
        <ele>121.74</ele>
        <time>2015-06-17T14:48:19Z</time>
      </trkpt>
      <trkpt lat="45.02613" lon="0.41429">
        <ele>120.78</ele>
        <time>2015-06-17T14:48:24Z</time>
      </trkpt>
      <trkpt lat="45.026" lon="0.41412">
        <ele>118.38</ele>
        <time>2015-06-17T14:48:37Z</time>
      </trkpt>
      <trkpt lat="45.02598" lon="0.41409">
        <ele>118.38</ele>
        <time>2015-06-17T14:48:40Z</time>
      </trkpt>
      <trkpt lat="45.02597" lon="0.41401">
        <ele>117.9</ele>
        <time>2015-06-17T14:48:53Z</time>
      </trkpt>
      <trkpt lat="45.02598" lon="0.41397">
        <ele>117.9</ele>
        <time>2015-06-17T14:49:05Z</time>
      </trkpt>
      <trkpt lat="45.02595" lon="0.41393">
        <ele>116.94</ele>
        <time>2015-06-17T14:49:21Z</time>
      </trkpt>
      <trkpt lat="45.02597" lon="0.41385">
        <ele>116.46</ele>
        <time>2015-06-17T14:49:35Z</time>
      </trkpt>
      <trkpt lat="45.02594" lon="0.41375">
        <ele>115.5</ele>
        <time>2015-06-17T14:49:42Z</time>
      </trkpt>
      <trkpt lat="45.02589" lon="0.41345">
        <ele>113.57</ele>
        <time>2015-06-17T14:50:01Z</time>
      </trkpt>
      <trkpt lat="45.02583" lon="0.41329">
        <ele>113.09</ele>
        <time>2015-06-17T14:50:15Z</time>
      </trkpt>
      <trkpt lat="45.02583" lon="0.41329">
        <ele>112.61</ele>
        <time>2015-06-17T14:50:21Z</time>
      </trkpt>
    </trkseg>
  </trk>
</gpx>